[[{"header":{"parameterUnit":"m.s-1","parameterCategory":1,"la1":30.6,"la2":29.2853,"lo1":-89.7004,"lo2":-87.6739,"dy":0.0162,"dx":0.0183,"nx":112,"ny":82,"refTime":"2023-07-02T12:00:00:Z","depth":0,"parameterNumber":2,"parameterNumberName":"U-component_of_WINDS"},"data":[0.0,0.0,0.0,0.0,0.0,0.0,0.0,0.0,0.0,0.0,0.0,0.0,0.0,0.0,0.0,0.0,0.0,0.0,0.0,0.0,0.0,0.0,0.0,0.0,0.0,0.0,0.0,0.0,0.0,0.0,0.0,0.0,0.0,0.0,0.0,0.0,0.0,0.0,0.0,0.0,0.0,0.0,0.0,0.0,0.0,0.0,0.0,0.0,0.0,0.0,0.0,0.0,0.0,0.0,0.0,0.0,0.0,0.0,0.0,0.0,0.0,0.0,0.0,0.0,0.0,0.0,0.0,0.0,0.0,0.0,0.0,0.0,0.0,0.0,0.0,0.0,0.0,0.0,0.0,0.0,0.0,0.0,0.0,0.0,0.0,0.0,0.0,0.0,0.0,0.0,-1.1796,-1.3,-1.5147,-1.65,-1.65,-1.6019,-1.5731,-1.5819,0.0,0.0,0.0,0.0,0.0,0.0,0.0,0.0,0.0,0.0,0.0,0.0,0.0,0.0,0.0,0.0,0.0,0.0,0.0,0.0,0.0,0.0,0.0,0.0,0.0,0.0,0.0,0.0,0.0,0.0,0.0,0.0,0.0,0.0,0.0,0.0,0.0,0.0,0.0,0.0,0.0,0.0,0.0,0.0,0.0,0.0,0.0,0.0,0.0,0.0,0.0,0.0,0.0,0.0,0.0,0.0,0.0,0.0,0.0,0.0,0.0,0.0,0.0,0.0,0.0,0.0,0.0,0.0,0.0,0.0,0.0,0.0,0.0,0.0,0.0,0.0,0.0,0.0,0.0,0.0,0.0,0.0,0.0,0.0,0.0,0.0,0.0,0.0,0.0,0.0,0.0,0.0,0.0,0.0,0.0,0.0,0.0,0.0,0.0,0.0,0.0,0.0,0.0,0.0,-1.3312,-1.4454,-1.5744,-1.65,-1.65,-1.6019,-1.5894,-1.6337,0.0,0.0,0.0,0.0,0.0,0.0,0.0,0.0,0.0,0.0,0.0,0.0,0.0,0.0,0.0,0.0,0.0,0.0,0.0,0.0,0.0,0.0,0.0,0.0,0.0,0.0,0.0,0.0,0.0,0.0,0.0,0.0,0.0,0.0,0.0,0.0,0.0,0.0,0.0,0.0,0.0,0.0,0.0,0.0,0.0,0.0,0.0,0.0,0.0,0.0,0.0,0.0,0.0,0.0,0.0,0.0,0.0,0.0,0.0,0.0,0.0,0.0,0.0,0.0,0.0,0.0,0.0,0.0,0.0,0.0,0.0,0.0,0.0,0.0,0.0,0.0,0.0,0.0,0.0,0.0,0.0,0.0,0.0,0.0,0.0,0.0,0.0,0.0,0.0,0.0,0.0,0.0,0.0,0.0,0.0,0.0,0.0,0.0,0.0,0.0,0.0,0.0,0.0,-1.3093,-1.3969,-1.4428,-1.5699,-1.65,-1.65,-1.6263,-1.6364,-1.6891,-1.596,0.0,0.0,0.0,0.0,0.0,0.0,0.0,0.0,0.0,0.0,0.0,0.0,0.0,0.0,0.0,0.0,0.0,0.0,0.0,0.0,0.0,0.0,0.0,0.0,0.0,0.0,0.0,0.0,0.0,0.0,0.0,0.0,0.0,0.0,0.0,0.0,0.0,0.0,0.0,0.0,0.0,0.0,0.0,0.0,0.0,0.0,0.0,0.0,0.0,0.0,0.0,0.0,0.0,0.0,0.0,0.0,0.0,0.0,0.0,0.0,0.0,0.0,0.0,0.0,0.0,0.0,0.0,0.0,0.0,0.0,0.0,0.0,0.0,0.0,0.0,0.0,0.0,0.0,0.0,0.0,0.0,0.0,0.0,0.0,0.0,0.0,0.0,0.0,0.0,0.0,0.0,0.0,0.0,0.0,0.0,0.0,0.0,0.0,0.0,0.0,0.0,0.0,-1.3526,-1.4099,-1.4283,-1.5624,-1.6552,-1.668,-1.6543,-1.6692,-1.7252,-1.6886,0.0,0.0,0.0,0.0,0.0,0.0,0.0,0.0,0.0,0.0,0.0,0.0,0.0,0.0,0.0,0.0,0.0,0.0,0.0,0.0,0.0,0.0,0.0,0.0,0.0,0.0,0.0,0.0,0.0,0.0,0.0,0.0,0.0,0.0,0.0,0.0,0.0,0.0,0.0,0.0,0.0,0.0,0.0,0.0,0.0,0.0,0.0,0.0,0.0,0.0,0.0,0.0,0.0,0.0,0.0,0.0,0.0,0.0,0.0,0.0,0.0,0.0,0.0,0.0,0.0,0.0,0.0,0.0,0.0,0.0,0.0,0.0,0.0,0.0,0.0,0.0,0.0,0.0,0.0,0.0,0.0,0.0,0.0,0.0,0.0,0.0,0.0,0.0,0.0,0.0,0.0,0.0,0.0,0.0,0.0,0.0,0.0,0.0,0.0,0.0,0.0,0.0,-1.3563,-1.3681,-1.4732,-1.5836,-1.6689,-1.7188,-1.6664,-1.6605,-1.7252,-1.7151,0.0,0.0,0.0,0.0,0.0,0.0,0.0,0.0,0.0,0.0,0.0,0.0,0.0,0.0,0.0,0.0,0.0,0.0,0.0,0.0,0.0,0.0,0.0,0.0,0.0,0.0,0.0,0.0,0.0,0.0,0.0,0.0,0.0,0.0,0.0,0.0,0.0,0.0,0.0,0.0,0.0,0.0,0.0,0.0,0.0,0.0,0.0,0.0,0.0,0.0,0.0,0.0,0.0,0.0,0.0,0.0,0.0,0.0,0.0,0.0,0.0,0.0,0.0,0.0,0.0,0.0,0.0,0.0,0.0,0.0,0.0,0.0,0.0,0.0,0.0,0.0,0.0,0.0,0.0,0.0,0.0,0.0,0.0,0.0,0.0,0.0,0.0,0.0,0.0,0.0,0.0,0.0,0.0,0.0,0.0,0.0,0.0,0.0,0.0,0.0,0.0,0.0,-1.3391,-1.4054,-1.4828,-1.5555,-1.6168,-1.6644,-1.675,-1.6904,-1.7159,0.0,0.0,0.0,0.0,0.0,0.0,0.0,0.0,0.0,0.0,0.0,0.0,0.0,0.0,0.0,0.0,0.0,0.0,0.0,0.0,0.0,0.0,0.0,0.0,0.0,0.0,0.0,0.0,0.0,0.0,0.0,0.0,0.0,0.0,0.0,0.0,0.0,0.0,0.0,0.0,0.0,0.0,0.0,0.0,0.0,0.0,0.0,0.0,0.0,0.0,0.0,0.0,0.0,0.0,0.0,0.0,0.0,0.0,0.0,0.0,0.0,0.0,0.0,0.0,0.0,0.0,0.0,0.0,0.0,0.0,0.0,0.0,0.0,0.0,0.0,0.0,0.0,0.0,0.0,0.0,0.0,0.0,0.0,0.0,0.0,0.0,0.0,0.0,0.0,0.0,0.0,0.0,0.0,0.0,0.0,0.0,0.0,0.0,0.0,0.0,0.0,0.0,-1.2461,-1.3107,-1.3846,-1.4576,-1.5227,-1.5821,-1.6273,-1.6573,-1.6921,-1.733,0.0,0.0,0.0,0.0,0.0,0.0,0.0,0.0,0.0,0.0,0.0,0.0,0.0,0.0,0.0,0.0,0.0,0.0,0.0,0.0,0.0,0.0,0.0,0.0,0.0,0.0,0.0,0.0,0.0,0.0,0.0,0.0,0.0,0.0,0.0,0.0,0.0,0.0,0.0,0.0,0.0,0.0,0.0,0.0,0.0,0.0,0.0,0.0,0.0,0.0,0.0,0.0,0.0,0.0,0.0,0.0,0.0,0.0,0.0,0.0,0.0,0.0,0.0,0.0,0.0,0.0,0.0,0.0,0.0,0.0,0.0,0.0,0.0,0.0,0.0,0.0,0.0,0.0,0.0,0.0,0.0,0.0,0.0,0.0,0.0,0.0,0.0,0.0,0.0,0.0,0.0,0.0,0.0,0.0,0.0,0.0,0.0,0.0,0.0,0.0,0.0,0.0,-1.3181,-1.273,-1.2831,-1.399,-1.4942,-1.5713,-1.6261,-1.6132,-1.6551,0.0,0.0,0.0,0.0,0.0,0.0,0.0,0.0,0.0,0.0,0.0,0.0,0.0,0.0,0.0,0.0,0.0,0.0,0.0,0.0,0.0,0.0,0.0,0.0,0.0,0.0,0.0,0.0,0.0,0.0,0.0,0.0,0.0,0.0,0.0,0.0,0.0,0.0,0.0,0.0,0.0,0.0,0.0,0.0,0.0,0.0,0.0,0.0,0.0,0.0,0.0,0.0,0.0,0.0,0.0,0.0,0.0,0.0,0.0,0.0,0.0,0.0,0.0,0.0,0.0,0.0,0.0,0.0,0.0,0.0,0.0,0.0,0.0,0.0,0.0,0.0,0.0,0.0,0.0,0.0,0.0,0.0,0.0,0.0,0.0,0.0,0.0,0.0,0.0,0.0,0.0,0.0,0.0,0.0,0.0,0.0,0.0,0.0,0.0,0.0,0.0,0.0,0.0,-1.2108,-1.1932,-1.252,-1.4323,-1.5186,-1.5757,-1.6058,-1.6424,-1.6789,-1.7165,0.0,0.0,0.0,0.0,0.0,0.0,0.0,0.0,0.0,0.0,0.0,0.0,0.0,0.0,0.0,0.0,0.0,0.0,0.0,0.0,0.0,0.0,0.0,0.0,0.0,0.0,0.0,0.0,0.0,0.0,0.0,0.0,0.0,0.0,0.0,0.0,0.0,0.0,0.0,0.0,0.0,0.0,0.0,0.0,0.0,0.0,0.0,0.0,0.0,0.0,0.0,0.0,0.0,0.0,0.0,0.0,0.0,0.0,0.0,0.0,0.0,0.0,0.0,0.0,0.0,0.0,0.0,0.0,0.0,0.0,0.0,0.0,0.0,0.0,0.0,0.0,0.0,0.0,0.0,0.0,0.0,0.0,0.0,0.0,0.0,0.0,0.0,0.0,0.0,0.0,0.0,0.0,0.0,0.0,0.0,0.0,0.0,0.0,0.0,0.0,0.0,0.0,-1.2674,-1.2171,-1.2545,-1.4533,-1.526,-1.5734,-1.6018,-1.6528,-1.6828,-1.6828,0.0,0.0,0.0,0.0,0.0,0.0,0.0,0.0,0.0,0.0,0.0,0.0,0.0,0.0,0.0,0.0,0.0,0.0,0.0,0.0,0.0,0.0,0.0,0.0,0.0,0.0,0.0,0.0,0.0,0.0,0.0,0.0,0.0,0.0,0.0,0.0,0.0,0.0,0.0,0.0,0.0,0.0,0.0,0.0,0.0,0.0,0.0,0.0,0.0,0.0,0.0,0.0,0.0,0.0,0.0,0.0,0.0,0.0,0.0,0.0,0.0,0.0,0.0,0.0,0.0,0.0,0.0,0.0,0.0,0.0,0.0,0.0,0.0,0.0,0.0,0.0,0.0,0.0,0.0,0.0,0.0,0.0,0.0,0.0,0.0,0.0,0.0,0.0,0.0,0.0,0.0,0.0,0.0,0.0,0.0,0.0,0.0,0.0,0.0,0.0,0.0,0.0,-1.4409,-1.3206,-1.2955,-1.4743,-1.5418,-1.5886,-1.622,-1.6584,-1.6786,-1.6786,0.0,0.0,0.0,0.0,0.0,0.0,0.0,0.0,0.0,0.0,0.0,0.0,0.0,0.0,0.0,0.0,0.0,0.0,0.0,0.0,0.0,0.0,0.0,0.0,0.0,0.0,0.0,0.0,0.0,0.0,0.0,0.0,0.0,0.0,0.0,0.0,0.0,0.0,0.0,0.0,0.0,0.0,0.0,0.0,0.0,0.0,0.0,0.0,0.0,0.0,0.0,0.0,0.0,0.0,0.0,0.0,0.0,0.0,0.0,0.0,-1.2912,-1.2611,0.0,0.0,0.0,0.0,0.0,0.0,0.0,0.0,0.0,0.0,0.0,0.0,0.0,0.0,0.0,0.0,0.0,0.0,0.0,0.0,0.0,0.0,0.0,0.0,0.0,0.0,0.0,0.0,0.0,0.0,0.0,0.0,0.0,0.0,0.0,0.0,0.0,0.0,0.0,0.0,-1.5951,-1.4607,-1.4206,-1.5821,-1.692,-1.749,-1.7372,-1.7441,-1.7488,-1.7488,-1.713,0.0,0.0,0.0,0.0,0.0,0.0,0.0,0.0,0.0,0.0,0.0,0.0,0.0,0.0,0.0,0.0,0.0,0.0,0.0,0.0,0.0,0.0,0.0,0.0,0.0,0.0,0.0,0.0,0.0,0.0,0.0,0.0,0.0,0.0,0.0,0.0,0.0,0.0,0.0,0.0,0.0,0.0,0.0,0.0,0.0,0.0,0.0,0.0,0.0,0.0,0.0,0.0,0.0,0.0,0.0,0.0,0.0,0.0,0.0,-1.4058,-1.3708,0.0,0.0,0.0,0.0,0.0,0.0,0.0,0.0,0.0,0.0,0.0,0.0,0.0,0.0,0.0,0.0,0.0,0.0,0.0,0.0,0.0,0.0,0.0,0.0,0.0,0.0,0.0,0.0,0.0,0.0,0.0,0.0,0.0,0.0,0.0,0.0,0.0,0.0,0.0,0.0,-1.6453,-1.5425,-1.5247,-1.6708,-1.7609,-1.8109,-1.8173,-1.8177,-1.7908,-1.7264,-1.7488,0.0,0.0,0.0,0.0,0.0,0.0,0.0,0.0,0.0,0.0,0.0,0.0,0.0,0.0,0.0,0.0,0.0,0.0,0.0,0.0,0.0,0.0,0.0,0.0,0.0,0.0,0.0,0.0,0.0,0.0,0.0,0.0,0.0,0.0,0.0,0.0,0.0,0.0,0.0,0.0,0.0,0.0,0.0,0.0,0.0,0.0,0.0,0.0,0.0,0.0,0.0,0.0,0.0,-1.5769,-1.64,-1.65,-1.65,-1.6384,-1.613,-1.5693,-1.5375,-1.5215,-1.5752,0.0,0.0,0.0,0.0,0.0,0.0,0.0,0.0,0.0,0.0,0.0,0.0,0.0,0.0,0.0,0.0,0.0,0.0,0.0,0.0,0.0,0.0,-1.989,-2.0574,-1.9953,-1.9205,-1.9094,0.0,0.0,0.0,0.0,0.0,0.0,0.0,0.0,0.0,0.0,0.0,-1.6637,-1.6185,-1.6344,-1.7562,-1.809,-1.8505,-1.8847,-1.8777,-1.8222,-1.7115,-1.7983,-1.8326,0.0,0.0,0.0,0.0,0.0,0.0,0.0,0.0,0.0,0.0,0.0,0.0,0.0,0.0,0.0,0.0,0.0,0.0,0.0,0.0,0.0,0.0,0.0,0.0,0.0,0.0,0.0,0.0,0.0,0.0,0.0,0.0,-0.8623,-1.1874,0.0,0.0,0.0,0.0,0.0,0.0,0.0,0.0,0.0,0.0,0.0,0.0,0.0,-1.5955,-1.5881,-1.562,-1.5716,-1.6177,-1.5915,-1.6057,-1.65,-1.65,-1.7034,-1.7953,-1.7874,0.0,-1.6336,-1.6864,0.0,0.0,0.0,0.0,0.0,0.0,0.0,0.0,0.0,0.0,0.0,0.0,0.0,0.0,0.0,0.0,0.0,0.0,0.0,0.0,0.0,0.0,-1.9906,-2.0776,-2.0717,-2.0334,-1.988,-1.894,-1.8224,-1.8305,-1.8315,-1.7921,0.0,0.0,0.0,0.0,0.0,0.0,-1.7211,-1.7523,-1.7921,-1.8407,-1.909,-1.9519,-1.9555,-1.9031,-1.8627,-1.8446,-1.8057,-1.8057,-1.8553,-1.8747,0.0,0.0,0.0,0.0,0.0,0.0,0.0,0.0,0.0,0.0,0.0,0.0,0.0,0.0,0.0,0.0,0.0,0.0,0.0,0.0,0.0,0.0,0.0,0.0,0.0,0.0,0.0,0.0,0.0,-1.0105,-1.0828,-1.3184,-1.302,-1.2872,0.0,0.0,0.0,0.0,0.0,0.0,0.0,0.0,0.0,-1.5003,-1.599,-1.6541,-1.6601,-1.6625,-1.693,-1.7514,-1.7238,-1.7237,-1.7463,-1.7808,-1.8244,-1.8791,-1.9464,-1.9468,-1.8951,-1.8494,-1.8182,-1.8054,0.0,0.0,0.0,0.0,-1.9822,-1.9752,-2.0284,-2.0625,-2.0797,-2.0737,0.0,0.0,0.0,0.0,0.0,0.0,0.0,-2.0415,-2.0298,-2.0682,-2.116,-2.1348,-2.1298,-2.1262,-2.1433,-2.0238,-1.9003,-1.8631,-1.8269,-1.7909,-1.7478,-1.8335,0.0,0.0,0.0,-1.8036,-1.8585,-1.8328,-1.8386,-1.913,-1.9518,-1.9708,-1.9708,-1.9438,-1.9111,-1.871,-1.8781,-1.8779,-1.8695,-1.9066,-1.9408,0.0,0.0,0.0,0.0,0.0,0.0,0.0,0.0,0.0,0.0,0.0,0.0,0.0,0.0,0.0,0.0,0.0,0.0,0.0,0.0,0.0,0.0,0.0,0.0,0.0,0.0,0.0,0.0,-1.1094,-1.2796,-1.3888,-1.3797,-1.3824,0.0,0.0,0.0,0.0,0.0,0.0,-1.6135,-1.6283,-1.644,-1.6612,-1.682,-1.7059,-1.7303,-1.7516,-1.7913,-1.8476,-1.8427,-1.8576,-1.887,-1.9339,-1.9707,-2.0057,-2.0983,-2.1373,-2.1274,-2.0204,-1.9251,-1.8527,-1.9498,-1.9855,-1.9942,-2.1035,-2.1418,-2.1481,-2.201,-2.2188,-2.2099,-2.1605,-2.1218,-2.0833,-2.0171,0.0,0.0,0.0,0.0,-2.0942,-2.1055,-2.1557,-2.2032,-2.2087,-2.1974,-2.201,-2.2549,-2.1492,-2.0151,-1.9328,-1.8517,-1.7923,-1.7727,-1.8374,0.0,-1.9068,-1.8761,-1.8667,-1.9132,-1.8794,-1.882,-1.9612,-1.9708,-1.9708,-1.9708,-1.9708,-1.9486,-1.8985,-1.9429,-1.9489,-1.897,-1.9444,-1.9708,-1.9708,0.0,0.0,0.0,0.0,0.0,0.0,0.0,0.0,0.0,0.0,0.0,0.0,0.0,0.0,0.0,0.0,0.0,0.0,0.0,0.0,0.0,0.0,0.0,0.0,0.0,0.0,0.0,0.0,0.0,-1.316,-1.2801,0.0,0.0,0.0,0.0,-1.5931,-1.6715,-1.7403,-1.7935,-1.8038,-1.8395,-1.9106,-1.8474,-1.8392,-1.8963,-1.8418,-1.8417,-1.8957,-1.897,-1.9556,-2.0667,-2.0716,-2.137,-2.2526,-2.2571,-2.2622,-2.2557,-2.1859,-2.153,-2.1545,-2.2243,-2.2205,-2.1895,-2.3028,-2.3171,-2.2855,-2.3354,-2.3505,-2.3505,-2.3475,-2.2642,-2.1521,-2.0845,-2.0239,0.0,0.0,-2.1139,-2.0845,-2.1862,-2.1844,-2.1822,-2.2963,-2.2878,-2.2567,-2.2616,-2.2177,-2.1406,-2.01,-1.9408,-1.8498,-1.6847,0.0,-1.929,-1.7657,-1.8665,-1.9179,-1.7971,-1.8871,-1.9645,-1.9693,-1.9708,-1.9708,-1.9708,-1.9708,-1.9693,-1.9648,-1.9678,-1.9678,-1.9648,-1.9678,-1.9708,-1.9708,-1.9708,0.0,0.0,0.0,0.0,0.0,0.0,0.0,0.0,0.0,0.0,0.0,0.0,0.0,0.0,0.0,0.0,0.0,0.0,0.0,0.0,0.0,0.0,0.0,0.0,0.0,0.0,0.0,0.0,-1.5038,-1.5036,0.0,-1.6277,-1.7015,-1.7426,-1.7392,-1.8368,-1.9046,-1.9253,-1.9356,-1.9539,-1.9795,-1.9514,-1.9658,-2.0239,-1.9558,-1.9546,-2.0161,-2.0161,-2.0389,-2.082,-2.1657,-2.2267,-2.2717,-2.3098,-2.3266,-2.3251,-2.3011,-2.2443,-2.1754,-2.2448,-2.2822,-2.3089,-2.3925,-2.441,-2.4652,-2.4828,-2.459,-2.4096,-2.3302,-2.2121,-2.1004,-2.0774,-2.0535,-2.0656,-2.1972,-2.2079,-2.2035,-2.287,-2.288,-2.2576,-2.2285,-2.2673,-2.3034,-2.2729,-2.2193,-2.1638,-2.1149,-2.0364,-1.9519,-1.8862,-1.976,-2.0168,-1.902,-1.9701,-2.0012,-1.9102,-1.9397,-1.9708,-1.9708,-1.9708,-1.9708,-1.9708,-1.9937,-2.0083,-2.0083,-2.0375,-2.0392,-2.01,-2.0093,-1.9965,-1.9708,-1.9708,-1.9708,0.0,0.0,0.0,0.0,0.0,0.0,0.0,0.0,0.0,0.0,0.0,0.0,0.0,0.0,0.0,0.0,0.0,0.0,0.0,0.0,0.0,0.0,0.0,0.0,0.0,-1.4092,-1.4992,-1.6462,-1.6687,-1.6995,-1.7777,-1.8736,-1.9217,-1.898,-1.9923,-2.0606,-2.0825,-2.0514,-2.052,-2.095,-2.0301,-2.0239,-2.0856,-2.0152,-2.0131,-2.0795,-2.0795,-2.1042,-2.1465,-2.2314,-2.2807,-2.3046,-2.3421,-2.3595,-2.3595,-2.3595,-2.3101,-2.2428,-2.3332,-2.4044,-2.4687,-2.5375,-2.5899,-2.6243,-2.6019,-2.5337,-2.4433,-2.3377,-2.2265,-2.1327,-2.1118,-2.1053,-2.1308,-2.262,-2.2736,-2.2674,-2.3604,-2.3547,-2.3106,-2.2627,-2.3151,-2.3652,-2.3369,-2.2978,-2.2564,-2.2105,-2.1281,-2.0434,-1.9778,-2.05,-2.0852,-1.9901,-2.0303,-2.055,-2.0199,-2.0083,-2.0064,-2.013,-1.9891,-1.9708,-1.9708,-2.0062,-2.0307,-2.0309,-2.059,-2.0622,-2.0307,-2.0164,-1.9965,-1.9708,-1.9708,-1.9708,-1.9708,0.0,0.0,0.0,0.0,0.0,0.0,0.0,0.0,0.0,0.0,0.0,0.0,0.0,0.0,0.0,0.0,0.0,0.0,0.0,0.0,0.0,0.0,0.0,-1.4862,-1.525,-1.6051,-1.726,-1.7516,-1.7974,-1.8893,-1.9711,-2.0333,-2.0729,-2.138,-2.2039,-2.2697,-2.1546,-2.1433,-2.2692,-2.0832,-2.0156,-2.0835,-2.0156,-2.0156,-2.0795,-2.0845,-2.1513,-2.2694,-2.2717,-2.3054,-2.3595,-2.3595,-2.3595,-2.3595,-2.3595,-2.361,-2.3759,-2.5091,-2.6004,-2.6632,-2.7345,-2.7585,-2.7465,-2.6791,-2.5689,-2.4499,-2.3917,-2.3273,-2.2595,-2.195,-2.1775,-2.2038,-2.3257,-2.3056,-2.2746,-2.4017,-2.3708,-2.3305,-2.4121,-2.4351,-2.4411,-2.4487,-2.4534,-2.4207,-2.2967,-2.2184,-2.1162,-1.9392,-2.0562,-2.1333,-2.0131,-2.0425,0.0,-2.1006,-2.0828,-2.0784,-2.0997,-2.0254,-1.9738,-1.9738,-2.0102,-2.035,-2.0292,-2.0335,-2.0331,-2.0297,-1.9927,-1.9711,-1.9708,-1.9708,-1.9708,-1.9708,0.0,0.0,0.0,0.0,0.0,0.0,0.0,0.0,0.0,0.0,0.0,0.0,0.0,0.0,0.0,0.0,0.0,0.0,0.0,0.0,0.0,-1.709,-1.7204,-1.717,-1.7539,-1.8295,-1.9608,-1.9803,-2.0125,-2.0872,-2.1565,-2.2027,-2.2143,-2.2727,-2.314,-2.3281,-2.2566,-2.2484,-2.3197,-2.1469,-2.0806,-2.1365,-2.0806,-2.0622,-2.0795,-2.1752,-2.236,-2.2717,-2.3143,-2.3443,-2.3595,-2.3595,-2.3595,-2.3595,-2.3595,-2.3894,-2.441,-2.5262,-2.5719,-2.6019,-2.718,-2.7285,-2.6692,-2.5555,-2.4903,-2.4582,-2.4408,-2.394,-2.3385,-2.3207,-2.3483,-2.3853,-2.3645,-2.3709,-2.4041,-2.4887,-2.4105,-2.334,-2.4215,-2.4408,-2.4438,-2.4611,-2.4283,-2.3836,-2.3484,-2.2881,-2.2115,-2.1133,-2.1768,-2.2149,-2.1319,-2.1737,-2.1994,-2.1575,-2.1029,-2.0912,-2.1443,-2.0869,-2.0437,-2.0437,-2.112,-2.1169,-2.035,-2.0879,-2.0959,-2.0331,-2.0177,-2.0,-1.9708,-1.9708,-1.9708,0.0,0.0,0.0,0.0,0.0,0.0,0.0,0.0,0.0,0.0,0.0,0.0,0.0,0.0,0.0,0.0,0.0,0.0,0.0,0.0,0.0,0.0,-1.9122,-1.9718,-2.0255,-2.0064,-2.0178,-2.1011,-2.1365,-2.168,-2.2089,-2.2951,-2.349,-2.349,-2.3792,-2.3973,-2.3908,-2.2845,-2.2468,-2.2975,-2.1287,-2.077,-2.1576,-2.1074,-2.1211,-2.2028,-2.2488,-2.2989,-2.3501,-2.3577,-2.3759,-2.4007,-2.4007,-2.4007,-2.4044,-2.4328,-2.45,-2.4664,0.0,0.0,0.0,0.0,-2.5776,-2.4883,-2.4391,-2.421,-2.4187,-2.3917,-2.4116,-2.4443,-2.4215,-2.4365,-2.4525,-2.406,-2.3931,-2.4082,-2.4773,-2.4279,-2.391,-2.5064,-2.5316,-2.5331,-2.5452,-2.4969,-2.4332,-2.3806,-2.3164,0.0,-2.2197,-2.2447,-2.2571,-2.2186,-2.2447,-2.2658,-2.2503,-2.1947,-2.15,-2.1411,-2.0966,-2.0592,-2.0302,-2.0898,0.0,0.0,0.0,-2.0749,-2.0072,-2.0052,0.0,0.0,0.0,-1.9708,-1.9708,-1.9708,0.0,0.0,-2.0094,-1.9869,0.0,0.0,0.0,0.0,0.0,0.0,0.0,0.0,0.0,0.0,0.0,0.0,0.0,0.0,0.0,0.0,-2.1167,-2.2297,-2.3333,-2.2593,-2.1966,-2.2009,-2.2553,-2.2942,-2.3017,-2.4059,-2.4709,-2.4709,-2.4518,-2.4435,-2.4507,-2.2653,0.0,0.0,0.0,-2.0656,-2.181,-2.1446,-2.2072,-2.3677,-2.3233,-2.3618,-2.4694,-2.4103,-2.4163,-2.4709,-2.4709,-2.4709,-2.4754,-2.5262,-2.5128,-2.4664,-2.5252,-2.5167,-2.4664,-2.4519,-2.3716,-2.2759,-2.3283,0.0,0.0,-2.3073,-2.4144,-2.5497,-2.4951,-2.4764,-2.4658,-2.4374,-2.3864,-2.3563,-2.4262,-2.435,-2.4681,-2.6256,-2.6563,-2.6521,-2.6574,-2.6078,-2.5242,-2.4034,-2.3256,-2.2836,-2.2886,-2.2804,-2.2719,-2.2802,-2.2795,-2.3002,-2.3535,-2.3081,-2.2312,-2.1304,-2.0958,0.0,-1.9856,-2.0168,-2.0355,-2.0227,-2.0237,-2.0081,-1.9711,-1.9708,-1.9708,-1.9708,-1.9708,-1.9708,-1.9708,-1.9708,-1.9708,-1.9708,-1.9708,-1.9708,0.0,0.0,0.0,0.0,0.0,0.0,0.0,0.0,0.0,0.0,0.0,0.0,0.0,0.0,0.0,-2.1811,-2.2572,-2.3162,-2.3867,-2.4366,-2.4501,-2.4088,-2.4156,-2.444,-2.4986,-2.5247,-2.5397,-2.5397,-2.4443,-2.4033,-2.4478,-2.2653,-2.2338,-2.3945,-2.2751,-2.2432,-2.3204,-2.3713,-2.3874,-2.3715,-2.4608,0.0,-2.5397,-2.527,-2.5285,-2.5397,-2.5397,-2.5397,-2.5367,-2.4963,-2.4724,-2.4619,-2.4798,-2.4815,-2.4572,-2.348,-2.2919,-2.2654,-2.2223,-2.2446,-2.3054,-2.399,-2.4897,-2.5571,-2.54,-2.5704,0.0,-2.4,-2.3794,-2.4277,-2.5008,-2.4766,-2.4809,-2.689,-2.693,-2.6521,-2.6574,-2.6078,-2.5373,-2.4587,-2.3881,-2.3599,-2.4149,-2.3384,-2.2856,-2.3348,-2.3425,-2.346,-2.358,-2.3081,-2.2625,-2.2384,-2.185,-2.1227,-2.0556,-2.0874,-2.0735,-1.9866,-1.9821,-1.9785,-1.9693,-1.9708,-1.9708,-1.9708,-1.9708,-1.9708,-1.9708,-1.9708,-1.9708,-1.9708,-1.9708,-1.9708,0.0,0.0,0.0,0.0,0.0,0.0,0.0,0.0,0.0,0.0,0.0,-1.9142,-2.0204,0.0,-2.2167,-2.3605,-2.3948,-2.416,-2.4593,-2.4786,-2.47,-2.4169,-2.4395,-2.4605,-2.4597,-2.5211,-2.5615,-2.5615,-2.5282,-2.5214,-2.5506,-2.3931,-2.3606,-2.4873,-2.3767,-2.3595,-2.4549,-2.464,-2.4864,-2.5143,-2.5458,-2.5779,-2.6078,-2.542,-2.5277,-2.5615,-2.5615,-2.5615,-2.5615,-2.5615,-2.5615,-2.5535,-2.4876,-2.4428,-2.3988,-2.2645,-2.215,-2.2119,-2.1798,-2.2344,-2.3374,-2.4375,-2.534,-2.6093,-2.6025,-2.5973,-2.5645,-2.4221,-2.3738,-2.3972,-2.5091,-2.5119,-2.5315,-2.7163,-2.7054,-2.6552,-2.6574,-2.5809,-2.5098,-2.5098,-2.456,-2.4306,-2.4978,-2.457,-2.4153,-2.4119,-2.3819,-2.3595,-2.3595,-2.3337,-2.2977,-2.2549,-2.2004,-2.1426,-2.0757,-2.0578,-2.0276,-1.9741,-1.9708,-1.9708,-1.9708,-1.9708,-1.9708,-1.9708,-1.9708,-1.9708,-1.9708,-1.9708,-1.9708,-1.9708,-1.9708,-1.9708,0.0,0.0,0.0,0.0,0.0,0.0,0.0,0.0,-1.9212,-1.952,-2.0393,-2.144,-2.2503,-2.3591,-2.4513,-2.5108,-2.5019,-2.4913,-2.5029,-2.4681,-2.4227,-2.3674,-2.4186,-2.444,-2.4029,-2.5091,-2.5794,-2.5794,-2.613,-2.6376,-2.6506,-2.5242,-2.4841,-2.5613,-2.4731,-2.4722,-2.5694,-2.5417,-2.5717,-2.6587,-2.6183,-2.6273,-2.6752,-2.5689,-2.5495,-2.5989,-2.5989,-2.5914,-2.5839,-2.6378,-2.6512,-2.6296,-2.5152,-2.4405,-2.3788,-2.2323,-2.1877,-2.2003,-2.2065,-2.2884,-2.4004,-2.4664,-2.5663,-2.6584,-2.6533,-2.5987,-2.5259,-2.4509,-2.3826,-2.3649,-2.5035,-2.5508,-2.5946,-2.7265,-2.7195,-2.6707,-2.6452,-2.557,-2.4918,-2.5322,-2.4963,-2.4844,-2.5674,-2.5689,-2.5435,-2.4874,-2.4321,-2.3939,-2.3819,-2.3789,-2.3442,-2.2474,-2.2084,-2.157,-2.0761,-2.009,-1.9708,-1.9708,-1.9708,-1.9708,-1.9708,-1.9708,-1.9708,-1.9708,-1.9708,-1.9768,-1.9902,-1.9768,-1.9828,-2.0097,-1.9962,-1.9828,-1.6097,-1.6818,-1.7728,-1.7788,-1.8796,-1.988,0.0,-2.0548,-2.0764,-2.1148,-2.231,-2.337,-2.3751,-2.4925,-2.5869,-2.5865,-2.5466,-2.501,-2.4556,-2.4545,-2.4327,-2.367,-2.4186,-2.4799,-2.533,-2.6048,-2.6482,-2.6482,-2.6004,-2.5952,-2.6545,-2.5263,-2.5093,-2.6431,-2.6286,-2.6283,-2.6489,-2.7006,-2.7046,-2.6602,-2.7136,-2.742,-2.748,-2.733,-2.73,-2.7375,-2.7375,-2.7046,-2.6482,-2.6557,-2.6243,-2.5693,-2.5452,-2.5346,-2.5049,-2.3189,-2.2907,-2.3462,-2.3469,-2.395,-2.4679,-2.529,-2.5991,-2.6584,-2.6533,-2.5987,-2.5259,-2.4509,-2.4234,-2.4366,-2.5175,-2.5892,-2.6575,-2.7408,-2.754,-2.7165,-2.5974,-2.5576,-2.5322,-2.4814,-2.4649,-2.4993,-2.6273,-2.5989,-2.5561,-2.551,-2.5435,-2.5158,-2.456,-2.4485,-2.4022,-2.279,-2.2607,-2.2069,-2.0808,-2.0094,-1.9708,-1.9708,-1.9708,-1.9708,-1.9708,-1.9708,-1.9708,-1.9708,-1.9708,-1.9989,-2.0583,-1.9989,-2.0322,-2.1455,-2.0872,-2.0273,-1.7941,-1.7894,-1.7983,-1.9148,-1.9912,-2.0617,-2.164,-2.2184,-2.2746,-2.363,-2.4824,-2.5731,-2.5799,-2.6495,-2.685,-2.6115,-2.5559,-2.5012,-2.4471,-2.3867,-2.3385,-2.3122,-2.331,-2.3744,-2.4373,-2.5405,-2.6019,-2.6019,-2.6485,-2.6891,-2.7156,-2.6608,-2.6583,-2.7156,-2.7157,-2.7147,-2.718,-2.7465,-2.7465,-2.7195,-2.7465,-2.76,-2.7585,-2.721,-2.7031,-2.7031,-2.7031,-2.7091,-2.718,-2.718,-2.7031,-2.6718,-2.625,-2.6326,-2.6484,-2.4451,-2.4151,-2.4702,-2.4398,-2.4703,-2.5333,-2.5968,-2.6377,-2.6584,-2.6533,-2.5987,-2.5342,-2.5035,-2.4624,-2.4567,-2.5728,-2.6256,-2.6695,-2.7408,-2.73,-2.6866,-2.6303,-2.5884,-2.5621,-2.5749,-2.5764,-2.6063,-2.7031,-2.6956,-2.6752,-2.6752,-2.5779,-2.4918,-2.4649,-2.4261,-2.3679,-2.2791,-2.2695,-2.2174,-2.081,-2.043,-2.0109,-1.9723,-1.9708,-1.9708,-1.9708,-1.9708,-1.9708,-1.9708,-2.0375,-2.074,-2.0703,-2.1071,-2.1421,-2.1699,-2.1694,-2.154,-1.8691,-1.8568,-1.864,-2.0285,-2.1092,-2.1794,-2.2903,-2.3805,-2.4628,-2.5462,-2.661,-2.7446,-2.7319,-2.7469,-2.7267,-2.6248,-2.5464,-2.4776,-2.4246,-2.3328,-2.2763,-2.2927,-2.2643,-2.2733,-2.352,-2.4657,-2.5397,-2.56,-2.6662,-2.7405,-2.7585,-2.76,-2.76,-2.76,-2.76,-2.76,-2.76,-2.7779,-2.7779,-2.76,-2.7794,-2.7779,-2.7585,-2.7106,-2.6881,-2.6881,-2.6881,-2.7151,-2.76,-2.76,-2.76,-2.7549,-2.7008,-2.7229,-2.7682,-2.6196,-2.583,-2.6014,-2.5623,-2.5785,-2.6228,-2.6731,-2.6881,-2.6902,-2.7044,-2.6567,-2.598,-2.598,-2.559,-2.5381,-2.6272,-2.6642,-2.693,-2.7458,-2.7225,-2.6836,-2.6632,-2.6213,-2.6019,-2.6497,-2.6587,-2.6821,-2.748,-2.76,-2.754,-2.7345,-2.5929,-2.4874,-2.4874,-2.4133,-2.344,-2.2978,-2.2789,-2.2315,-2.1327,-2.1008,-2.0654,-2.0159,-1.998,-1.9874,-1.9874,-1.9764,-1.9747,-1.9856,-2.0809,-2.1234,-2.1133,-2.1858,-2.2286,-2.2465,-2.2594,-2.2845,-1.709,-1.8192,-1.9813,-2.0509,-2.2128,-2.3655,-2.4215,-2.5402,-2.6335,-2.6036,-2.7151,-2.8099,-2.7819,-2.7432,-2.6934,-2.6382,-2.5253,-2.4225,-2.3702,-2.3077,-2.2927,-2.349,-2.2473,-2.2218,-2.3475,-2.4216,-2.4903,-2.5555,-2.6243,-2.6926,-2.757,-2.76,-2.76,-2.76,-2.76,-2.76,-2.76,-2.8233,-2.8233,-2.76,-2.8248,-2.8218,-2.76,-2.757,-2.757,-2.757,-2.757,-2.757,-2.76,-2.76,-2.76,-2.76,-2.7575,-2.7979,-2.8562,-2.8495,-2.8087,-2.753,-2.7515,-2.7515,-2.754,-2.7555,-2.757,-2.769,-2.8327,-2.8015,-2.7445,-2.7445,-2.7417,-2.7246,-2.6669,-2.7034,-2.7575,-2.76,-2.7585,-2.739,-2.6746,-2.6572,-2.6572,-2.6587,-2.6587,-2.6821,-2.748,-2.76,-2.7375,-2.6746,-2.6033,-2.5561,-2.5561,-2.4418,-2.3595,-2.3558,-2.3044,-2.2676,-2.2652,-2.1824,-2.1268,-2.1237,-2.0636,-2.028,-2.028,-1.9909,-1.9892,-2.028,-2.0573,-2.1235,-2.2247,-2.1886,-2.2611,-2.4292,-2.3681,-2.4006,-1.9862,-1.9989,-2.0264,-2.2592,-2.3076,-2.348,-2.5309,-2.6052,-2.6422,-2.658,-2.6924,-2.6874,-2.5812,-2.5263,-2.4783,-2.4209,-2.3896,-2.3559,-2.3065,-2.2823,-2.2613,-2.2368,-2.2358,-2.2538,-2.2957,-2.3565,-2.4403,-2.5525,-2.6213,-2.6896,-2.7555,-2.8034,-2.8248,-2.8248,-2.8708,-2.8933,-2.8933,-2.9157,-2.9157,-2.8933,-2.8697,-2.8472,-2.8248,-2.8248,-2.8248,-2.8278,-2.8738,-2.8678,-2.8319,-2.8753,-2.8678,-2.8248,-2.8248,-2.8667,-2.9205,-2.8757,-2.8727,-2.8873,-2.8438,-2.8532,-2.8858,-2.8423,-2.8547,-2.8978,-2.9217,-2.8704,-2.8219,-2.8746,-2.8525,-2.8074,-2.7924,-2.8092,-2.8143,-2.7705,-2.76,-2.754,-2.7315,-2.727,-2.727,-2.727,-2.727,-2.7345,-2.7555,-2.76,-2.7525,-2.73,-2.6303,-2.5285,-2.4388,-2.4257,-2.409,-2.3646,-2.3425,-2.3257,-2.3173,-2.3425,-2.3267,-2.2591,-2.2003,-2.168,-2.168,-2.1262,-2.1239,-2.168,-2.2567,-2.3017,-2.3022,-2.4065,-2.449,-2.4394,-2.4904,-2.5334,-2.1328,-2.1531,-2.1855,-2.4131,-2.4321,-2.4416,-2.6188,-2.6554,-2.6487,-2.6445,-2.6368,-2.5897,-2.4539,-2.3918,-2.3351,-2.2588,-2.2645,-2.2685,-2.2384,-2.2343,-2.2428,-2.2712,-2.2697,-2.2972,-2.3655,-2.3864,-2.4418,-2.5525,-2.6213,-2.7016,-2.7914,-2.8368,-2.8712,-2.8951,-2.9397,-2.9606,-2.9606,-2.9804,-2.9909,-2.9909,-2.9265,-2.8951,-2.8951,-2.8951,-2.8951,-2.8981,-2.9427,-2.9367,-2.8981,-2.94,-2.9367,-2.8951,-2.8951,-2.934,-2.9864,-2.9445,-2.9699,-3.0148,-2.9265,-2.922,-2.9532,-2.9086,-2.9235,-2.9651,-2.9849,-2.9561,-2.9253,-2.9784,-2.9561,-2.9134,-2.8994,-2.8951,-2.8786,-2.8124,-2.7959,-2.7899,-2.7645,-2.76,-2.76,-2.76,-2.76,-2.76,-2.76,-2.7405,-2.724,-2.724,-2.6497,-2.5713,-2.5108,-2.4986,-2.4857,-2.4589,-2.4353,-2.4198,-2.4112,-2.4507,-2.439,-2.3572,-2.2979,-2.2637,-2.2637,-2.2202,-2.2259,-2.2927,-2.3775,-2.4108,-2.3906,-2.5128,-2.5449,-2.4989,-2.567,-2.6103,-2.1567,-2.2728,-2.4358,-2.5096,-2.5726,-2.6266,-2.6738,-2.682,-2.6541,-2.568,-2.5457,-2.5075,0.0,-2.3287,-2.2611,-2.1606,-2.158,-2.1695,-2.1695,-2.1784,-2.2517,-2.438,-2.3556,-2.3586,-2.5467,-2.5076,-2.4963,-2.5615,-2.6243,-2.7156,-2.8472,-2.8607,-2.8936,-2.9592,-2.9666,-2.9711,-2.9711,-3.0268,-3.0552,-3.0552,-2.9924,-2.9651,-2.9651,-2.9651,-2.9651,-2.9651,-2.9696,-2.9696,-2.9651,-2.9696,-2.9696,-2.9651,-2.9651,-3.0013,-3.0552,-3.0507,-3.0913,-3.1331,-3.0118,-2.9711,-2.9696,-2.9666,-2.9681,-2.9789,-3.0372,-3.0552,-3.0552,-3.0552,-3.0552,-3.0417,-2.9789,-2.9651,-2.9487,-2.8771,-2.8607,-2.8412,-2.775,-2.76,-2.76,-2.76,-2.76,-2.76,-2.76,-2.7076,-2.6632,-2.6632,-2.6632,-2.6849,-2.7394,-2.6401,-2.5818,-2.6319,-2.5859,-2.5495,-2.5491,-2.5174,-2.4762,-2.4262,-2.3601,-2.325,-2.325,-2.2802,-2.3002,-2.3984,-2.4178,-2.4482,-2.4872,-2.5128,-2.554,-2.6013,-2.6015,-2.6279,-2.3978,-2.4343,-2.4544,-2.6086,-2.5963,-2.5571,-2.5971,-2.5689,-2.5074,-2.4163,-2.3528,-2.2786,-2.1587,-2.1017,-2.0685,-2.0545,-2.1201,-2.1695,-2.1695,-2.2945,-2.4038,-2.4476,0.0,-2.5228,-2.6181,-2.6151,-2.6153,-2.6333,-2.6497,-2.6986,-2.7809,-2.8813,-2.94,-2.9606,-3.0522,-3.1017,-3.1017,-3.1167,-3.1241,-3.1241,-3.0597,-3.0268,-3.0268,-3.0268,-3.0268,-3.0298,-3.0806,-3.0746,-3.0313,-3.0821,-3.0731,-3.0268,-3.0268,-3.0672,-3.1182,-3.0687,-3.0913,-3.1451,-3.1122,-3.1017,-3.0913,-3.0432,-3.0612,-3.1032,-3.1197,-3.1241,-3.1241,-3.1241,-3.1241,-3.1092,-3.0447,-3.0268,-2.9983,-2.8861,-2.8607,-2.8412,-2.775,-2.76,-2.76,-2.76,-2.76,-2.76,-2.76,-2.7465,-2.7345,-2.7345,-2.7345,-2.6946,-2.5813,-2.6072,-2.6561,-2.7138,-2.7067,-2.6862,-2.6667,-2.7079,-2.696,-2.6098,-2.5551,-2.5275,-2.5275,-2.4767,-2.4788,-2.5451,-2.5509,-2.5591,-2.5681,-2.611,-2.621,-2.6013,-2.6349,-2.659,-2.5291,-2.5697,-2.5946,-2.6638,-2.6082,-2.5431,-2.5658,-2.468,-2.3645,-2.345,-2.2564,-2.1658,-2.1094,-2.0645,-2.0258,0.0,0.0,0.0,-2.1216,-2.2632,-2.4053,0.0,-2.5715,0.0,-2.7287,-2.7155,-2.7046,-2.7046,-2.7046,-2.7345,-2.8004,-2.9037,-2.9726,-2.9983,-3.0957,-3.1511,-3.1511,-3.1511,-3.1511,-3.1511,-3.1122,-3.0763,-3.0507,-3.0806,-3.0791,-3.0537,-3.1212,-3.1286,-3.0957,-3.1346,-3.1271,-3.0956,-3.0956,-3.1167,-3.1451,-3.1077,-3.1182,-3.1511,-3.1511,-3.1511,-3.1436,-3.1062,-3.1182,-3.1511,-3.1511,-3.1511,-3.1511,-3.1511,-3.1511,-3.1406,-3.1032,-3.0956,-3.0673,-2.9684,-2.943,-2.925,-2.8618,-2.8483,-2.8456,-2.8445,-2.8223,-2.8021,-2.8005,-2.8017,-2.7944,-2.7645,-2.7925,-2.7816,-2.6795,-2.7109,-2.7561,-2.7898,-2.8122,-2.8106,-2.7734,-2.7905,-2.7644,-2.6756,-2.6257,-2.6013,-2.6013,-2.5707,-2.5781,-2.6297,-2.6314,-2.6314,-2.6314,-2.6573,-2.6556,-2.6314,-2.659,-2.6691,-2.6048,-2.6894,-2.7773,-2.7029,-2.6285,-2.566,-2.5356,-2.3818,-2.2567,-2.3021,-2.2172,-2.1389,-2.1573,-2.1225,-2.0623,-1.9669,0.0,-2.0107,-2.0835,-2.2063,-2.3834,-2.6314,-2.6665,-2.7164,-2.8379,-2.7944,-2.76,-2.76,-2.76,-2.7854,-2.8427,-2.9175,-2.9909,-3.0612,-3.1197,-3.1511,-3.1511,-3.1511,-3.1511,-3.1511,-3.1511,-3.1197,-3.0657,-3.1137,-3.1092,-3.0672,-3.1152,-3.1421,-3.1511,-3.1511,-3.1511,-3.1511,-3.1511,-3.1511,-3.1511,-3.1511,-3.1511,-3.1511,-3.1511,-3.1511,-3.1511,-3.1511,-3.1511,-3.1511,-3.1511,-3.157,-3.163,-3.163,-3.1705,-3.1765,-3.1765,-3.1705,-3.1466,-3.0806,-3.0567,-3.0328,-2.9714,-2.9687,-2.9732,-2.9657,-2.9287,-2.8936,-2.8766,-2.8793,-2.8643,-2.8026,-2.8392,-2.8793,-2.9007,-2.8761,-2.8614,-2.8834,-2.914,-2.9131,-2.8605,-2.8246,-2.7666,-2.6763,-2.6321,-2.6083,-2.6103,-2.6086,-2.6279,-2.6691,-2.6691,-2.6691,-2.6691,-2.6691,-2.6691,-2.6691,-2.6691,-2.6691,-2.7283,-2.8095,-2.8602,-2.7807,-2.7063,-2.6031,-2.4205,-2.3477,0.0,-2.1817,-2.1854,-2.1998,-2.1655,-2.1044,-2.0499,-2.02,-2.0453,-2.102,-2.1963,-2.4088,-2.595,0.0,-2.7753,-2.8224,-2.8472,-2.7944,-2.76,-2.76,-2.76,-2.7645,-2.7764,-2.8933,-3.0118,-3.1286,-3.1451,-3.1511,-3.1511,-3.1511,-3.1511,-3.1511,-3.1511,-3.1451,-3.1316,-3.0853,-3.0898,-3.1301,-3.0853,-3.0972,-3.1511,-3.1511,-3.1511,-3.1511,-3.1511,-3.1511,-3.1511,-3.1511,-3.1511,-3.1511,-3.1511,-3.1511,-3.1511,-3.1511,-3.1511,-3.1511,-3.1511,-3.1884,-3.2318,-3.2318,-3.2736,-3.3155,-3.3155,-3.2751,-3.2153,-3.1481,-3.0883,-3.0328,-2.9714,-3.0027,-3.0418,-3.0421,-3.0775,-3.0846,-3.0109,-2.9999,-2.995,-2.9781,-2.8642,-2.8429,-3.0092,-2.9375,-2.9264,-3.0577,-3.0371,-2.9785,-2.8979,-2.9203,-2.8613,-2.6809,-2.662,-2.6568,-2.6573,-2.659,-2.6624,-2.6691,-2.6691,-2.6691,-2.6691,-2.6691,-2.6691,-2.6691,-2.6691,-2.6691,-2.7705,-2.867,-2.9296,-2.8094,-2.6962,-2.5744,-2.4305,0.0,0.0,-2.1837,-2.1752,-2.1781,-2.195,-2.1481,0.0,-2.099,-2.0639,-2.094,-2.2546,-2.4056,-2.5675,-2.7554,-2.8136,-2.8533,-2.8919,-2.8125,-2.76,-2.76,-2.76,-2.76,-2.76,-2.8873,-3.0013,-3.0943,-3.1316,-3.1511,-3.1511,-3.1511,-3.1511,-3.1511,-3.1511,-3.1316,-3.0972,-3.1002,-3.0823,-3.0537,-3.0853,-3.0987,-3.1002,-3.1361,-3.1511,-3.1511,-3.1511,-3.1511,-3.1511,-3.1511,-3.1511,-3.1511,-3.1511,-3.1735,-3.2019,-3.2019,-3.2019,-3.2019,-3.2019,-3.2228,-3.2437,-3.2064,-3.2452,-3.3066,-3.3496,-3.3048,-3.2511,-3.2614,-3.1809,-3.1069,-3.1153,-3.1413,-3.1732,-3.2061,-3.2103,-3.1879,-3.1066,-3.0944,-3.0722,-3.0001,-2.9751,-3.0186,-3.1648,-3.1475,-3.1224,-3.1307,-3.1341,-3.1022,-3.0204,-2.9991,-2.9208,-2.7571,-2.7349,-2.7095,-2.6725,-2.6691,-2.6691,-2.6691,-2.6691,-2.6691,-2.6691,-2.6691,-2.6691,-2.6691,-2.6691,-2.6691,-2.7756,-2.8922,-2.9768,-2.8398,-2.6945,-2.5558,-2.4508,-2.2798,0.0,-2.1972,-2.1735,-2.1613,-2.2178,-2.1869,-2.1536,0.0,-2.0797,-2.0842,-2.2761,-2.3883,-2.5308,0.0,-2.8308,0.0,-2.9178,-2.8472,-2.7993,-2.7993,-2.8006,-2.8021,-2.8019,-2.9037,-2.9939,-3.0702,-3.1227,-3.1582,-3.1739,-3.1582,-3.1582,-3.1739,-3.1582,-3.1212,-3.0731,-3.1107,-3.0808,-3.0043,-3.0898,-3.1062,-3.0776,-3.1271,-3.1511,-3.1511,-3.1511,-3.1511,-3.1511,-3.1511,-3.1585,-3.1705,-3.1705,-3.2138,-3.2751,-3.2886,-3.2841,-3.2706,-3.2557,-3.2706,-3.2766,-3.1929,-3.2526,-3.3456,-3.3787,-3.3523,-3.3213,-3.3416,-3.2572,-3.1891,-3.2468,-3.2831,-3.3188,-3.3646,-3.3606,-3.3258,-3.2504,-3.2408,-3.1894,-3.0266,-3.0846,-3.1913,-3.3121,-3.3626,-3.3354,-3.1971,-3.198,-3.1777,-3.1028,-3.0573,-2.9704,-2.8216,-2.7771,-2.7315,-2.6725,-2.6691,-2.6691,-2.6691,-2.6691,-2.6691,-2.6691,-2.6691,-2.6691,-2.6691,-2.6691,-2.6691,-2.7621,-2.8922,-2.9922,-2.9094,-2.7723,-2.6048,-2.3968,0.0,-2.204,-2.1427,-2.1786,-2.2212,-2.2279,-2.1725,-2.1317,-2.1558,-2.1311,-2.1463,-2.2583,-2.4879,-2.6378,-2.623,0.0,0.0,-2.8685,-2.8973,-2.9225,-2.9225,-2.9286,-2.9343,-2.9409,-2.9532,-3.0163,-3.1376,-3.1466,-3.1824,-3.2492,-3.1824,-3.1853,-3.2492,-3.1824,-3.1466,-3.1391,-3.0823,-3.0866,-3.1301,-3.0821,-3.0883,-3.1406,-3.1481,-3.1511,-3.1511,-3.1511,-3.1511,-3.1511,-3.1511,-3.1884,-3.2392,-3.2392,-3.2856,-3.3499,-3.4129,-3.3888,-3.329,-3.2691,-3.335,-3.4038,-3.2781,-3.4243,-3.5968,-3.474,-3.4881,-3.4846,-3.3035,-3.2497,-3.2448,-3.2561,-3.3597,-3.4507,-3.4504,-3.5542,-3.6161,-3.5374,-3.5233,-3.4351,-3.1718,-3.1426,-3.2152,-3.3941,-3.4904,-3.4851,-3.3355,-3.2084,-3.0987,-3.0262,-3.0753,-3.0176,-2.7959,-2.7185,-2.6765,-2.6708,-2.6691,-2.6691,-2.6691,-2.6691,-2.6691,-2.6691,-2.6691,-2.6691,-2.6691,-2.6691,-2.6691,-2.6708,-2.7908,-2.8534,-2.7808,-2.6488,-2.4914,-2.3139,0.0,-2.1549,-2.1258,-2.1786,-2.2296,-2.2296,-2.2073,-2.19,-2.1996,-2.1555,0.0,-2.2932,-2.4045,-2.5295,-2.6879,-2.8204,-2.9132,-2.9548,-2.9473,-2.9582,-3.0028,-3.0113,-3.0519,-3.1357,-3.0593,-3.0372,-3.0896,-3.171,-3.2299,-3.2586,-3.2299,-3.2299,-3.2586,-3.1853,-3.1511,-3.1496,-3.1212,-3.1017,-3.0898,-3.1032,-3.1017,-3.0913,-3.1331,-3.1511,-3.1511,-3.1511,-3.1511,-3.1555,-3.1944,-3.2019,-3.2092,-3.3389,-3.3993,-3.4315,-3.4972,-3.5233,-3.5095,-3.3562,-3.3754,-3.4312,-3.3448,-3.4551,-3.6083,-3.6518,-3.6451,-3.5674,-3.3124,-3.2792,-3.3111,-3.3181,-3.396,-3.4743,-3.5142,-3.5683,-3.5994,-3.565,-3.5602,-3.4939,-3.3031,-3.3437,-3.4235,-3.5009,-3.4365,-3.3743,-3.3419,-3.2882,-3.2053,-3.0869,-3.0632,-3.0095,-2.9016,-2.7955,-2.716,-2.6725,-2.6691,-2.6691,-2.6691,-2.6691,-2.6691,-2.6691,-2.6691,-2.6691,-2.6691,-2.6691,-2.6691,-2.5361,-2.6552,-2.7148,-2.6522,-2.5439,-2.4118,0.0,0.0,-2.1461,-2.1241,-2.1786,-2.2296,-2.2296,-2.2296,-2.2296,-2.2296,-2.1854,-2.1901,-2.2936,-2.3444,-2.4498,-2.662,-2.7561,-2.8619,-3.0166,-3.0457,-3.0886,-3.1632,-3.1526,-3.1987,-3.312,-3.2076,-3.1411,-3.1411,-3.2187,-3.2788,-3.3198,-3.2788,-3.2695,-3.2895,-3.1951,-3.1511,-3.1511,-3.1511,-3.1241,-3.0808,-3.1286,-3.1369,-3.1157,-3.1613,-3.1824,-3.1824,-3.1824,-3.1697,-3.157,-3.2019,-3.215,-3.2349,-3.4085,-3.4958,-3.5368,-3.5775,-3.6212,-3.6245,-3.4377,-3.442,-3.4972,-3.4218,-3.494,-3.6327,-3.785,-3.7682,-3.6536,-3.4287,-3.397,-3.4231,-3.4484,-3.4758,-3.5155,-3.583,-3.5994,-3.5943,-3.565,-3.5592,-3.5286,-3.4332,-3.5006,-3.559,-3.5616,-3.441,-3.352,-3.3402,-3.3406,-3.2797,-3.1326,-3.0717,-3.0163,-2.9526,-2.8227,-2.7246,-2.6725,-2.6691,-2.6691,-2.6691,-2.6691,-2.6691,-2.6691,-2.6691,-2.6691,-2.6691,-2.6691,-2.6691,-2.3643,-2.4954,-2.6031,-2.5689,-2.505,-2.4118,0.0,-2.2296,-2.209,-2.136,-2.1786,-2.2296,-2.2296,-2.2296,-2.2296,-2.2296,-2.2296,0.0,-2.2296,-2.3577,-2.454,0.0,-2.6549,-2.8449,-3.0137,-3.2144,-3.3656,-3.4404,-3.3844,-3.3794,-3.4526,-3.3946,-3.3582,-3.3582,-3.2933,-3.3235,-3.4576,-3.3261,-3.2933,-3.3556,-3.2173,-3.1511,-3.1511,-3.1511,-3.1511,-3.1496,-3.1511,-3.1894,-3.2586,-3.2586,-3.2602,-3.2602,-3.2602,-3.2132,-3.1511,-3.1511,-3.2361,-3.3584,-3.4412,-3.5571,-3.6676,-3.6609,-3.66,-3.6338,-3.492,-3.546,-3.6321,-3.5062,-3.5701,-3.7102,-3.8521,-3.8358,-3.7614,-3.6934,-3.6217,-3.5868,-3.6615,-3.6257,-3.5991,-3.6662,-3.696,-3.6774,-3.5774,-3.5592,-3.5609,-3.5583,-3.5609,-3.5609,-3.5605,-3.5583,-3.5008,-3.3558,-3.3406,-3.2797,-3.1326,-3.119,-3.0567,-2.9094,-2.7569,-2.6714,-2.6691,-2.6691,-2.6691,-2.6691,-2.6691,-2.6691,-2.6691,-2.6691,-2.6691,-2.6691,-2.6691,-2.6691,-2.1897,-2.2489,-2.2736,-2.2623,-2.2006,-2.1164,-2.0196,-2.0369,-2.0673,-2.042,-2.14,-2.2296,-2.2296,-2.245,-2.256,-2.256,-2.256,-2.256,0.0,0.0,0.0,-2.5883,-2.8917,-3.1283,-3.2333,-3.3469,-3.4252,-3.4472,-3.4349,-3.4551,-3.5253,-3.4227,-3.3582,-3.3582,-3.3836,-3.4186,-3.4616,-3.3253,-3.2701,-3.2887,-3.1079,-3.0193,-3.0223,-3.0642,-3.0836,-3.0879,-3.1822,-3.2382,-3.2641,-3.3093,-3.3013,-3.2586,-3.2586,-3.2132,-3.1615,-3.2542,-3.2862,-3.3274,-3.5906,-3.6472,-3.6169,-3.7103,-3.7065,-3.6587,-3.6075,-3.623,-3.675,-3.7387,-3.829,-3.9032,-3.8939,-3.8718,-3.8263,-3.709,-3.6728,-3.6688,-3.6774,-3.7036,-3.7295,-3.7503,-3.7293,-3.6949,-3.6502,-3.5973,-3.5589,-3.5588,-3.5588,-3.5615,-3.5594,-3.4721,-3.3909,-3.3457,-3.251,-3.1715,-3.1241,-3.0577,-2.9981,-2.9509,-2.7725,-2.692,-2.7435,-2.6962,-2.6691,-2.6691,-2.6971,-2.6971,-2.6691,-2.6988,-2.6971,-2.6691,-2.6691,-2.6691,0.0,-2.0951,-2.0965,-2.0459,-2.0162,0.0,-1.8724,-1.9519,-2.0369,-2.0052,-2.1231,-2.2296,-2.2296,-2.244,-2.2573,-2.2682,-2.2708,-2.2708,0.0,0.0,0.0,-2.6826,-3.0194,-3.2598,-3.3339,-3.432,-3.4912,-3.4912,-3.494,-3.5161,-3.5577,-3.4816,-3.435,-3.435,-3.4023,-3.3818,-3.3808,-3.2498,-3.1845,-3.1845,-3.0304,-2.9606,-2.9621,-2.9983,-3.0448,-3.0949,-3.184,-3.2645,0.0,-3.3531,-3.3365,-3.2933,-3.2695,-3.2132,-3.163,-3.2736,-3.3029,-3.3333,-3.6066,-3.6593,-3.6208,-3.7086,-3.7064,-3.6695,-3.6958,-3.7263,-3.7729,-3.9005,-3.9714,-3.9978,-3.9489,-3.9342,-3.9146,-3.8241,-3.7929,-3.7858,-3.8002,-3.8126,-3.819,-3.8294,-3.7942,-3.757,-3.7263,-3.6797,-3.638,-3.609,-3.6062,-3.5943,-3.5633,-3.4788,-3.4032,-3.3474,-3.2754,-3.2029,-3.1258,-3.0627,-3.0273,-3.0281,-2.8373,-2.75,-2.7998,-2.7332,-2.6987,-2.7147,-2.7394,-2.7317,-2.6923,-2.7036,-2.6938,-2.6691,-2.6691,-2.6691,0.0,-2.0169,-2.0396,-1.9143,-1.9338,-1.9478,-1.8104,-1.9469,0.0,-2.0175,-2.1194,-2.2243,-2.2349,-2.2335,-2.2426,-2.2721,-2.2811,-2.282,-2.2803,-2.3604,-2.5126,-2.7656,-3.0531,-3.2598,-3.3339,-3.4687,-3.5532,-3.56,-3.56,-3.5583,-3.5515,-3.5515,-3.5442,-3.5318,-3.3443,-3.249,-3.2578,-3.1212,-3.0534,-3.0585,-2.9867,-2.951,-2.951,-2.9615,-3.0338,-3.1543,-3.1689,-3.2838,-3.4552,-3.3937,-3.3633,-3.3531,-3.2868,-3.2132,-3.1585,-3.2303,-3.2997,-3.378,-3.5256,-3.6174,-3.6698,-3.6706,-3.6695,-3.6813,-3.7632,-3.8358,-3.9086,-3.9859,-4.0096,-4.0096,-4.0096,-4.0096,-4.0096,-4.0096,-3.9588,-3.9259,-3.996,-3.9374,-3.8771,-3.9029,-3.8882,-3.855,-3.8058,-3.799,-3.7702,-3.6931,-3.6795,-3.6524,-3.5701,-3.5549,-3.4991,-3.3626,-3.3833,-3.3294,-3.1362,-3.119,-3.1201,-3.1202,-2.9365,-2.8319,-2.8468,-2.7752,-2.7515,-2.7897,-2.7897,-2.7739,-2.7378,-2.7039,-2.6876,-2.6876,-2.6927,-2.6961,-1.9182,0.0,-1.8714,-1.8189,-1.8189,-1.8222,0.0,-1.8657,-1.9622,-2.025,0.0,0.0,-2.2803,-2.2776,-2.2789,-2.3369,-2.3762,-2.3992,-2.393,-2.5631,-2.7555,-2.9347,-3.1173,-3.2598,-3.3339,-3.4218,-3.4996,-3.5549,-3.56,-3.5346,-3.4793,-3.4759,-3.4044,-3.2436,-3.1472,-3.176,-3.3327,-3.1022,-3.0064,-3.0505,-2.9321,-2.8762,-2.8793,-2.9812,-3.0479,-3.0923,-3.2445,-3.3675,-3.4576,-3.4431,-3.4062,-3.3531,-3.2868,-3.2132,-3.1645,-3.2841,-3.3756,-3.46,-3.5979,-3.6583,-3.6704,-3.6713,-3.7058,-3.7661,-3.8414,-3.8772,-3.9086,-3.9859,-4.0096,-4.0096,-4.0096,-4.0096,-4.0096,-4.0096,-3.9977,-3.9893,-4.0062,-3.9918,-3.9765,-3.9825,-3.9799,-3.9528,-3.8853,-3.8734,-3.8294,-3.6998,-3.6795,-3.6524,-3.5701,-3.5115,-3.4629,-3.4283,-3.3339,-3.2337,-3.1292,-3.119,-3.1193,-3.1198,-2.9704,-2.8956,-2.9229,-2.8294,-2.7794,-2.7897,-2.7897,-2.7978,-2.8139,-2.842,-2.8541,-2.8541,-2.9171,-2.9451,-1.9052,-1.8789,-1.8391,-1.7663,-1.7841,-1.8049,-1.759,0.0,0.0,0.0,0.0,0.0,0.0,0.0,0.0,-2.3403,-2.3969,-2.4423,-2.4598,-2.587,-2.7604,-2.9835,-3.1106,-3.2476,-3.4252,-3.4455,-3.4675,-3.5081,-3.5115,-3.4776,-3.4032,-3.3998,-3.3481,-3.2343,-3.1402,-3.116,-3.1668,-2.9975,-2.9399,-2.9973,-2.9262,-2.8919,-2.8935,-2.9666,-3.0536,-3.1534,-3.262,-3.384,-3.5012,-3.4736,-3.4211,-3.3531,-3.2868,-3.2132,-3.1644,-3.3017,-3.4019,-3.4806,-3.5509,-3.575,-3.5902,-3.6866,-3.7476,-3.7952,-3.8674,-3.9166,-3.9542,-3.9978,-4.0096,-4.0096,-4.0096,-4.0096,-4.0096,-4.0096,-4.0096,-4.0096,-4.0096,-4.0096,-4.0096,-4.0096,-4.0096,-3.9977,-3.9571,-3.9495,-3.924,-3.8431,-3.774,-3.7026,-3.6248,-3.5487,-3.4883,-3.4541,-3.3694,-3.287,-3.2087,-3.1776,-3.1598,-3.161,-3.0647,-3.011,-3.0108,-2.9176,-2.86,-2.8404,-2.8582,-2.8757,-2.8943,-2.9423,-2.9654,-2.9654,-3.0097,-3.0308,-1.8931,-1.9043,-1.8904,-1.7603,-1.8027,-1.8547,-1.7648,0.0,0.0,0.0,0.0,0.0,0.0,-2.3189,0.0,0.0,-2.4044,-2.4976,-2.59,-2.6189,-2.7334,-3.0108,-3.0987,-3.2391,-3.5008,-3.4709,-3.4421,-3.4641,-3.4455,-3.4066,-3.344,-3.3288,-3.3144,-3.2925,-3.181,-3.0708,-2.954,-2.8943,-2.8943,-2.954,-2.954,-2.954,-2.954,-2.9653,-3.0725,-3.2512,-3.2611,-3.3756,-3.5538,-3.4894,-3.426,-3.3684,-3.2895,-3.2272,-3.197,-3.309,-3.4138,-3.5024,-3.508,-3.5011,-3.5219,-3.7034,-3.7708,-3.7943,-3.8685,-3.9458,-4.0096,-4.0096,-4.0096,-4.0096,-4.0096,-4.0096,-4.0096,-4.0096,-4.0096,-4.0096,-4.0096,-4.0096,-4.0096,-4.0096,-4.0096,-4.0104,-4.0094,-4.0187,-4.0277,-4.0264,-3.9065,-3.7885,-3.7024,-3.6265,-3.5453,-3.4578,-3.43,-3.3902,-3.3248,-3.2615,-3.2318,-3.2441,-3.185,-3.1306,-3.0902,-3.0233,-2.9706,-2.9372,-2.9701,-2.988,-2.988,-3.0403,-3.0651,-3.0651,-3.0791,-3.0826,-1.8419,-1.9235,-1.9908,-1.841,-1.8826,-1.9522,-1.9126,0.0,0.0,0.0,0.0,0.0,0.0,-2.3153,-2.2972,0.0,-2.5095,-2.7291,-3.0335,-2.9996,-3.004,-3.1769,-3.2056,-3.2544,-3.3643,-3.3643,-3.41,-3.5329,-3.4286,-3.3525,-3.3406,-3.2797,-3.1954,-3.0803,-3.0587,-3.0366,-3.0166,-2.9563,-2.9563,-3.0166,-3.0166,-3.0166,-3.0182,-3.0746,-3.155,-3.2529,-3.3093,-3.4199,-3.5538,-3.4894,-3.4528,-3.4333,-3.3093,-3.2895,-3.3314,-3.3438,-3.4757,-3.6542,-3.7134,-3.6905,-3.643,-3.6774,-3.7295,-3.7965,-3.8749,-3.9505,-4.0096,-4.0096,-4.0096,-4.0096,-4.0096,-4.0096,-4.0096,-4.0096,-4.0096,-4.0096,-4.0096,-4.0096,-4.0096,-4.0096,-4.0096,-4.0085,-4.0096,-4.0612,-4.1036,-4.1039,-4.0149,-3.9012,-3.7637,-3.6966,-3.6066,-3.4656,-3.4278,-3.409,-3.4005,-3.3399,-3.3314,-3.3984,-3.2703,-3.1721,-3.1314,-3.1193,-3.109,-3.1017,-3.109,-3.112,-3.112,-3.1879,-3.2255,-3.2255,-3.2944,-3.3255,-1.8235,-1.864,-1.9115,-1.8726,-1.9634,-2.0469,-1.9943,0.0,0.0,0.0,0.0,0.0,0.0,0.0,-2.4336,-2.5697,-2.632,-2.7589,-3.0283,-2.9999,-3.0308,-3.2473,-3.2117,-3.2327,-3.3846,-3.3271,-3.3085,-3.3761,-3.3186,-3.2628,-3.2239,-3.1884,-3.1412,-3.0797,-3.0797,-3.0797,-3.0797,-3.0518,-3.0518,-3.0797,-3.0797,-3.0797,-3.0797,-3.1111,-3.1663,-3.2407,-3.2737,-3.3654,-3.4957,-3.4231,-3.4203,-3.4495,-3.3467,-3.3287,-3.3704,-3.4418,-3.5068,-3.5844,-3.732,-3.6846,-3.5828,-3.7428,-3.7912,-3.8079,-3.9252,-3.9842,-4.0096,-4.0096,-4.0096,-4.0096,-4.0096,-4.0096,-4.0096,-4.0096,-4.0096,-4.0096,-4.0096,-4.0096,-4.0096,-4.0096,-4.0096,-4.0093,-4.0111,-4.1395,-4.2437,-4.2438,-4.1367,-3.9969,-3.8407,-3.737,-3.6466,-3.5611,-3.4703,-3.4535,-3.5471,-3.5089,-3.4603,-3.4105,-3.2962,-3.2228,-3.2051,-3.1623,-3.1397,-3.1397,-3.1825,-3.2045,-3.2045,-3.2871,-3.3256,-3.3256,-3.3623,-3.3807,-1.7734,-1.7971,-1.8401,-1.8485,-1.9965,-2.1359,-2.1105,-2.2146,0.0,0.0,0.0,0.0,0.0,-2.4523,-2.5655,-2.7487,-2.7722,-2.8315,-3.0212,-3.0092,-3.0729,-3.3188,-3.2474,-3.2496,-3.4356,-3.3284,-3.2542,-3.2713,-3.2303,-3.187,-3.1481,-3.1275,-3.119,-3.119,-3.1021,-3.1021,-3.119,-3.1021,-3.1021,-3.119,-3.119,-3.119,-3.119,-3.119,-3.1616,-3.2293,-3.2293,-3.3038,-3.4201,-3.3643,-3.375,-3.426,-3.3512,-3.3371,-3.3783,-3.5366,-3.5593,-3.535,-3.7047,-3.6518,-3.5457,-3.7525,-3.7956,-3.7889,-3.9174,-3.9706,-3.9893,-4.0045,-4.0096,-4.0096,-4.0096,-4.0096,-4.0096,-4.0096,-4.0096,-4.0096,-4.0096,-4.0204,-4.0303,-4.0362,-4.0207,-4.01,-4.011,-4.199,-4.3491,-4.3512,-4.2349,-4.0858,-3.9125,-3.7837,-3.6814,-3.6215,-3.5096,-3.4975,-3.6486,-3.6562,-3.5647,-3.3542,-3.2981,-3.2778,-3.2876,-3.2284,-3.1966,-3.1966,-3.2577,-3.2876,-3.2876,-3.3495,-3.3807,-3.3807,-3.3807,-3.3807,-1.6475,-1.7593,-1.8867,-1.7408,-1.9431,-2.209,-2.3275,-2.4397,0.0,-2.618,0.0,0.0,0.0,-2.5011,-2.602,-2.7472,-2.9279,-3.1024,-3.2541,-3.2459,-3.2841,-3.4394,-3.39,-3.3759,-3.4604,-3.3641,-3.3222,-3.3908,-3.2298,-3.1565,-3.2192,-3.1582,-3.119,-3.119,-3.0548,-3.0514,-3.119,-3.0531,-3.0531,-3.119,-3.119,-3.119,-3.119,-3.119,-3.1616,-3.2293,-3.2293,-3.275,-3.3491,-3.3423,-3.3415,-3.3414,-3.274,-3.2909,-3.3785,-3.592,-3.6692,-3.6658,-3.6823,-3.6772,-3.654,-3.6022,-3.6315,-3.7032,-3.7821,-3.8531,-3.9208,-3.991,-4.0096,-4.0096,-4.0096,-4.0096,-4.0096,-4.0096,-4.0096,-4.0096,-4.0096,-4.0497,-4.0908,-4.107,-4.058,-4.0088,-4.0099,-4.1975,-4.3499,-4.3504,-4.2829,-4.164,-3.9771,-3.8517,-3.7197,-3.5544,-3.5126,-3.5304,-3.6254,-3.7105,-3.6064,-3.2455,-3.2798,-3.3332,-3.3702,-3.366,-3.3623,-3.3623,-3.3678,-3.3715,-3.3715,-3.377,-3.3807,-3.3807,-3.3807,-3.3807,-1.6213,-1.7317,-1.8539,-1.7928,-1.9807,0.0,0.0,-2.4221,-2.524,-2.5756,-2.6369,0.0,-2.5632,-2.591,-2.6681,-2.7879,-2.9771,-3.1576,-3.293,-3.3169,-3.3683,-3.5039,-3.4249,-3.3705,-3.3988,-3.2756,-3.2127,-3.2621,-3.1519,-3.1073,-3.1582,-3.1343,-3.119,-3.119,-3.092,-3.092,-3.119,-3.092,-3.092,-3.119,-3.119,-3.119,-3.119,-3.119,-3.1343,-3.1613,-3.1219,-3.17,-3.2641,-3.1821,-3.2215,-3.3419,-3.3621,-3.389,-3.4281,-3.5583,-3.6062,-3.6062,-3.6062,-3.6062,-3.6096,-3.6282,-3.6535,-3.6948,-3.7686,-3.8091,-3.8379,-3.865,-3.9056,-3.9537,-3.9994,-4.0096,-4.0096,-4.0096,-4.0096,-4.0096,-4.0096,-4.0504,-4.092,-4.1013,-4.1292,-4.1452,-4.1196,-4.2456,-4.2935,-4.1325,-4.0849,-4.0098,-3.8542,-3.7689,-3.7036,-3.6524,-3.6977,-3.726,-3.7169,-3.6842,-3.5934,-3.431,-3.4002,-3.3753,-3.3441,-3.3666,-3.3807,-3.3807,-3.3807,-3.3807,-3.3807,-3.3807,-3.3807,-3.3807,-3.3807,-3.3807,-1.6269,-1.7262,-1.8454,-1.8652,0.0,0.0,-2.35,-2.4488,-2.5346,-2.6324,-2.6945,-2.7164,-2.6708,-2.6776,-2.7192,-2.8146,-3.0223,-3.1873,-3.236,-3.2927,-3.3519,-3.4135,-3.3438,-3.2908,-3.2908,-3.2065,-3.1627,-3.1843,-3.1098,-3.085,-3.1357,-3.083,-3.0598,-3.0852,-3.0632,-3.0615,-3.0852,-3.0852,-3.097,-3.119,-3.119,-3.119,-3.119,-3.119,-3.119,-3.1171,-3.0559,-3.0925,-3.1881,-3.0759,-3.1241,-3.2797,-3.3778,-3.415,-3.4269,-3.5228,-3.56,-3.56,-3.56,-3.56,-3.5684,-3.6231,-3.6417,-3.6552,-3.7313,-3.755,-3.7601,-3.7838,-3.8261,-3.8768,-3.9259,-3.9748,-3.996,-3.952,-3.9419,-3.9462,-3.9706,-4.0311,-4.0922,-4.1126,-4.2034,-4.2665,-4.2392,-4.2976,-4.2612,-3.9984,-3.8894,-3.8157,-3.7667,-3.7149,-3.6901,-3.7156,-3.8097,-3.8499,-3.8053,-3.7005,-3.6274,-3.6051,-3.5415,-3.4661,-3.3811,-3.4036,-3.4192,-3.4192,-3.3935,-3.3807,-3.3807,-3.3807,-3.3807,-3.3807,-3.3807,-3.3807,-1.6548,-1.7444,-1.8774,0.0,0.0,0.0,-2.4937,-2.5532,-2.609,-2.8491,-2.8093,-2.7386,-2.7743,-2.7528,-2.7519,-2.818,-3.0691,-3.2172,-3.096,-3.1828,-3.2302,-3.1488,-3.1397,-3.1397,-3.1397,-3.1751,-3.1978,-3.1996,-3.1185,-3.0994,-3.1738,-3.0014,-2.9348,-3.0074,-2.9382,-2.9365,-3.0072,-3.0091,-3.0463,-3.119,-3.119,-3.119,-3.119,-3.119,-3.119,-3.1171,-3.0559,-3.0638,-3.1151,-3.0576,-3.0658,-3.1343,-3.2814,-3.3389,-3.3575,-3.5042,-3.5583,-3.5583,-3.5583,-3.5583,-3.5583,-3.5583,-3.5583,-3.5735,-3.6535,-3.6778,-3.6948,-3.7669,-3.7889,-3.7889,-3.7889,-3.8957,-3.97,-3.8258,-3.7905,-3.8108,-3.886,-3.9896,-4.0928,-4.1669,-4.2716,-4.3515,-4.3515,-4.3515,-4.261,-4.0003,-3.7308,-3.6077,-3.7401,-3.7124,-3.6903,-3.7166,-3.8087,-3.8695,-3.8716,-3.7786,-3.72,-3.7201,-3.6894,-3.6198,-3.505,-3.5009,-3.5023,-3.5023,-3.4215,-3.3825,-3.3807,-3.3807,-3.3807,-3.3807,-3.3807,-3.3807,-1.7409,-1.8854,0.0,-1.9966,0.0,0.0,0.0,-2.4797,0.0,0.0,-2.783,-2.7021,-2.7684,-2.7713,-2.7718,-2.7933,-2.9624,-3.0784,-3.0428,-3.1175,-3.1659,-3.1433,-3.1397,-3.1397,-3.1397,-3.1003,-3.086,-3.1131,-3.0384,-2.9995,-3.0162,-2.9644,-2.9332,-2.9331,-2.9111,-2.9111,-2.9313,-2.9331,-2.9685,-3.0429,-3.0429,-3.07,-3.119,-3.119,-3.119,-3.1137,-3.0011,-3.0175,-3.119,-3.1015,-3.1035,-3.1292,-3.2239,-3.2632,-3.273,-3.3711,-3.4044,-3.4044,-3.4044,-3.4404,-3.4742,-3.4235,-3.4737,-3.5549,-3.5267,-3.5537,-3.6011,-3.6208,-3.6688,-3.6992,-3.6411,-3.742,-3.854,-3.8421,-3.8128,-3.8203,-3.9266,-4.0552,-4.1671,-4.2306,-4.2995,-4.3515,-4.3515,-4.3515,-4.2612,-3.999,-3.7318,-3.5734,-3.6139,-3.6526,-3.6757,-3.6837,-3.7972,-3.8695,-3.8716,-3.809,-3.7446,-3.6875,-3.7284,-3.6897,-3.5481,-3.5736,-3.5917,-3.5917,-3.5679,-3.5257,-3.4637,-3.4637,-3.4344,-3.3807,-3.3807,-3.3807,-1.8708,-2.0023,0.0,-2.1481,-2.2513,-2.3568,-2.3836,0.0,0.0,0.0,-2.7558,-2.6851,-2.764,-2.7284,-2.6953,-2.7273,-2.8411,-2.9127,-2.8815,-2.9457,-2.9965,-2.9965,-2.9677,-2.9622,-2.9946,-2.9824,-2.982,-3.0067,-2.9791,-2.9719,-3.0008,-2.929,-2.8827,-2.8767,-2.8766,-2.8679,-2.8518,-2.884,-2.923,-2.9651,-2.9651,-2.9888,-3.0364,-3.092,-3.119,-3.1137,-3.0332,-3.0156,-3.0439,-3.0977,-3.119,-3.1258,-3.2005,-3.2293,-3.2395,-3.3136,-3.3406,-3.3406,-3.3406,-3.3803,-3.426,-3.3816,-3.4482,-3.5369,-3.4908,-3.5149,-3.56,-3.56,-3.596,-3.6214,-3.5718,-3.6282,-3.7069,-3.7322,-3.7517,-3.7929,-3.9069,-4.0292,-4.1513,-4.2509,-4.3124,-4.3515,-4.3515,-4.3248,-4.2268,-3.9941,-3.7326,-3.5714,-3.6039,-3.6559,-3.6963,-3.7075,-3.8068,-3.8687,-3.8698,-3.8396,-3.8,-3.7528,-3.7962,-3.7798,-3.6867,-3.6805,-3.6795,-3.6795,-3.645,-3.5881,-3.5004,-3.5004,-3.4582,-3.3807,-3.3807,-3.3807,-2.0188,0.0,0.0,-2.3463,-2.3733,0.0,-2.4415,-2.5666,-2.6926,-2.7716,-2.7194,-2.6833,-2.7548,-2.6494,-2.576,-2.6484,-2.7218,-2.7438,-2.6704,-2.7236,-2.7688,-2.7688,-2.7053,-2.6888,-2.7622,-2.8345,-2.8785,-2.8785,-2.9106,-2.9656,-3.0436,-2.8798,-2.8,-2.834,-2.8257,-2.8063,-2.7758,-2.8367,-2.8756,-2.8891,-2.8891,-2.8925,-2.9044,-3.0398,-3.0954,-3.0903,-3.1038,-3.0378,-2.9294,-3.0639,-3.119,-3.1258,-3.1938,-3.2212,-3.2337,-3.3012,-3.327,-3.3311,-3.3311,-3.3634,-3.406,-3.4062,-3.4545,-3.5151,-3.5128,-3.533,-3.5548,-3.552,-3.5549,-3.56,-3.56,-3.56,-3.56,-3.56,-3.6474,-3.7551,-3.8542,-3.9558,-4.0745,-4.2263,-4.2996,-4.3369,-4.3277,-4.2723,-4.1564,-3.954,-3.7232,-3.6005,-3.6655,-3.7076,-3.7391,-3.7678,-3.8303,-3.8707,-3.8707,-3.8707,-3.8707,-3.8707,-3.8707,-3.8707,-3.8707,-3.7991,-3.7621,-3.7621,-3.689,-3.6101,-3.5224,-3.5224,-3.4766,-3.3917,-3.3917,-3.3862,-2.1049,-2.2035,0.0,0.0,-2.4408,-2.4715,-2.4866,-2.5085,-2.544,-2.6087,-2.6418,-2.6638,-2.6833,-2.6576,-2.641,-2.6565,-2.6759,-2.6796,-2.662,-2.6759,-2.6869,-2.6869,-2.6722,-2.6667,-2.6851,-2.7005,-2.7115,-2.7115,-2.7207,-2.7462,-2.7951,-2.7574,-2.7558,-2.798,-2.7141,-2.6911,-2.7404,-2.6687,-2.6911,-2.806,-2.806,-2.8383,-2.901,-2.9331,-2.9127,-2.8601,-2.982,-2.9848,-2.9166,-3.0594,-3.119,-3.1207,-3.136,-3.163,-3.1936,-3.209,-3.2382,-3.2687,-3.2687,-3.3143,-3.3723,-3.3776,-3.4252,-3.4757,-3.4488,-3.4826,-3.5204,-3.4834,-3.5143,-3.56,-3.56,-3.56,-3.56,-3.56,-3.6779,-3.8143,-3.9002,-3.9723,-4.0474,-4.128,-4.2054,-4.2359,-4.1735,-4.1396,-4.014,-3.695,-3.6638,-3.6705,-3.6504,-3.7311,-3.7853,-3.7721,-3.8302,-3.8707,-3.8707,-3.8707,-3.8707,-3.8707,-3.8707,-3.8707,-3.8707,-3.8524,-3.8432,-3.8432,-3.8267,-3.7771,-3.6945,-3.6945,-3.6193,-3.4747,-3.4747,-3.4399,-2.1829,0.0,0.0,-2.4216,0.0,-2.4986,-2.4923,-2.4855,-2.491,-2.5295,-2.5488,-2.5668,-2.5982,-2.5713,-2.5456,-2.5456,-2.5456,-2.5456,-2.5456,-2.5456,-2.5585,-2.597,-2.5695,-2.5603,-2.5988,-2.6025,-2.6025,-2.6025,-2.6374,-2.6684,-2.6893,-2.6918,-2.6929,-2.6986,-2.6249,-2.5984,-2.6197,-2.5441,-2.5456,-2.6218,-2.6218,-2.6437,-2.6894,-2.8333,-2.8677,-2.8169,-2.9726,-3.0091,-2.9678,-3.12,-3.1823,-3.1823,-3.1823,-3.1724,-3.1602,-3.1987,-3.2053,-3.1971,-3.2377,-3.2899,-3.3416,-3.3448,-3.3934,-3.4476,-3.4287,-3.4848,-3.5436,-3.4967,-3.5386,-3.592,-3.5667,-3.56,-3.56,-3.56,-3.6788,-3.8086,-3.8736,-3.9481,-4.0177,-4.0629,-4.1472,-4.1872,-4.1143,-4.0592,-3.9466,-3.7051,-3.693,-3.7201,-3.7413,-3.7895,-3.8241,-3.8346,-3.8567,-3.8707,-3.8707,-3.8707,-3.8707,-3.8707,-3.8707,-3.8707,-3.8707,-3.8707,-3.8707,-3.8707,-3.8707,-3.8303,-3.7492,-3.7492,-3.6633,-3.5004,-3.5004,-3.4564,-2.221,0.0,-2.3369,-2.434,-2.4763,0.0,-2.484,-2.4804,-2.4835,-2.4974,-2.4718,-2.4648,-2.5151,-2.4669,-2.419,-2.419,-2.4228,-2.4247,-2.4199,-2.4266,-2.4552,-2.5168,-2.4671,-2.4514,-2.5186,-2.5221,-2.5191,-2.5191,-2.5805,-2.6245,-2.6392,-2.6392,-2.6311,-2.6103,-2.5641,-2.5293,-2.5087,-2.4624,-2.4433,-2.4491,-2.4491,-2.4491,-2.4575,-2.708,-2.8152,-2.8103,-2.9642,-3.0257,-3.0322,-3.1705,-3.2327,-3.2366,-3.2326,-3.1971,-3.1565,-3.2193,-3.2115,-3.1823,-3.2497,-3.3055,-3.3502,-3.3502,-3.4033,-3.4638,-3.4542,-3.5235,-3.5932,-3.5475,-3.5885,-3.6326,-3.5871,-3.5672,-3.56,-3.56,-3.6589,-3.7631,-3.8024,-3.8851,-3.9606,-3.9823,-4.0577,-4.0995,-4.043,-3.9647,-3.8782,-3.7857,-3.7364,-3.7445,-3.8424,-3.8473,-3.8585,-3.899,-3.8834,-3.8707,-3.8707,-3.8707,-3.8707,-3.8707,-3.8707,-3.8707,-3.8707,-3.8707,-3.8707,-3.8707,-3.8707,-3.8377,-3.7713,-3.7713,-3.6909,-3.5426,-3.5426,-3.5,0.0,0.0,-2.3977,0.0,-2.4257,-2.4814,0.0,0.0,-2.4835,-2.4974,-2.4718,-2.4532,-2.461,-2.4395,-2.419,-2.419,-2.4358,-2.4401,-2.4228,-2.4503,-2.4692,-2.4627,-2.4527,-2.449,-2.4601,-2.445,-2.4355,-2.4355,-2.4465,-2.4814,-2.5521,-2.5558,-2.5868,-2.6493,-2.5527,-2.5129,-2.5429,-2.4472,-2.4156,-2.4491,-2.4491,-2.4491,-2.4508,-2.4914,-2.5606,-2.6576,-2.8051,-2.9281,-3.0269,-3.1105,-3.1633,-3.1846,-3.1576,-3.1812,-3.232,-3.213,-3.2665,-3.3474,-3.3584,-3.4123,-3.4769,-3.4769,-3.5337,-3.597,-3.5546,-3.5984,-3.6501,-3.6041,-3.6258,-3.6589,-3.6364,-3.5963,-3.56,-3.56,-3.6217,-3.6838,-3.6916,-3.7482,-3.7989,-3.8041,-3.8169,-3.821,-3.807,-3.7499,-3.7063,-3.6956,-3.7029,-3.7404,-3.8222,-3.8722,-3.893,-3.8766,-3.8716,-3.8707,-3.8707,-3.8707,-3.8707,-3.8707,-3.8707,-3.8707,-3.8707,-3.8707,-3.8707,-3.8707,-3.8707,-3.8652,-3.8542,-3.8542,-3.8065,-3.718,-3.718,-3.674,-2.1364,-2.2708,-2.3582,0.0,-2.384,-2.4217,-2.4538,-2.4723,-2.4835,-2.4974,-2.4891,-2.4759,-2.4685,-2.461,-2.4545,-2.4545,-2.4607,-2.4631,-2.4553,-2.4685,-2.4768,-2.4678,-2.467,-2.4623,-2.4512,-2.4428,-2.433,-2.4199,-2.419,-2.4355,-2.4713,-2.4732,-2.4897,-2.5236,-2.4595,-2.4215,-2.4198,-2.3558,-2.3234,-2.3274,-2.3274,-2.3274,-2.3274,-2.3712,-2.4852,-2.6595,-2.7698,-2.8952,-3.0247,-3.083,-3.1258,-3.1539,-3.1205,-3.1128,-3.1309,-3.2069,-3.2391,-3.2577,-3.3495,-3.4325,-3.5004,-3.5004,-3.5591,-3.6256,-3.6039,-3.6526,-3.7035,-3.6534,-3.6809,-3.7116,-3.656,-3.601,-3.571,-3.6181,-3.6616,-3.6771,-3.6208,-3.6939,-3.7588,-3.7201,-3.6792,-3.6509,-3.6471,-3.626,-3.609,-3.6112,-3.6683,-3.7556,-3.8764,-3.9013,-3.9005,-3.8734,-3.8707,-3.8707,-3.8707,-3.8707,-3.8707,-3.8707,-3.8707,-3.8707,-3.8707,-3.8707,-3.8777,-3.8923,-3.8777,-3.8707,-3.8707,-3.8707,-3.8285,-3.7492,-3.7492,-3.707,0.0,0.0,-2.2786,-2.2929,-2.3277,-2.3669,0.0,-2.4504,-2.4835,-2.4974,-2.504,-2.5047,-2.4942,-2.4861,-2.4804,-2.4804,-2.4821,-2.4835,-2.4804,-2.4862,-2.4903,-2.4855,-2.4855,-2.4778,-2.4591,-2.4537,-2.4428,-2.4209,-2.419,-2.419,-2.419,-2.419,-2.419,-2.419,-2.3966,-2.3639,-2.32,-2.2802,-2.2487,-2.2296,-2.2296,-2.2296,-2.2313,-2.2868,-2.4247,-2.6238,-2.7014,-2.8198,-2.9617,-2.9968,-3.0441,-3.0916,-3.0547,-3.0392,-3.0477,-3.1585,-3.188,-3.188,-3.3073,-3.416,-3.5004,-3.5004,-3.572,-3.6597,-3.6597,-3.7015,-3.7454,-3.7255,-3.7579,-3.7737,-3.6825,-3.6597,-3.6679,-3.6937,-3.7257,-3.7229,-3.6368,-3.6696,-3.7015,-3.6519,-3.5981,-3.561,-3.56,-3.5584,-3.5673,-3.587,-3.6372,-3.7288,-3.8869,-3.9031,-3.8919,-3.8719,-3.8707,-3.8707,-3.8707,-3.8707,-3.8707,-3.8707,-3.8707,-3.8707,-3.8707,-3.8707,-3.8829,-3.908,-3.8839,-3.873,-3.8803,-3.8803,-3.8464,-3.7804,-3.7804,-3.7477,0.0,-2.1164,0.0,-2.1321,-2.2382,-2.3488,-2.3377,-2.4118,-2.4835,-2.4974,-2.5152,-2.5274,-2.5288,-2.5006,-2.4804,-2.4804,-2.491,-2.4962,-2.4825,-2.508,-2.5203,-2.501,-2.4992,-2.4949,-2.4804,-2.4607,-2.4428,-2.4209,-2.419,-2.419,-2.419,-2.419,-2.419,-2.419,-2.418,-2.3865,-2.32,-2.2624,-2.2307,-2.2296,-2.2296,-2.2296,-2.2296,-2.233,-2.315,-2.4559,-2.5308,-2.65,-2.7934,-2.7959,-2.8658,-2.9642,-2.9253,-2.978,-3.0739,-3.0423,-3.1262,-3.2546,-3.2619,-3.3683,-3.5004,-3.5004,-3.6119,-3.7437,-3.7437,-3.7474,-3.7658,-3.8383,-3.8615,-3.843,-3.7411,-3.8259,-3.9089,-3.7854,-3.8066,-3.8385,-3.7895,-3.6693,-3.5696,-3.5659,-3.5627,-3.5583,-3.5588,-3.5605,-3.5853,-3.661,-3.6141,-3.6298,-3.7936,-3.8491,-3.8726,-3.8703,-3.8707,-3.8707,-3.8707,-3.8707,-3.8707,-3.8707,-3.8707,-3.8707,-3.8707,-3.8707,-3.8829,-3.908,-3.8848,-3.8835,-3.9085,-3.9085,-3.8929,-3.8634,-3.8634,-3.8615,0.0,0.0,0.0,-2.1223,-2.1626,-2.2218,-2.3204,-2.371,-2.416,-2.486,-2.5157,-2.5308,-2.5308,-2.5212,-2.5121,-2.5121,-2.5165,-2.5182,-2.5126,-2.5228,-2.5269,-2.5203,-2.5179,-2.509,-2.4832,-2.4738,-2.4561,-2.4228,-2.419,-2.419,-2.419,-2.419,-2.419,-2.419,-2.419,-2.3886,-2.32,-2.2598,-2.2296,-2.2296,-2.2296,-2.2296,-2.2296,-2.2296,-2.2793,-2.3643,-2.3909,-2.517,-2.7013,-2.6741,-2.7052,-2.7692,-2.7803,-2.8264,-2.8986,-2.9868,-3.0889,-3.1898,-3.2417,-3.3647,-3.5096,-3.5646,-3.6578,-3.7492,-3.7492,-3.786,-3.8212,-3.7991,-3.8297,-3.8547,-3.7826,-3.851,-3.933,-3.9089,-3.8935,-3.8935,-3.9245,-3.7358,-3.5588,-3.5599,-3.5616,-3.56,-3.56,-3.56,-3.569,-3.5977,-3.578,-3.6088,-3.7354,-3.784,-3.8223,-3.8666,-3.8707,-3.8707,-3.8707,-3.8707,-3.8707,-3.8707,-3.8707,-3.8707,-3.8707,-3.8707,-3.8829,-3.908,-3.9005,-3.9005,-3.9112,-3.8918,-3.878,-3.8707,-3.8707,-3.8707,-2.0605,0.0,0.0,0.0,-2.1058,-2.1409,-2.2419,-2.3164,-2.3819,-2.449,-2.5014,-2.5359,-2.5339,-2.5346,-2.5346,-2.5303,-2.5308,-2.5308,-2.5308,-2.5308,-2.5308,-2.5308,-2.5229,-2.509,-2.4832,-2.4738,-2.4551,-2.4228,-2.419,-2.4228,-2.4294,-2.4237,-2.4151,-2.4044,-2.3917,-2.3606,-2.3045,-2.2544,-2.2296,-2.2296,-2.2296,-2.2296,-2.231,-2.2385,-2.2721,-2.32,-2.3323,-2.4288,-2.5766,-2.5499,-2.576,-2.6348,-2.6885,-2.7424,-2.8101,-2.9735,-3.0835,-3.1659,-3.2447,-3.3672,-3.5025,-3.5789,-3.6579,-3.727,-3.7448,-3.7878,-3.823,-3.7988,-3.8028,-3.8159,-3.8172,-3.8743,-3.9543,-4.0297,-4.0107,-3.9798,-4.0058,-3.8142,-3.6316,-3.6137,-3.6099,-3.5993,-3.5667,-3.5605,-3.5599,-3.56,-3.5795,-3.6241,-3.6953,-3.7608,-3.8204,-3.8648,-3.8707,-3.8707,-3.8707,-3.8707,-3.875,-3.8829,-3.8747,-3.875,-3.8829,-3.8747,-3.8829,-3.908,-3.9005,-3.9,-3.9096,-3.8915,-3.8804,-3.8707,-3.8985,-3.9261,0.0,0.0,0.0,-2.0233,-2.0695,-2.1135,-2.1047,-2.2484,-2.3875,-2.3894,-2.4742,-2.5485,-2.5417,-2.5456,-2.544,-2.5317,-2.5293,-2.5293,-2.5308,-2.5308,-2.5308,-2.5308,-2.5135,-2.4949,-2.4799,-2.4623,-2.4436,-2.4218,-2.4199,-2.4294,-2.4503,-2.4321,-2.4064,-2.3742,-2.338,-2.3045,-2.2721,-2.244,-2.2296,-2.2296,-2.231,-2.231,-2.2307,-2.2586,-2.291,-2.3224,-2.3555,-2.3896,-2.419,-2.4199,-2.4801,-2.5781,-2.6599,-2.7429,-2.835,-2.9998,-3.1147,-3.1952,-3.2721,-3.3749,-3.4793,-3.5327,-3.6056,-3.6798,-3.7337,-3.7529,-3.7694,-3.845,-3.794,-3.7391,-3.8457,-3.9118,-3.9881,-4.1403,-4.1463,-4.097,-4.0263,-3.8971,-3.7787,-3.7231,-3.7108,-3.6777,-3.5797,-3.5615,-3.562,-3.5628,-3.6268,-3.6742,-3.6775,-3.7917,-3.87,-3.8737,-3.8726,-3.8707,-3.8707,-3.8707,-3.8815,-3.9085,-3.8873,-3.8829,-3.9085,-3.8844,-3.8815,-3.9085,-3.883,-3.8833,-3.91,-3.9094,-3.8966,-3.8747,-3.9575,-4.0366,-2.0586,0.0,0.0,0.0,0.0,0.0,-2.1215,-2.2186,-2.3178,-2.3894,-2.4784,-2.5418,-2.5406,-2.5427,-2.5415,-2.5376,-2.5368,-2.5354,-2.5303,-2.5308,-2.5308,-2.5308,-2.5259,-2.5121,-2.4832,-2.4753,-2.4631,-2.4426,-2.4428,-2.4503,-2.4708,-2.4528,-2.4312,-2.4074,-2.3511,-2.3153,-2.3069,-2.2558,-2.2296,-2.231,-2.2487,-2.2586,-2.2599,-2.291,-2.3236,-2.3566,-2.366,-2.3896,-2.4209,-2.4357,-2.4917,-2.5795,-2.6745,-2.8016,-2.9454,-3.0499,-3.177,-3.2954,-3.2985,-3.3749,-3.4856,-3.5779,-3.6364,-3.6798,-3.7337,-3.7915,-3.8248,-3.7701,-3.7903,-3.8456,-3.9349,-3.9499,-3.9679,-4.0689,-4.0665,-4.0337,-4.0121,-3.9791,-3.9132,-3.7913,-3.7253,-3.6834,-3.67,-3.6398,-3.6246,-3.6452,-3.6933,-3.7593,-3.8472,-3.849,-3.8779,-3.9742,-3.9163,-3.8707,-3.8707,-3.8884,-3.9008,-3.9099,-3.9036,-3.9022,-3.9099,-3.8844,-3.8735,-3.8818,-3.873,-3.8726,-3.8807,-3.8804,-3.9073,-3.9577,-4.0382,-4.1205,0.0,0.0,0.0,-2.0434,0.0,0.0,-2.1336,-2.2179,-2.3032,-2.3941,-2.4856,-2.5473,-2.541,-2.5476,-2.5505,-2.5401,-2.5454,-2.5444,-2.5322,-2.5308,-2.5308,-2.5308,-2.5224,-2.5101,-2.4897,-2.4828,-2.4753,-2.4631,-2.4623,-2.4639,-2.467,-2.4639,-2.4434,-2.4006,-2.361,-2.3346,-2.32,-2.2845,-2.2673,-2.2673,-2.2827,-2.291,-2.2923,-2.3265,-2.3522,-2.3703,-2.3855,-2.4016,-2.4255,-2.4874,-2.5408,-2.5965,-2.7339,-2.8704,-3.0059,-3.1219,-3.2452,-3.359,-3.3675,-3.4228,-3.4934,-3.5306,-3.5773,-3.629,-3.684,-3.7477,-3.7995,-3.783,-3.8215,-3.8891,-3.968,-3.9409,-3.9148,-3.9946,-3.9645,-3.9191,-3.9175,-3.942,-3.9386,-3.8544,-3.8256,-3.8092,-3.7815,-3.7779,-3.7832,-3.7945,-3.8073,-3.8534,-3.9591,-3.8991,-3.8886,-4.0015,-3.9273,-3.8707,-3.8707,-3.8844,-3.8971,-3.9099,-3.8999,-3.8985,-3.9099,-3.8844,-3.8707,-3.8707,-3.8707,-3.8869,-3.9194,-3.9209,-3.9795,-4.0919,-4.1372,-4.2029,0.0,0.0,0.0,-2.0656,-2.0632,0.0,-2.1572,-2.2458,-2.332,-2.4041,-2.4842,-2.5395,-2.5282,-2.5422,-2.5486,-2.5312,-2.5442,-2.5511,-2.5339,-2.5322,-2.5322,-2.5308,-2.5143,-2.5027,-2.4991,-2.4891,-2.4814,-2.4814,-2.4835,-2.4768,-2.4534,-2.47,-2.4489,-2.3767,-2.3714,-2.3555,-2.3247,-2.3212,-2.32,-2.32,-2.3236,-2.3265,-2.3277,-2.3599,-2.3764,-2.3774,-2.4074,-2.419,-2.4311,-2.5603,-2.6133,-2.6325,-2.8131,-2.9433,-3.0462,-3.1981,-3.3104,-3.3936,-3.45,-3.4879,-3.5018,-3.4461,-3.4858,-3.564,-3.6155,-3.6703,-3.7379,-3.8414,-3.8615,-3.8726,-3.9551,-3.8976,-3.8373,-3.9191,-3.8629,-3.7891,-3.7896,-3.8475,-3.8996,-3.8886,-3.9462,-3.9717,-3.8948,-3.9289,-3.9683,-3.9724,-3.9514,-3.9661,-4.0474,-3.9657,-3.9296,-4.0086,-3.9441,-3.8964,-3.8982,-3.8995,-3.9136,-3.9364,-3.9054,-3.9025,-3.9346,-3.8936,-3.8744,-3.8836,-3.8762,-3.9142,-4.0028,-4.012,-4.0901,-4.2313,-4.2381,-4.2818,-2.1705,-2.202,-2.2331,-2.1691,-2.2044,0.0,-2.2638,-2.3247,-2.3866,-2.4086,-2.4215,-2.4344,-2.4423,-2.4511,-2.4552,-2.4527,-2.5086,-2.5495,-2.5391,-2.5421,-2.5415,-2.5313,-2.5305,-2.524,-2.5015,-2.498,-2.4962,-2.4962,-2.5107,-2.5074,-2.476,-2.4782,-2.4591,-2.4113,-2.3837,-2.3671,-2.3599,-2.3335,-2.32,-2.32,-2.3471,-2.3599,-2.361,-2.3937,-2.4103,-2.4103,-2.417,-2.419,-2.4348,-2.6266,-2.7044,-2.7176,-2.8524,-3.0003,-3.1495,-3.2474,-3.3364,-3.4187,-3.4576,-3.4879,-3.5067,-3.4897,-3.5287,-3.5893,-3.6205,-3.6856,-3.766,-3.8471,-3.8086,-3.7664,-3.867,-3.8129,-3.7538,-3.8355,-3.8204,-3.7882,-3.7891,-3.8488,-3.8817,-3.8227,-3.87,-3.9292,-3.9456,-3.9528,-3.9761,-4.0403,-4.0748,-4.1268,-4.2116,-4.1428,-4.1126,-4.1759,-4.1107,-4.0627,-4.0634,-4.0877,-4.1047,-4.1101,-4.0411,-4.0323,-4.1082,-3.9564,-3.9001,-3.9643,-3.9038,-3.9405,-4.0871,-4.1522,-4.1999,-4.232,-4.2964,-4.3349,-2.2544,-2.2686,-2.2921,-2.2586,-2.2803,0.0,0.0,-2.3836,-2.4189,-2.448,-2.4632,-2.4687,-2.4654,-2.4812,-2.4946,-2.4941,-2.5304,-2.5561,-2.5468,-2.5453,-2.5401,-2.5308,-2.5326,-2.5302,-2.5168,-2.5152,-2.5152,-2.5152,-2.5234,-2.5149,-2.4818,-2.4804,-2.4615,-2.4209,-2.4044,-2.3937,-2.3937,-2.3785,-2.3692,-2.3703,-2.3876,-2.3937,-2.3966,-2.4113,-2.4103,-2.3966,-2.4141,-2.4103,-2.4107,-2.6374,-2.7297,-2.7468,-2.911,-3.0544,-3.1756,-3.216,-3.2833,-3.3537,-3.3476,-3.3609,-3.3831,-3.3957,-3.4295,-3.4837,-3.5819,-3.6689,-3.7554,-3.8449,-3.7547,-3.6666,-3.8288,-3.7606,-3.6709,-3.7561,-3.724,-3.6749,-3.6749,-3.7658,-3.8352,-3.7969,-3.8794,-3.9678,-4.0119,-4.0704,-4.1325,-4.199,-4.196,-4.2159,-4.2996,-4.2014,-4.1522,-4.2216,-4.157,-4.1093,-4.1095,-4.1251,-4.1357,-4.1357,-4.0951,-4.088,-4.1339,-4.0399,-3.9898,-3.9905,-3.9641,-3.9824,-4.0496,-4.157,-4.2176,-4.2301,-4.2286,-4.2525,-2.3359,-2.3339,-2.347,-2.3412,-2.3511,-2.3748,0.0,0.0,0.0,-2.4971,-2.5087,-2.5069,-2.4927,-2.5157,-2.5302,-2.5132,-2.5429,-2.5577,-2.5291,-2.5208,-2.5209,-2.5284,-2.5312,-2.5321,-2.5293,-2.5154,-2.5135,-2.5288,-2.5154,-2.4996,-2.4799,-2.4804,-2.4615,-2.4209,-2.419,-2.419,-2.419,-2.419,-2.419,-2.419,-2.419,-2.417,-2.4103,-2.4103,-2.3917,-2.361,-2.3966,-2.3937,-2.3886,-2.6294,-2.7297,-2.7506,-2.9583,-3.0827,-3.1468,-3.1641,-3.2102,-3.2609,-3.23,-3.2434,-3.2784,-3.2951,-3.3288,-3.3928,-3.538,-3.6283,-3.693,-3.7565,-3.6615,-3.5827,-3.7738,-3.6956,-3.5879,-3.6766,-3.6274,-3.56,-3.56,-3.6806,-3.7929,-3.801,-3.9246,-4.0394,-4.0849,-4.1792,-4.2751,-4.341,-4.2947,-4.2763,-4.3423,-4.2362,-4.1814,-4.247,-4.1959,-4.1557,-4.1554,-4.157,-4.157,-4.157,-4.1407,-4.1389,-4.157,-4.1407,-4.0804,-3.9692,-4.0033,-4.0115,-3.9912,-4.0825,-4.1546,-4.2046,-4.1405,-4.1534,-2.4029,-2.4541,-2.5059,-2.4347,-2.4799,-2.5383,-2.5284,0.0,-2.5116,-2.524,0.0,-2.4094,-2.4207,0.0,0.0,-2.3499,-2.4631,-2.532,-2.4462,-2.4338,-2.4579,-2.5226,-2.5394,-2.5428,-2.5308,-2.4639,-2.4529,-2.525,-2.4639,-2.4389,-2.478,-2.4804,-2.4615,-2.4209,-2.419,-2.419,-2.419,-2.419,-2.419,-2.419,-2.419,-2.4036,-2.3764,-2.3764,-2.3577,-2.3288,-2.3599,-2.3742,-2.3886,-2.6294,-2.7297,-2.7506,-2.9583,-3.0462,-3.0635,-3.1429,-3.1756,-3.1879,-3.2129,-3.2841,-3.3581,-3.3139,-3.3693,-3.4684,-3.5342,-3.5615,-3.5497,-3.4623,-3.4694,-3.5284,-3.6303,-3.5714,-3.5048,-3.5861,-3.5835,-3.56,-3.56,-3.6814,-3.8016,-3.8429,-3.975,-4.0986,-4.1584,-4.18,-4.2266,-4.3339,-4.3423,-4.3387,-4.3496,-4.3332,-4.3259,-4.3349,-4.3277,-4.3222,-4.3222,-4.3222,-4.3222,-4.3222,-4.2561,-4.2488,-4.3185,-4.2543,-4.1118,-3.8869,-3.9571,-3.9929,-3.9912,-3.9341,-3.9822,-4.1232,-4.1146,-4.1534,-2.4663,-2.5066,-2.5427,-2.5123,-2.5357,-2.5605,-2.5498,-2.5386,-2.5278,-2.5146,0.0,0.0,0.0,0.0,0.0,0.0,-2.5119,-2.5442,-2.4968,-2.4904,-2.5,-2.5265,-2.4977,-2.4917,-2.5372,-2.4648,-2.4498,-2.5305,-2.457,-2.4335,-2.4898,-2.4842,-2.467,-2.4384,-2.4247,-2.419,-2.419,-2.419,-2.419,-2.419,-2.419,-2.4016,-2.3703,-2.3703,-2.3403,-2.2947,-2.3459,-2.3588,-2.3553,-2.5551,-2.6734,-2.7434,-2.8898,-2.9857,-3.0442,-3.0808,-3.0849,-3.0736,-3.0871,-3.1232,-3.1733,-3.2648,-3.3955,-3.52,-3.5437,-3.5281,-3.4862,-3.4032,-3.4032,-3.4724,-3.6538,-3.5856,-3.503,-3.6339,-3.6115,-3.5718,-3.6197,-3.714,-3.8068,-3.8724,-3.9717,-4.0728,-4.1643,-4.2101,-4.258,-4.3392,-4.3515,-4.3515,-4.3515,-4.3515,-4.3392,-4.3069,-4.3303,-4.3375,-4.305,-4.3321,-4.3515,-4.3515,-4.2886,-4.2814,-4.3469,-4.2173,-4.1152,-4.0574,-3.9678,-3.9203,-3.9194,-3.8869,-3.9038,-3.9711,-3.9698,-4.038,-2.4856,-2.517,-2.544,-2.5556,-2.5594,-2.559,-2.5484,-2.5434,-2.5332,-2.5138,-2.5203,0.0,0.0,0.0,-2.5382,-2.5168,0.0,-2.544,-2.5087,-2.5047,-2.5119,-2.5279,-2.4625,-2.4439,-2.5075,-2.4144,-2.4005,-2.5271,-2.4371,-2.4106,-2.4959,-2.4864,-2.4708,-2.4512,-2.4303,-2.419,-2.419,-2.419,-2.419,-2.419,-2.419,-2.4016,-2.3703,-2.3703,-2.338,-2.2873,-2.3448,-2.3555,-2.3468,-2.5041,-2.6193,-2.7059,-2.8308,-2.9309,-3.0077,-3.0308,-3.0222,-3.0006,-3.0006,-3.0159,-3.0634,-3.2359,-3.3872,-3.5028,-3.5028,-3.484,-3.4448,-3.3708,-3.3642,-3.4266,-3.6285,-3.5865,-3.5244,-3.6536,-3.6325,-3.6004,-3.674,-3.7422,-3.8176,-3.9129,-3.9731,-4.041,-4.138,-4.2041,-4.2694,-4.3392,-4.3515,-4.3515,-4.3515,-4.3515,-4.3357,-4.2958,-4.3142,-4.3178,-4.2939,-4.3142,-4.3339,-4.3479,-4.2995,-4.2799,-4.3007,-4.1757,-4.1123,-4.1224,-3.9817,-3.899,-3.8702,-3.87,-3.8707,-3.8707,-3.8707,-3.9441,-2.4351,-2.4818,-2.5259,-2.5459,-2.5554,-2.5563,-2.5438,-2.5394,-2.5379,-2.5313,-2.5303,-2.5308,-2.5288,-2.535,-2.5131,-2.4272,-2.4841,0.0,0.0,-2.4137,-2.4437,-2.5212,-2.4593,-2.4148,-2.4229,-2.268,-2.2685,-2.513,-2.3774,-2.3467,-2.4921,-2.4864,-2.4708,-2.4512,-2.4303,-2.419,-2.419,-2.419,-2.419,-2.419,-2.419,-2.4016,-2.3703,-2.3703,-2.3511,-2.32,-2.3555,-2.3692,-2.3789,-2.5144,-2.5828,-2.6231,-2.8072,-2.8945,-2.9242,-3.0096,-3.0222,-3.0006,-3.0006,-3.0547,-3.1443,-3.2532,-3.3327,-3.3846,-3.3846,-3.4109,-3.4182,-3.3056,-3.3259,-3.4009,-3.4857,-3.5284,-3.5565,-3.5864,-3.6147,-3.6504,-3.6996,-3.753,-3.8326,-3.9793,-4.0085,-4.0286,-4.0827,-4.1424,-4.2206,-4.3339,-4.3515,-4.3515,-4.3515,-4.3515,-4.3479,-4.348,-4.3032,-4.292,-4.3427,-4.3014,-4.2939,-4.348,-4.2995,-4.244,-4.1892,-4.1793,-4.1033,-3.9501,-3.9916,-3.9662,-3.8706,-3.8707,-3.8707,-3.8707,-3.8707,-3.9148,-2.3803,-2.4518,-2.5242,-2.5392,-2.5476,-2.552,-2.5415,-2.5371,-2.5321,-2.5298,-2.5308,-2.5308,-2.5308,-2.535,-2.5287,-2.4954,-2.5182,-2.5244,0.0,-2.4706,-2.4628,-2.445,-2.4794,-2.4839,-2.4373,-2.3633,-2.3527,-2.4302,-2.3807,-2.3905,-2.4934,-2.4864,-2.4768,-2.47,-2.4375,-2.419,-2.419,-2.419,-2.419,-2.419,-2.419,-2.4016,-2.3703,-2.3703,-2.3522,-2.3212,-2.3555,-2.3703,-2.3742,-2.442,-2.5229,-2.6114,-2.7327,-2.8338,-2.9173,-2.9877,-2.9996,-2.9796,-2.9796,-3.0451,-3.1386,-3.193,-3.2993,-3.3979,-3.3538,-3.4083,-3.4661,-3.3697,-3.4147,-3.5073,-3.5698,-3.6082,-3.6372,-3.6699,-3.6681,-3.6788,-3.7494,-3.8028,-3.8696,-3.9866,-4.0087,-4.041,-4.1335,-4.1664,-4.2062,-4.2846,-4.3268,-4.3515,-4.3515,-4.3515,-4.3356,-4.2995,-4.2807,-4.2598,-4.2386,-4.2451,-4.2788,-4.3468,-4.2879,-4.2184,-4.1428,-4.0932,-4.0011,-3.8582,-3.914,-3.904,-3.8169,-3.8528,-3.8788,-3.8961,-3.8773,-3.9129,-2.3614,-2.4375,-2.5224,-2.5727,-2.5916,-2.5935,-2.5885,-2.582,-2.5769,-2.5769,-2.5519,-2.55,-2.6115,-2.5744,-2.5443,-2.5726,-2.5481,-2.5187,0.0,-2.4968,-2.4864,-2.4463,-2.478,-2.4843,-2.4373,-2.3842,-2.3744,-2.4259,-2.3912,-2.4074,-2.4947,-2.4802,-2.4731,-2.4797,-2.4419,-2.419,-2.419,-2.419,-2.419,-2.419,-2.419,-2.4084,-2.3886,-2.3886,-2.3764,-2.3566,-2.3785,-2.3886,-2.3896,-2.4103,-2.4698,-2.5592,-2.6824,-2.7823,-2.8675,-2.9655,-2.9877,-2.9687,-2.9626,-3.0131,-3.0875,-3.1033,-3.1879,-3.2769,-3.233,-3.3238,-3.4267,-3.3548,-3.4162,-3.5237,-3.6204,-3.6494,-3.6678,-3.7092,-3.7115,-3.7224,-3.7783,-3.8275,-3.8909,-3.9893,-4.0096,-4.0392,-4.1313,-4.1664,-4.2062,-4.2865,-4.3268,-4.3515,-4.3515,-4.3515,-4.3286,-4.2769,-4.25,-4.2142,-4.1534,-4.1783,-4.2309,-4.3057,-4.2342,-4.1402,-4.0323,-4.016,-3.9858,-3.9362,-3.8955,-3.8783,-3.8866,-3.8755,-3.8844,-3.9099,-3.8815,-3.8875]},{"header":{"parameterUnit":"m.s-1","parameterCategory":1,"la1":30.6,"la2":29.2853,"lo1":-89.7004,"lo2":-87.6739,"dy":0.0162,"dx":0.0183,"nx":112,"ny":82,"refTime":"2023-07-02T12:00:00:Z","depth":0,"parameterNumber":3,"parameterNumberName":"V-component_of_WINDS"},"data":[0.0,0.0,0.0,0.0,0.0,0.0,0.0,0.0,0.0,0.0,0.0,0.0,0.0,0.0,0.0,0.0,0.0,0.0,0.0,0.0,0.0,0.0,0.0,0.0,0.0,0.0,0.0,0.0,0.0,0.0,0.0,0.0,0.0,0.0,0.0,0.0,0.0,0.0,0.0,0.0,0.0,0.0,0.0,0.0,0.0,0.0,0.0,0.0,0.0,0.0,0.0,0.0,0.0,0.0,0.0,0.0,0.0,0.0,0.0,0.0,0.0,0.0,0.0,0.0,0.0,0.0,0.0,0.0,0.0,0.0,0.0,0.0,0.0,0.0,0.0,0.0,0.0,0.0,0.0,0.0,0.0,0.0,0.0,0.0,0.0,0.0,0.0,0.0,0.0,0.0,-1.7204,-1.7569,-1.8873,-1.9708,-1.9708,-1.9091,-1.8747,-1.8852,0.0,0.0,0.0,0.0,0.0,0.0,0.0,0.0,0.0,0.0,0.0,0.0,0.0,0.0,0.0,0.0,0.0,0.0,0.0,0.0,0.0,0.0,0.0,0.0,0.0,0.0,0.0,0.0,0.0,0.0,0.0,0.0,0.0,0.0,0.0,0.0,0.0,0.0,0.0,0.0,0.0,0.0,0.0,0.0,0.0,0.0,0.0,0.0,0.0,0.0,0.0,0.0,0.0,0.0,0.0,0.0,0.0,0.0,0.0,0.0,0.0,0.0,0.0,0.0,0.0,0.0,0.0,0.0,0.0,0.0,0.0,0.0,0.0,0.0,0.0,0.0,0.0,0.0,0.0,0.0,0.0,0.0,0.0,0.0,0.0,0.0,0.0,0.0,0.0,0.0,0.0,0.0,0.0,0.0,0.0,0.0,0.0,0.0,0.0,0.0,0.0,0.0,0.0,0.0,-1.6438,-1.7573,-1.8888,-1.9708,-1.9708,-1.9091,-1.8942,-1.9513,0.0,0.0,0.0,0.0,0.0,0.0,0.0,0.0,0.0,0.0,0.0,0.0,0.0,0.0,0.0,0.0,0.0,0.0,0.0,0.0,0.0,0.0,0.0,0.0,0.0,0.0,0.0,0.0,0.0,0.0,0.0,0.0,0.0,0.0,0.0,0.0,0.0,0.0,0.0,0.0,0.0,0.0,0.0,0.0,0.0,0.0,0.0,0.0,0.0,0.0,0.0,0.0,0.0,0.0,0.0,0.0,0.0,0.0,0.0,0.0,0.0,0.0,0.0,0.0,0.0,0.0,0.0,0.0,0.0,0.0,0.0,0.0,0.0,0.0,0.0,0.0,0.0,0.0,0.0,0.0,0.0,0.0,0.0,0.0,0.0,0.0,0.0,0.0,0.0,0.0,0.0,0.0,0.0,0.0,0.0,0.0,0.0,0.0,0.0,0.0,0.0,0.0,0.0,-1.691,-1.7288,-1.7897,-1.9002,-1.9708,-1.9708,-1.8833,-1.8537,-1.9218,-1.7456,0.0,0.0,0.0,0.0,0.0,0.0,0.0,0.0,0.0,0.0,0.0,0.0,0.0,0.0,0.0,0.0,0.0,0.0,0.0,0.0,0.0,0.0,0.0,0.0,0.0,0.0,0.0,0.0,0.0,0.0,0.0,0.0,0.0,0.0,0.0,0.0,0.0,0.0,0.0,0.0,0.0,0.0,0.0,0.0,0.0,0.0,0.0,0.0,0.0,0.0,0.0,0.0,0.0,0.0,0.0,0.0,0.0,0.0,0.0,0.0,0.0,0.0,0.0,0.0,0.0,0.0,0.0,0.0,0.0,0.0,0.0,0.0,0.0,0.0,0.0,0.0,0.0,0.0,0.0,0.0,0.0,0.0,0.0,0.0,0.0,0.0,0.0,0.0,0.0,0.0,0.0,0.0,0.0,0.0,0.0,0.0,0.0,0.0,0.0,0.0,0.0,0.0,-1.7588,-1.7685,-1.8037,-1.9038,-1.9639,-1.953,-1.8535,-1.8216,-1.8868,-1.7334,0.0,0.0,0.0,0.0,0.0,0.0,0.0,0.0,0.0,0.0,0.0,0.0,0.0,0.0,0.0,0.0,0.0,0.0,0.0,0.0,0.0,0.0,0.0,0.0,0.0,0.0,0.0,0.0,0.0,0.0,0.0,0.0,0.0,0.0,0.0,0.0,0.0,0.0,0.0,0.0,0.0,0.0,0.0,0.0,0.0,0.0,0.0,0.0,0.0,0.0,0.0,0.0,0.0,0.0,0.0,0.0,0.0,0.0,0.0,0.0,0.0,0.0,0.0,0.0,0.0,0.0,0.0,0.0,0.0,0.0,0.0,0.0,0.0,0.0,0.0,0.0,0.0,0.0,0.0,0.0,0.0,0.0,0.0,0.0,0.0,0.0,0.0,0.0,0.0,0.0,0.0,0.0,0.0,0.0,0.0,0.0,0.0,0.0,0.0,0.0,0.0,0.0,-1.6308,-1.6413,-1.7596,-1.8914,-1.9497,-1.9006,-1.8426,-1.8321,-1.8868,-1.7838,0.0,0.0,0.0,0.0,0.0,0.0,0.0,0.0,0.0,0.0,0.0,0.0,0.0,0.0,0.0,0.0,0.0,0.0,0.0,0.0,0.0,0.0,0.0,0.0,0.0,0.0,0.0,0.0,0.0,0.0,0.0,0.0,0.0,0.0,0.0,0.0,0.0,0.0,0.0,0.0,0.0,0.0,0.0,0.0,0.0,0.0,0.0,0.0,0.0,0.0,0.0,0.0,0.0,0.0,0.0,0.0,0.0,0.0,0.0,0.0,0.0,0.0,0.0,0.0,0.0,0.0,0.0,0.0,0.0,0.0,0.0,0.0,0.0,0.0,0.0,0.0,0.0,0.0,0.0,0.0,0.0,0.0,0.0,0.0,0.0,0.0,0.0,0.0,0.0,0.0,0.0,0.0,0.0,0.0,0.0,0.0,0.0,0.0,0.0,0.0,0.0,0.0,-1.65,-1.6712,-1.7593,-1.8538,-1.8889,-1.8444,-1.7923,-1.7697,-1.7885,0.0,0.0,0.0,0.0,0.0,0.0,0.0,0.0,0.0,0.0,0.0,0.0,0.0,0.0,0.0,0.0,0.0,0.0,0.0,0.0,0.0,0.0,0.0,0.0,0.0,0.0,0.0,0.0,0.0,0.0,0.0,0.0,0.0,0.0,0.0,0.0,0.0,0.0,0.0,0.0,0.0,0.0,0.0,0.0,0.0,0.0,0.0,0.0,0.0,0.0,0.0,0.0,0.0,0.0,0.0,0.0,0.0,0.0,0.0,0.0,0.0,0.0,0.0,0.0,0.0,0.0,0.0,0.0,0.0,0.0,0.0,0.0,0.0,0.0,0.0,0.0,0.0,0.0,0.0,0.0,0.0,0.0,0.0,0.0,0.0,0.0,0.0,0.0,0.0,0.0,0.0,0.0,0.0,0.0,0.0,0.0,0.0,0.0,0.0,0.0,0.0,0.0,-1.6995,-1.6478,-1.6428,-1.7294,-1.7868,-1.8,-1.7566,-1.6902,-1.6665,-1.703,0.0,0.0,0.0,0.0,0.0,0.0,0.0,0.0,0.0,0.0,0.0,0.0,0.0,0.0,0.0,0.0,0.0,0.0,0.0,0.0,0.0,0.0,0.0,0.0,0.0,0.0,0.0,0.0,0.0,0.0,0.0,0.0,0.0,0.0,0.0,0.0,0.0,0.0,0.0,0.0,0.0,0.0,0.0,0.0,0.0,0.0,0.0,0.0,0.0,0.0,0.0,0.0,0.0,0.0,0.0,0.0,0.0,0.0,0.0,0.0,0.0,0.0,0.0,0.0,0.0,0.0,0.0,0.0,0.0,0.0,0.0,0.0,0.0,0.0,0.0,0.0,0.0,0.0,0.0,0.0,0.0,0.0,0.0,0.0,0.0,0.0,0.0,0.0,0.0,0.0,0.0,0.0,0.0,0.0,0.0,0.0,0.0,0.0,0.0,0.0,0.0,0.0,-1.7531,-1.6004,-1.5291,-1.6562,-1.6926,-1.6887,-1.6332,-1.5375,-1.5299,0.0,0.0,0.0,0.0,0.0,0.0,0.0,0.0,0.0,0.0,0.0,0.0,0.0,0.0,0.0,0.0,0.0,0.0,0.0,0.0,0.0,0.0,0.0,0.0,0.0,0.0,0.0,0.0,0.0,0.0,0.0,0.0,0.0,0.0,0.0,0.0,0.0,0.0,0.0,0.0,0.0,0.0,0.0,0.0,0.0,0.0,0.0,0.0,0.0,0.0,0.0,0.0,0.0,0.0,0.0,0.0,0.0,0.0,0.0,0.0,0.0,0.0,0.0,0.0,0.0,0.0,0.0,0.0,0.0,0.0,0.0,0.0,0.0,0.0,0.0,0.0,0.0,0.0,0.0,0.0,0.0,0.0,0.0,0.0,0.0,0.0,0.0,0.0,0.0,0.0,0.0,0.0,0.0,0.0,0.0,0.0,0.0,0.0,0.0,0.0,0.0,0.0,0.0,-1.7535,-1.5586,-1.4659,-1.6118,-1.6682,-1.6496,-1.5339,-1.535,-1.5588,-1.5902,0.0,0.0,0.0,0.0,0.0,0.0,0.0,0.0,0.0,0.0,0.0,0.0,0.0,0.0,0.0,0.0,0.0,0.0,0.0,0.0,0.0,0.0,0.0,0.0,0.0,0.0,0.0,0.0,0.0,0.0,0.0,0.0,0.0,0.0,0.0,0.0,0.0,0.0,0.0,0.0,0.0,0.0,0.0,0.0,0.0,0.0,0.0,0.0,0.0,0.0,0.0,0.0,0.0,0.0,0.0,0.0,0.0,0.0,0.0,0.0,0.0,0.0,0.0,0.0,0.0,0.0,0.0,0.0,0.0,0.0,0.0,0.0,0.0,0.0,0.0,0.0,0.0,0.0,0.0,0.0,0.0,0.0,0.0,0.0,0.0,0.0,0.0,0.0,0.0,0.0,0.0,0.0,0.0,0.0,0.0,0.0,0.0,0.0,0.0,0.0,0.0,0.0,-1.7565,-1.5648,-1.4688,-1.5929,-1.6187,-1.5837,-1.484,-1.4948,-1.5053,-1.5053,0.0,0.0,0.0,0.0,0.0,0.0,0.0,0.0,0.0,0.0,0.0,0.0,0.0,0.0,0.0,0.0,0.0,0.0,0.0,0.0,0.0,0.0,0.0,0.0,0.0,0.0,0.0,0.0,0.0,0.0,0.0,0.0,0.0,0.0,0.0,0.0,0.0,0.0,0.0,0.0,0.0,0.0,0.0,0.0,0.0,0.0,0.0,0.0,0.0,0.0,0.0,0.0,0.0,0.0,0.0,0.0,0.0,0.0,0.0,0.0,0.0,0.0,0.0,0.0,0.0,0.0,0.0,0.0,0.0,0.0,0.0,0.0,0.0,0.0,0.0,0.0,0.0,0.0,0.0,0.0,0.0,0.0,0.0,0.0,0.0,0.0,0.0,0.0,0.0,0.0,0.0,0.0,0.0,0.0,0.0,0.0,0.0,0.0,0.0,0.0,0.0,0.0,-1.7636,-1.602,-1.5135,-1.5949,-1.5655,-1.5208,-1.4765,-1.4384,-1.4179,-1.4179,0.0,0.0,0.0,0.0,0.0,0.0,0.0,0.0,0.0,0.0,0.0,0.0,0.0,0.0,0.0,0.0,0.0,0.0,0.0,0.0,0.0,0.0,0.0,0.0,0.0,0.0,0.0,0.0,0.0,0.0,0.0,0.0,0.0,0.0,0.0,0.0,0.0,0.0,0.0,0.0,0.0,0.0,0.0,0.0,0.0,0.0,0.0,0.0,0.0,0.0,0.0,0.0,0.0,0.0,0.0,0.0,0.0,0.0,0.0,0.0,-1.7609,-1.7802,0.0,0.0,0.0,0.0,0.0,0.0,0.0,0.0,0.0,0.0,0.0,0.0,0.0,0.0,0.0,0.0,0.0,0.0,0.0,0.0,0.0,0.0,0.0,0.0,0.0,0.0,0.0,0.0,0.0,0.0,0.0,0.0,0.0,0.0,0.0,0.0,0.0,0.0,0.0,0.0,-1.7754,-1.6152,-1.5301,-1.6135,-1.6162,-1.5748,-1.4936,-1.4765,-1.4739,-1.4739,-1.4437,0.0,0.0,0.0,0.0,0.0,0.0,0.0,0.0,0.0,0.0,0.0,0.0,0.0,0.0,0.0,0.0,0.0,0.0,0.0,0.0,0.0,0.0,0.0,0.0,0.0,0.0,0.0,0.0,0.0,0.0,0.0,0.0,0.0,0.0,0.0,0.0,0.0,0.0,0.0,0.0,0.0,0.0,0.0,0.0,0.0,0.0,0.0,0.0,0.0,0.0,0.0,0.0,0.0,0.0,0.0,0.0,0.0,0.0,0.0,-1.7792,-1.7744,0.0,0.0,0.0,0.0,0.0,0.0,0.0,0.0,0.0,0.0,0.0,0.0,0.0,0.0,0.0,0.0,0.0,0.0,0.0,0.0,0.0,0.0,0.0,0.0,0.0,0.0,0.0,0.0,0.0,0.0,0.0,0.0,0.0,0.0,0.0,0.0,0.0,0.0,0.0,0.0,-1.7452,-1.6326,-1.5686,-1.6241,-1.6313,-1.6022,-1.5351,-1.5286,-1.506,-1.4551,-1.4739,0.0,0.0,0.0,0.0,0.0,0.0,0.0,0.0,0.0,0.0,0.0,0.0,0.0,0.0,0.0,0.0,0.0,0.0,0.0,0.0,0.0,0.0,0.0,0.0,0.0,0.0,0.0,0.0,0.0,0.0,0.0,0.0,0.0,0.0,0.0,0.0,0.0,0.0,0.0,0.0,0.0,0.0,0.0,0.0,0.0,0.0,0.0,0.0,0.0,0.0,0.0,0.0,0.0,-1.9172,-1.9588,-1.9708,-1.9708,-1.9397,-1.8844,-1.8293,-1.7922,-1.7776,-1.8241,0.0,0.0,0.0,0.0,0.0,0.0,0.0,0.0,0.0,0.0,0.0,0.0,0.0,0.0,0.0,0.0,0.0,0.0,0.0,0.0,0.0,0.0,-1.695,-1.7533,-1.7653,-1.7636,-1.7728,0.0,0.0,0.0,0.0,0.0,0.0,0.0,0.0,0.0,0.0,0.0,-1.7004,-1.6434,-1.6166,-1.6449,-1.6395,-1.6193,-1.5885,-1.5756,-1.5324,-1.4425,-1.5123,-1.5412,0.0,0.0,0.0,0.0,0.0,0.0,0.0,0.0,0.0,0.0,0.0,0.0,0.0,0.0,0.0,0.0,0.0,0.0,0.0,0.0,0.0,0.0,0.0,0.0,0.0,0.0,0.0,0.0,0.0,0.0,0.0,0.0,-1.1841,-1.4762,0.0,0.0,0.0,0.0,0.0,0.0,0.0,0.0,0.0,0.0,0.0,0.0,0.0,-1.9398,-1.9308,-1.8865,-1.8938,-1.9494,-1.9051,-1.9136,-1.9708,-1.9708,-1.9638,-1.955,-1.9464,0.0,-1.7827,-1.7464,0.0,0.0,0.0,0.0,0.0,0.0,0.0,0.0,0.0,0.0,0.0,0.0,0.0,0.0,0.0,0.0,0.0,0.0,0.0,0.0,0.0,0.0,-1.8201,-1.8666,-1.8818,-1.9004,-1.9451,-1.8735,-1.7987,-1.7988,-1.8476,-1.8885,0.0,0.0,0.0,0.0,0.0,0.0,-1.662,-1.6376,-1.6493,-1.709,-1.6741,-1.6451,-1.6409,-1.5969,-1.563,-1.5512,-1.5185,-1.5185,-1.5567,-1.5731,0.0,0.0,0.0,0.0,0.0,0.0,0.0,0.0,0.0,0.0,0.0,0.0,0.0,0.0,0.0,0.0,0.0,0.0,0.0,0.0,0.0,0.0,0.0,0.0,0.0,0.0,0.0,0.0,0.0,-1.3319,-1.4143,-1.5887,-1.6222,-1.6365,0.0,0.0,0.0,0.0,0.0,0.0,0.0,0.0,0.0,-1.8486,-1.9268,-1.9367,-1.864,-1.9423,-1.9779,-1.971,-2.0183,-2.0543,-2.0812,-2.044,-2.0262,-2.0239,-1.9592,-1.9006,-1.8501,-1.8214,-1.7751,-1.7208,0.0,0.0,0.0,0.0,-1.7887,-1.854,-1.7985,-1.7654,-1.7451,-1.74,0.0,0.0,0.0,0.0,0.0,0.0,0.0,-1.7206,-1.8117,-1.8828,-1.9347,-1.9519,-1.9602,-1.9612,-1.9425,-1.9248,-1.9003,-1.8713,-1.8795,-1.8789,-1.8498,-1.8456,0.0,0.0,0.0,-1.6599,-1.6515,-1.6394,-1.6446,-1.6814,-1.6633,-1.65,-1.65,-1.6274,-1.5965,-1.5561,-1.569,-1.5723,-1.5549,-1.5928,-1.6249,0.0,0.0,0.0,0.0,0.0,0.0,0.0,0.0,0.0,0.0,0.0,0.0,0.0,0.0,0.0,0.0,0.0,0.0,0.0,0.0,0.0,0.0,0.0,0.0,0.0,0.0,0.0,0.0,-1.4135,-1.6051,-1.6698,-1.6443,-1.6293,0.0,0.0,0.0,0.0,0.0,0.0,-1.6892,-1.8243,-1.8912,-1.8735,-1.9693,-1.9668,-1.8555,-2.015,-2.0789,-2.0474,-2.148,-2.1943,-2.1949,-2.1431,-2.1041,-2.0679,-1.9825,-1.9287,-1.8988,-1.8799,-1.8189,-1.739,-1.7633,-1.8314,-1.9049,-1.8285,-1.8618,-1.9342,-1.8798,-1.8618,-1.8543,-1.8129,-1.8042,-1.7951,-1.7342,0.0,0.0,0.0,0.0,-1.8568,-1.9548,-2.0412,-2.1045,-2.096,-2.0852,-2.0615,-2.0082,-1.991,-1.976,-1.937,-1.9343,-1.9178,-1.8639,-1.8334,0.0,-1.7206,-1.6671,-1.6334,-1.6304,-1.6337,-1.6396,-1.6493,-1.65,-1.65,-1.65,-1.65,-1.6278,-1.572,-1.6194,-1.6244,-1.5707,-1.6207,-1.65,-1.65,0.0,0.0,0.0,0.0,0.0,0.0,0.0,0.0,0.0,0.0,0.0,0.0,0.0,0.0,0.0,0.0,0.0,0.0,0.0,0.0,0.0,0.0,0.0,0.0,0.0,0.0,0.0,0.0,0.0,-1.5754,-1.529,0.0,0.0,0.0,0.0,-1.4791,-1.6177,-1.6843,-1.6362,-1.8557,-1.9512,-1.8817,-2.0607,-2.1252,-2.0559,-2.1281,-2.1949,-2.2542,-2.2607,-2.2646,-2.2653,-2.2608,-2.1937,-2.0777,-2.0728,-2.0059,-1.8969,-1.8464,-1.8187,-1.8199,-1.8705,-1.926,-1.9758,-1.9711,-2.0054,-2.0444,-1.9902,-1.9723,-1.9723,-1.9698,-1.977,-1.9763,-1.9142,-1.9417,0.0,0.0,-2.0369,-2.1028,-2.153,-2.262,-2.3607,-2.3521,-2.3028,-2.2567,-2.2517,-2.1092,-1.9831,-1.9839,-2.0274,-2.0454,-1.9901,0.0,-1.7832,-1.6719,-1.6514,-1.6309,-1.5795,-1.6189,-1.6484,-1.6488,-1.65,-1.65,-1.65,-1.65,-1.6488,-1.645,-1.6475,-1.6475,-1.645,-1.6475,-1.65,-1.65,-1.65,0.0,0.0,0.0,0.0,0.0,0.0,0.0,0.0,0.0,0.0,0.0,0.0,0.0,0.0,0.0,0.0,0.0,0.0,0.0,0.0,0.0,0.0,0.0,0.0,0.0,0.0,0.0,0.0,-1.6021,-1.5915,0.0,-1.6673,-1.6793,-1.6537,-1.5798,-1.7017,-1.7722,-1.7526,-1.898,-1.971,-1.9453,-2.0926,-2.1406,-2.0776,-2.2204,-2.2835,-2.2688,-2.2688,-2.2694,-2.2672,-2.1846,-2.1224,-2.0771,-2.0346,-1.9915,-1.951,-1.9309,-1.8832,-1.8254,-1.8795,-1.9321,-1.9851,-2.0254,-2.071,-2.1148,-2.0972,-2.0679,-2.0264,-1.9509,-1.9357,-1.9373,-1.9161,-1.9275,-1.9602,-2.0311,-2.077,-2.1325,-2.2622,-2.3953,-2.4745,-2.3897,-2.353,-2.2983,-2.1758,-2.1245,-2.1033,-2.1057,-2.0543,-1.995,-1.9362,-1.8957,-1.8319,-1.7201,-1.705,-1.6867,-1.6279,-1.6384,-1.65,-1.65,-1.65,-1.65,-1.65,-1.6037,-1.5726,-1.5726,-1.5249,-1.5193,-1.5704,-1.584,-1.6095,-1.65,-1.65,-1.65,0.0,0.0,0.0,0.0,0.0,0.0,0.0,0.0,0.0,0.0,0.0,0.0,0.0,0.0,0.0,0.0,0.0,0.0,0.0,0.0,0.0,0.0,0.0,0.0,0.0,-1.5379,-1.5525,-1.6462,-1.6542,-1.6701,-1.713,-1.7395,-1.7303,-1.6718,-1.7627,-1.827,-1.8465,-1.9553,-2.0165,-2.0143,-2.1581,-2.2039,-2.1456,-2.2878,-2.3312,-2.2694,-2.2694,-2.2466,-2.2035,-2.1175,-2.0671,-2.0434,-2.0003,-1.9798,-1.9798,-1.9798,-1.9384,-1.8819,-1.9534,-2.0175,-2.0715,-2.1292,-2.1732,-2.202,-2.1832,-2.1307,-2.0592,-2.0055,-1.9785,-1.9714,-1.9909,-1.9978,-2.022,-2.1419,-2.2004,-2.2625,-2.4177,-2.5417,-2.6002,-2.491,-2.4289,-2.3497,-2.1792,-2.1381,-2.1365,-2.1393,-2.0867,-2.039,-2.0215,-1.9369,-1.8611,-1.8236,-1.7727,-1.732,-1.71,-1.6964,-1.6835,-1.6817,-1.6616,-1.65,-1.65,-1.5816,-1.5372,-1.5304,-1.4857,-1.4846,-1.5372,-1.5718,-1.6095,-1.65,-1.65,-1.65,-1.65,0.0,0.0,0.0,0.0,0.0,0.0,0.0,0.0,0.0,0.0,0.0,0.0,0.0,0.0,0.0,0.0,0.0,0.0,0.0,0.0,0.0,0.0,0.0,-1.573,-1.5519,-1.5739,-1.6961,-1.7063,-1.7094,-1.7312,-1.7748,-1.7871,-1.7471,-1.794,-1.8493,-1.9045,-2.0224,-2.0879,-2.0885,-2.2634,-2.329,-2.2737,-2.329,-2.329,-2.2694,-2.2649,-2.1988,-2.0795,-2.0771,-2.0396,-1.9798,-1.9798,-1.9798,-1.9798,-1.9798,-1.9811,-1.9936,-2.1054,-2.182,-2.2347,-2.2895,-2.3095,-2.2995,-2.2431,-2.1556,-2.0786,-2.1394,-2.1233,-2.0932,-2.1524,-2.1728,-2.199,-2.3257,-2.4137,-2.4986,-2.6153,-2.7034,-2.7408,-2.6613,-2.5438,-2.4146,-2.2884,-2.1611,-2.0767,-2.0816,-2.1283,-2.1866,-2.2505,-2.0206,-1.8626,-1.9697,-1.8472,0.0,-1.814,-1.7867,-1.7556,-1.7424,-1.6882,-1.6525,-1.6525,-1.5954,-1.5509,-1.5326,-1.5463,-1.5565,-1.561,-1.6173,-1.6466,-1.65,-1.65,-1.65,-1.65,0.0,0.0,0.0,0.0,0.0,0.0,0.0,0.0,0.0,0.0,0.0,0.0,0.0,0.0,0.0,0.0,0.0,0.0,0.0,0.0,0.0,-1.4725,-1.4922,-1.6011,-1.5723,-1.5869,-1.7158,-1.729,-1.7456,-1.7905,-1.8418,-1.8688,-1.8581,-1.907,-1.9851,-2.0963,-2.0906,-2.1477,-2.2846,-2.2922,-2.3107,-2.3418,-2.3107,-2.2852,-2.2694,-2.1752,-2.1126,-2.0771,-2.0295,-1.9978,-1.9798,-1.9798,-1.9798,-1.9798,-1.9798,-2.0049,-2.0528,-2.1245,-2.1581,-2.1832,-2.2757,-2.2844,-2.2397,-2.1443,-2.0943,-2.0718,-2.0893,-2.1134,-2.1429,-2.1593,-2.1898,-2.239,-2.3338,-2.4074,-2.4733,-2.5491,-2.6654,-2.7147,-2.5406,-2.4729,-2.412,-2.275,-2.1864,-2.1368,-2.1378,-2.1198,-2.0987,-2.0767,-2.0388,-1.9768,-1.882,-1.8607,-1.8455,-1.8224,-1.7842,-1.7586,-1.7559,-1.7395,-1.7301,-1.7301,-1.6206,-1.5522,-1.5509,-1.4755,-1.4675,-1.5565,-1.5764,-1.6051,-1.65,-1.65,-1.65,0.0,0.0,0.0,0.0,0.0,0.0,0.0,0.0,0.0,0.0,0.0,0.0,0.0,0.0,0.0,0.0,0.0,0.0,0.0,0.0,0.0,0.0,-1.4574,-1.4758,-1.6697,-1.6283,-1.6267,-1.7591,-1.7928,-1.8191,-1.8494,-1.9258,-1.971,-1.971,-2.0501,-2.1303,-2.2101,-2.2061,-2.2665,-2.4052,-2.3435,-2.3271,-2.3701,-2.3048,-2.2548,-2.2221,-2.1247,-2.0791,-2.0746,-2.0092,-1.9936,-2.0189,-2.0189,-2.0189,-2.0175,-2.0413,-2.0603,-2.0742,0.0,0.0,0.0,0.0,-2.2654,-2.2307,-2.139,-2.1092,-2.1118,-2.1394,-2.1524,-2.1626,-2.1852,-2.2181,-2.2671,-2.3696,-2.4459,-2.5101,-2.571,-2.6496,-2.6672,-2.4792,-2.4394,-2.4039,-2.2667,-2.1945,-2.1575,-2.1576,-2.1179,0.0,-2.0384,-2.0167,-1.9881,-1.9371,-1.9129,-1.897,-1.8882,-1.8662,-1.8403,-1.8086,-1.7946,-1.7782,-1.7609,-1.6586,0.0,0.0,0.0,-1.4903,-1.593,-1.5986,0.0,0.0,0.0,-1.65,-1.65,-1.65,0.0,0.0,-1.6861,-1.6672,0.0,0.0,0.0,0.0,0.0,0.0,0.0,0.0,0.0,0.0,0.0,0.0,0.0,0.0,0.0,0.0,-1.4753,-1.4793,-1.7424,-1.7141,-1.7123,-1.8345,-1.8882,-1.9208,-1.9271,-2.0188,-2.0779,-2.0779,-2.1835,-2.2538,-2.2604,-2.3304,0.0,0.0,0.0,-2.371,-2.3698,-2.2998,-2.2314,-2.1602,-2.1103,-2.0849,-2.0767,-2.0225,-2.0275,-2.0779,-2.0779,-2.0779,-2.0817,-2.1245,-2.1131,-2.0742,-2.1378,-2.1926,-2.2403,-2.2418,-2.2506,-2.2512,-2.1855,0.0,0.0,-2.233,-2.2075,-2.1633,-2.2319,-2.2642,-2.3044,-2.4267,-2.5147,-2.5827,-2.6246,-2.6457,-2.6122,-2.4538,-2.4234,-2.3932,-2.2597,-2.1882,-2.1511,-2.1498,-2.1078,-2.0698,-2.0788,-1.9911,-1.9532,-2.0531,-1.9772,-1.9259,-1.9748,-1.98,-1.9524,-1.8807,-1.8461,0.0,-1.7644,-1.6923,-1.6264,-1.5732,-1.5528,-1.576,-1.6466,-1.65,-1.65,-1.65,-1.65,-1.65,-1.65,-1.65,-1.65,-1.65,-1.65,-1.65,0.0,0.0,0.0,0.0,0.0,0.0,0.0,0.0,0.0,0.0,0.0,0.0,0.0,0.0,0.0,-1.4712,-1.5189,-1.5919,-1.7024,-1.8195,-1.9272,-2.0122,-2.0314,-2.0553,-2.0966,-2.1232,-2.1358,-2.1358,-2.1626,-2.2023,-2.2578,-2.3304,-2.3955,-2.4527,-2.4397,-2.4108,-2.3612,-2.2849,-2.2166,-2.1589,-2.1438,0.0,-2.1358,-2.1204,-2.1217,-2.1358,-2.1358,-2.1358,-2.1333,-2.0993,-2.0792,-2.0795,-2.1843,-2.2295,-2.2418,-2.2527,-2.2572,-2.2506,-2.1887,-2.1347,-2.1125,-2.2128,-2.2027,-2.1696,-2.2871,-2.3553,0.0,-2.5125,-2.5854,-2.6205,-2.5727,-2.6041,-2.5973,-2.3842,-2.3826,-2.3932,-2.2597,-2.1882,-2.1385,-2.0953,-2.0397,-2.0156,-2.0625,-2.0553,-2.0355,-2.0029,-1.9787,-1.9685,-1.9786,-1.98,-1.9581,-1.8992,-1.8745,-1.8331,-1.7673,-1.6866,-1.6383,-1.634,-1.6303,-1.6346,-1.6488,-1.65,-1.65,-1.65,-1.65,-1.65,-1.65,-1.65,-1.65,-1.65,-1.65,-1.65,0.0,0.0,0.0,0.0,0.0,0.0,0.0,0.0,0.0,0.0,0.0,-1.5466,-1.5538,0.0,-1.4882,-1.5038,-1.5552,-1.6258,-1.718,-1.8383,-1.9429,-2.0146,-2.0515,-2.0691,-2.0639,-2.1154,-2.1493,-2.1493,-2.2417,-2.3105,-2.3423,-2.3826,-2.4339,-2.4928,-2.4291,-2.3802,-2.3501,-2.2777,-2.224,-2.1953,-2.1648,-2.1631,-2.1882,-2.133,-2.1257,-2.1493,-2.1493,-2.1493,-2.1493,-2.1493,-2.1493,-2.1617,-2.2895,-2.3232,-2.3014,-2.3094,-2.3138,-2.3005,-2.2037,-2.1483,-2.1325,-2.2141,-2.2174,-2.2138,-2.3433,-2.4326,-2.5037,-2.5804,-2.6538,-2.68,-2.5701,-2.5673,-2.5481,-2.356,-2.3208,-2.3132,-2.2446,-2.1656,-2.1106,-2.1106,-2.0654,-2.044,-2.1006,-2.1124,-2.095,-2.0328,-1.9987,-1.9798,-1.9798,-1.98,-1.9711,-1.943,-1.8835,-1.8219,-1.765,-1.6888,-1.6456,-1.6491,-1.65,-1.65,-1.65,-1.65,-1.65,-1.65,-1.65,-1.65,-1.65,-1.65,-1.65,-1.65,-1.65,-1.65,0.0,0.0,0.0,0.0,0.0,0.0,0.0,0.0,-1.6481,-1.6931,-1.6404,-1.601,-1.6576,-1.595,-1.5466,-1.5804,-1.6054,-1.6607,-1.7648,-1.8556,-1.9271,-1.9734,-2.0339,-2.0553,-2.0162,-2.1054,-2.1644,-2.1644,-2.3168,-2.4063,-2.3919,-2.4217,-2.4518,-2.4789,-2.3987,-2.346,-2.3186,-2.2735,-2.2454,-2.2309,-2.197,-2.2046,-2.2447,-2.1556,-2.1393,-2.1807,-2.1807,-2.1744,-2.1681,-2.2133,-2.2246,-2.2261,-2.366,-2.393,-2.3582,-2.3782,-2.377,-2.3492,-2.2404,-2.1907,-2.1852,-2.2403,-2.2457,-2.2555,-2.389,-2.4823,-2.5536,-2.6283,-2.693,-2.7086,-2.5755,-2.5287,-2.4838,-2.3442,-2.2769,-2.241,-2.2196,-2.1455,-2.0955,-2.1295,-2.0993,-2.0893,-2.1543,-2.1556,-2.1343,-2.0918,-2.0453,-2.0087,-1.9987,-1.9962,-1.9889,-1.9666,-1.8862,-1.814,-1.7614,-1.6895,-1.65,-1.65,-1.65,-1.65,-1.65,-1.65,-1.65,-1.65,-1.65,-1.655,-1.6663,-1.655,-1.66,-1.6826,-1.6713,-1.66,-1.3358,-1.4049,-1.4909,-1.4959,-1.6484,-1.7822,0.0,-1.7981,-1.8209,-1.671,-1.6965,-1.6979,-1.5424,-1.5765,-1.6282,-1.6398,-1.6976,-1.7675,-1.8463,-1.9656,-2.0323,-1.9861,-2.0339,-2.0855,-2.1255,-2.1857,-2.2221,-2.2221,-2.2956,-2.3163,-2.2571,-2.3713,-2.3864,-2.2674,-2.3668,-2.3613,-2.2425,-2.2812,-2.2795,-2.2322,-2.2719,-2.2957,-2.3007,-2.2882,-2.2857,-2.292,-2.292,-2.2644,-2.2221,-2.2284,-2.202,-2.1703,-2.3018,-2.3481,-2.3512,-2.4171,-2.3981,-2.3411,-2.3265,-2.2827,-2.2417,-2.3022,-2.2794,-2.2555,-2.389,-2.4823,-2.5536,-2.6283,-2.6563,-2.6416,-2.5618,-2.4894,-2.4192,-2.3305,-2.3058,-2.2744,-2.1794,-2.1509,-2.1295,-2.0867,-2.0729,-2.1018,-2.2046,-2.1807,-2.1496,-2.1405,-2.1343,-2.1157,-2.0654,-2.0591,-2.0201,-1.9208,-1.897,-1.8518,-1.7498,-1.6861,-1.65,-1.65,-1.65,-1.65,-1.65,-1.65,-1.65,-1.65,-1.65,-1.6773,-1.731,-1.6773,-1.7014,-1.8003,-1.7513,-1.7011,-1.5021,-1.5015,-1.5123,-1.6103,-1.7044,-1.7843,-1.8239,-1.8287,-1.8215,-1.8132,-1.7666,-1.7071,-1.6357,-1.6236,-1.6293,-1.6477,-1.7118,-1.7841,-1.8608,-1.9284,-1.9623,-1.9359,-1.956,-1.9924,-2.0451,-2.1317,-2.1832,-2.1832,-2.2671,-2.3068,-2.2786,-2.3335,-2.3364,-2.2786,-2.3297,-2.334,-2.2757,-2.2995,-2.2995,-2.2769,-2.2995,-2.3108,-2.3095,-2.2782,-2.2631,-2.2631,-2.2631,-2.2681,-2.2757,-2.2757,-2.2631,-2.2518,-2.3532,-2.3652,-2.3328,-2.4133,-2.3993,-2.3339,-2.2951,-2.239,-2.1973,-2.2524,-2.2528,-2.2555,-2.389,-2.4823,-2.5453,-2.5755,-2.6176,-2.6229,-2.5063,-2.4538,-2.4089,-2.3305,-2.2857,-2.2493,-2.2071,-2.1719,-2.1546,-2.1606,-2.1619,-2.187,-2.2631,-2.2569,-2.2447,-2.2447,-2.1631,-2.0955,-2.0729,-2.0402,-2.0001,-1.9508,-1.947,-1.8938,-1.7617,-1.7219,-1.6873,-1.6513,-1.65,-1.65,-1.65,-1.65,-1.65,-1.65,-1.6426,-1.672,-1.741,-1.7025,-1.7307,-1.8168,-1.7528,-1.7096,-1.5615,-1.558,-1.5676,-1.7058,-1.7737,-1.8207,-1.8796,-1.864,-1.8432,-1.8585,-1.7865,-1.715,-1.6947,-1.6627,-1.6546,-1.6923,-1.7501,-1.8167,-1.89,-1.9017,-1.9058,-1.9196,-1.8958,-1.9033,-1.9736,-2.069,-2.1358,-2.1481,-2.2372,-2.2945,-2.3095,-2.3108,-2.3108,-2.3108,-2.3108,-2.3108,-2.3108,-2.3258,-2.3258,-2.3108,-2.3271,-2.3258,-2.3095,-2.2694,-2.2506,-2.2506,-2.2506,-2.2732,-2.3108,-2.3108,-2.3108,-2.3168,-2.3738,-2.3722,-2.3435,-2.4057,-2.3877,-2.3269,-2.2769,-2.2316,-2.2008,-2.238,-2.2506,-2.2724,-2.3874,-2.472,-2.5308,-2.5308,-2.5702,-2.5827,-2.4607,-2.4147,-2.3826,-2.3245,-2.2794,-2.2468,-2.2347,-2.1995,-2.1832,-2.2234,-2.2309,-2.2456,-2.3007,-2.3108,-2.3058,-2.2895,-2.1757,-2.0918,-2.0918,-2.025,-1.98,-1.9799,-1.981,-1.9313,-1.8095,-1.7472,-1.695,-1.6507,-1.6324,-1.6238,-1.6238,-1.6402,-1.6423,-1.6259,-1.6478,-1.6853,-1.7382,-1.7387,-1.7727,-1.8314,-1.7652,-1.7293,-1.415,-1.5299,-1.6588,-1.7247,-1.8568,-1.9543,-1.8876,-1.9448,-1.9442,-1.707,-1.7214,-1.7431,-1.6346,-1.6687,-1.7408,-1.8132,-1.8474,-1.8927,-1.9669,-1.9321,-1.9196,-1.971,-1.8857,-1.8643,-1.9698,-2.0365,-2.0943,-2.1443,-2.202,-2.2543,-2.3083,-2.3108,-2.3108,-2.3108,-2.3108,-2.3108,-2.3108,-2.369,-2.369,-2.3108,-2.3703,-2.3678,-2.3108,-2.3083,-2.3083,-2.3083,-2.3083,-2.3083,-2.3108,-2.3108,-2.3108,-2.3108,-2.3138,-2.3477,-2.3966,-2.4016,-2.362,-2.31,-2.3088,-2.3088,-2.3058,-2.307,-2.3083,-2.3183,-2.3822,-2.4515,-2.5094,-2.5094,-2.5123,-2.5021,-2.4437,-2.3708,-2.3138,-2.3108,-2.3095,-2.2932,-2.2393,-2.2297,-2.2297,-2.2309,-2.2309,-2.2456,-2.3007,-2.3108,-2.292,-2.2393,-2.1845,-2.1496,-2.1496,-2.0489,-1.9798,-1.9811,-1.9813,-1.9582,-1.9007,-1.7398,-1.643,-1.6406,-1.5906,-1.5632,-1.5632,-1.6194,-1.6216,-1.5632,-1.6771,-1.735,-1.7303,-1.7881,-1.8351,-1.8682,-1.813,-1.7763,-1.4563,-1.5688,-1.6779,-1.797,-1.877,-1.9356,-1.9729,-1.9365,-1.8587,-1.7344,-1.662,-1.5909,-1.494,-1.533,-1.6094,-1.6912,-1.7682,-1.8447,-1.9183,-1.9108,-1.8933,-1.8769,-1.8719,-1.887,-1.9221,-1.9773,-2.0476,-2.1418,-2.1995,-2.2518,-2.307,-2.3471,-2.3703,-2.3703,-2.4036,-2.4224,-2.4224,-2.4412,-2.4412,-2.4224,-2.4079,-2.3891,-2.3703,-2.3703,-2.3703,-2.3728,-2.4061,-2.401,-2.371,-2.4073,-2.401,-2.3703,-2.3703,-2.4054,-2.4506,-2.413,-2.4104,-2.4173,-2.381,-2.3941,-2.4161,-2.3797,-2.3954,-2.4261,-2.4462,-2.5062,-2.552,-2.5044,-2.5236,-2.5389,-2.4381,-2.3887,-2.3615,-2.3195,-2.3108,-2.3058,-2.2869,-2.2832,-2.2832,-2.2832,-2.2832,-2.2895,-2.307,-2.3108,-2.3045,-2.2857,-2.2071,-2.1217,-2.0464,-2.0041,-1.9814,-1.9798,-1.9787,-1.9472,-1.8682,-1.7853,-1.7021,-1.6189,-1.6431,-1.6598,-1.6598,-1.7256,-1.7314,-1.6598,-1.6851,-1.7227,-1.7705,-1.7284,-1.763,-1.8676,-1.7519,-1.6927,-1.4692,-1.5787,-1.6884,-1.802,-1.8578,-1.8905,-1.9246,-1.8637,-1.7698,-1.6686,-1.5805,-1.5027,-1.4563,-1.5018,-1.5676,-1.6261,-1.7298,-1.8166,-1.8658,-1.8707,-1.8819,-1.9058,-1.9045,-1.9233,-1.9849,-2.0024,-2.0489,-2.1418,-2.1995,-2.2619,-2.3371,-2.3803,-2.4092,-2.4293,-2.4612,-2.4788,-2.4788,-2.5008,-2.5096,-2.5096,-2.4556,-2.4293,-2.4293,-2.4293,-2.4293,-2.4318,-2.4637,-2.4587,-2.4318,-2.4669,-2.4587,-2.4293,-2.4293,-2.4619,-2.5059,-2.4707,-2.4921,-2.5297,-2.4556,-2.4519,-2.4725,-2.4406,-2.4531,-2.4825,-2.5046,-2.5415,-2.571,-2.5214,-2.5415,-2.555,-2.4545,-2.4293,-2.4155,-2.3547,-2.3409,-2.3358,-2.3145,-2.3108,-2.3108,-2.3108,-2.3108,-2.3108,-2.3108,-2.2945,-2.2807,-2.2807,-2.2234,-2.1528,-2.0789,-2.0415,-2.0264,-2.0405,-1.9986,-1.9464,-1.8881,-1.7806,-1.6959,-1.6391,-1.6619,-1.6789,-1.6789,-1.7424,-1.7351,-1.6391,-1.6647,-1.692,-1.717,-1.6989,-1.7246,-1.7907,-1.695,-1.635,-1.4479,-1.562,-1.6937,-1.745,-1.8014,-1.8264,-1.753,-1.7334,-1.6827,-1.5089,-1.4735,-1.477,0.0,-1.5597,-1.6128,-1.6244,-1.7359,-1.8204,-1.8204,-1.8279,-1.8894,-2.0412,-1.9722,-1.9747,-2.1274,-2.1041,-2.0993,-2.1493,-2.202,-2.2786,-2.3891,-2.4004,-2.428,-2.4775,-2.4838,-2.4876,-2.4876,-2.5398,-2.5636,-2.5636,-2.5109,-2.4825,-2.4825,-2.4825,-2.4825,-2.4825,-2.4863,-2.4863,-2.4825,-2.4863,-2.4863,-2.4825,-2.4825,-2.5184,-2.5636,-2.5598,-2.5996,-2.6348,-2.5272,-2.4876,-2.4863,-2.4838,-2.485,-2.4996,-2.5485,-2.5636,-2.5636,-2.5636,-2.5636,-2.5523,-2.4996,-2.4825,-2.4687,-2.4142,-2.4004,-2.3841,-2.3233,-2.3108,-2.3108,-2.3108,-2.3108,-2.3108,-2.3108,-2.2669,-2.2347,-2.2347,-2.2347,-2.233,-2.2283,-2.1523,-2.1094,-2.1408,-2.0294,-1.9519,-1.9428,-1.7302,-1.6235,-1.687,-1.6487,-1.6204,-1.6204,-1.6796,-1.6521,-1.5206,-1.6232,-1.6514,-1.5921,-1.6989,-1.7146,-1.6492,-1.6454,-1.6065,-1.4586,-1.5733,-1.6908,-1.7348,-1.7636,-1.7656,-1.7027,-1.6564,-1.5821,-1.4162,-1.3584,-1.3422,-1.3588,-1.4176,-1.4925,-1.58,-1.7206,-1.8204,-1.8204,-1.9296,-1.9815,-1.9209,0.0,-2.0797,-2.0547,-2.1366,-2.1945,-2.2096,-2.2234,-2.2594,-2.3283,-2.4123,-2.4669,-2.4788,-2.5611,-2.6084,-2.6084,-2.621,-2.6273,-2.6273,-2.5674,-2.5398,-2.5398,-2.5398,-2.5398,-2.5423,-2.585,-2.5799,-2.5435,-2.5862,-2.5787,-2.5398,-2.5398,-2.5737,-2.6223,-2.5749,-2.5996,-2.6449,-2.6172,-2.6084,-2.5996,-2.5536,-2.5686,-2.6097,-2.6235,-2.6273,-2.6273,-2.6273,-2.6273,-2.6147,-2.5548,-2.5398,-2.5159,-2.4217,-2.4004,-2.3841,-2.3233,-2.3108,-2.3108,-2.3108,-2.3108,-2.3108,-2.3108,-2.2995,-2.2895,-2.2895,-2.2895,-2.2611,-2.1804,-2.1829,-2.1605,-2.0683,-2.0258,-1.9249,-1.7318,-1.6962,-1.6562,-1.5837,-1.62,-1.6414,-1.6414,-1.7102,-1.7036,-1.6175,-1.6447,-1.65,-1.636,-1.6079,-1.614,-1.6492,-1.595,-1.5584,-1.4749,-1.5632,-1.6489,-1.6525,-1.6457,-1.6279,-1.5955,-1.5198,-1.4383,-1.3641,-1.3027,-1.2758,-1.3309,-1.3925,-1.4583,0.0,0.0,0.0,-1.7802,-1.8573,-1.9176,0.0,-2.0318,0.0,-2.0938,-2.1989,-2.2644,-2.2644,-2.2644,-2.2895,-2.3446,-2.4311,-2.4888,-2.5159,-2.6034,-2.6499,-2.6499,-2.6499,-2.6499,-2.6499,-2.6172,-2.5871,-2.5598,-2.585,-2.5837,-2.5624,-2.6248,-2.6311,-2.6034,-2.6361,-2.6298,-2.5975,-2.5975,-2.621,-2.6449,-2.6135,-2.6223,-2.6499,-2.6499,-2.6499,-2.6436,-2.6122,-2.6223,-2.6499,-2.6499,-2.6499,-2.6499,-2.6499,-2.6499,-2.6411,-2.6097,-2.5975,-2.5795,-2.4908,-2.4695,-2.4544,-2.396,-2.3847,-2.3667,-2.3034,-2.3213,-2.3304,-2.2678,-2.3095,-2.3396,-2.3145,-2.3328,-2.3032,-2.1844,-2.1952,-2.1825,-2.107,-2.0106,-1.8825,-1.7204,-1.685,-1.6487,-1.5918,-1.6288,-1.6492,-1.6492,-1.6894,-1.6782,-1.6036,-1.6007,-1.6007,-1.6007,-1.5613,-1.5604,-1.6007,-1.5584,-1.541,-1.5039,-1.5566,-1.6075,-1.5605,-1.5176,-1.4852,-1.4676,-1.3786,-1.3062,-1.3291,-1.2769,-1.2599,-1.3611,-1.4182,-1.4575,-1.4855,0.0,-1.6538,-1.7252,-1.7316,-1.796,-1.9829,-2.0369,-2.0938,-2.1825,-2.2628,-2.3108,-2.3108,-2.3108,-2.3321,-2.3853,-2.4481,-2.5096,-2.5686,-2.6235,-2.6499,-2.6499,-2.6499,-2.6499,-2.6499,-2.6499,-2.6235,-2.5724,-2.6185,-2.6147,-2.5737,-2.6197,-2.6424,-2.6499,-2.6499,-2.6499,-2.6499,-2.6499,-2.6499,-2.6499,-2.6499,-2.6499,-2.6499,-2.6499,-2.6499,-2.6499,-2.6499,-2.6499,-2.6499,-2.6499,-2.6549,-2.66,-2.66,-2.6663,-2.6713,-2.6713,-2.6663,-2.6461,-2.585,-2.5649,-2.5448,-2.4933,-2.4691,-2.4238,-2.3014,-2.3296,-2.3327,-2.2123,-2.3006,-2.3717,-2.3206,-2.3561,-2.3473,-2.2258,-2.1969,-2.1808,-2.158,-1.9841,-1.8469,-1.7874,-1.6888,-1.6297,-1.636,-1.6407,-1.6418,-1.635,-1.634,-1.6065,-1.541,-1.541,-1.541,-1.541,-1.541,-1.541,-1.541,-1.541,-1.541,-1.5791,-1.6221,-1.6514,-1.6095,-1.5625,-1.5029,-1.3975,-1.3555,0.0,-1.2564,-1.2617,-1.299,-1.3663,-1.3568,-1.3827,-1.5222,-1.5308,-1.5625,-1.6967,-1.7784,-1.851,0.0,-2.0677,-2.1706,-2.1896,-2.2628,-2.3108,-2.3108,-2.3108,-2.3145,-2.3246,-2.4224,-2.5272,-2.6311,-2.6449,-2.6499,-2.6499,-2.6499,-2.6499,-2.6499,-2.6499,-2.6449,-2.6336,-2.5946,-2.5984,-2.6323,-2.5946,-2.6047,-2.6499,-2.6499,-2.6499,-2.6499,-2.6499,-2.6499,-2.6499,-2.6499,-2.6499,-2.6499,-2.6499,-2.6499,-2.6499,-2.6499,-2.6499,-2.6499,-2.6499,-2.6813,-2.7178,-2.7178,-2.7469,-2.7821,-2.7821,-2.7482,-2.704,-2.6474,-2.5971,-2.5448,-2.4933,-2.4153,-2.3499,-2.3238,-2.2669,-2.2206,-2.1926,-2.276,-2.34,-2.3268,-2.3349,-2.3331,-2.309,-2.2388,-2.136,-1.9904,-1.9395,-1.8566,-1.707,-1.7074,-1.6729,-1.5674,-1.5955,-1.6003,-1.5613,-1.5584,-1.5526,-1.541,-1.541,-1.541,-1.541,-1.541,-1.541,-1.541,-1.541,-1.541,-1.6036,-1.6553,-1.6914,-1.6261,-1.5606,-1.4863,-1.3997,0.0,0.0,-1.2607,-1.2559,-1.2703,-1.3222,-1.339,0.0,-1.4528,-1.4553,-1.5006,-1.6418,-1.6688,-1.7155,-1.8281,-1.9884,-2.0969,-2.1204,-2.2372,-2.3108,-2.3108,-2.3108,-2.3108,-2.3108,-2.4173,-2.5184,-2.6021,-2.6336,-2.6499,-2.6499,-2.6499,-2.6499,-2.6499,-2.6499,-2.6336,-2.6047,-2.6072,-2.5921,-2.5624,-2.5946,-2.6059,-2.6072,-2.6373,-2.6499,-2.6499,-2.6499,-2.6499,-2.6499,-2.6499,-2.6499,-2.6499,-2.6499,-2.6688,-2.6927,-2.6927,-2.6927,-2.6927,-2.6927,-2.7102,-2.7218,-2.6964,-2.7291,-2.7562,-2.6944,-2.7062,-2.7099,-2.6234,-2.6047,-2.584,-2.5059,-2.4542,-2.3804,-2.2554,-2.2323,-2.2064,-2.1351,-2.2637,-2.368,-2.3334,-2.3559,-2.3478,-2.2731,-2.1582,-2.052,-1.9705,-1.9206,-1.8411,-1.7176,-1.7272,-1.6948,-1.5838,-1.5989,-1.5881,-1.543,-1.541,-1.541,-1.541,-1.541,-1.541,-1.541,-1.541,-1.541,-1.541,-1.541,-1.541,-1.6065,-1.6741,-1.723,-1.6437,-1.5557,-1.4756,-1.4114,-1.3129,0.0,-1.2686,-1.2549,-1.2447,-1.2837,-1.3205,-1.3523,0.0,-1.3733,-1.4191,-1.5607,-1.5436,-1.5853,0.0,-1.9049,0.0,-2.0812,-2.1896,-2.2567,-2.2567,-2.2831,-2.315,-2.3459,-2.4311,-2.5121,-2.5762,-2.626,-2.6383,-2.6164,-2.6383,-2.6383,-2.6164,-2.6383,-2.6248,-2.5787,-2.616,-2.5908,-2.5209,-2.5984,-2.6122,-2.5824,-2.6298,-2.6499,-2.6499,-2.6499,-2.6499,-2.6499,-2.6499,-2.6562,-2.6663,-2.6663,-2.7027,-2.7482,-2.7595,-2.7557,-2.7444,-2.7318,-2.7444,-2.7494,-2.6851,-2.7051,-2.7274,-2.6516,-2.6785,-2.7076,-2.6166,-2.6317,-2.6348,-2.5253,-2.4909,-2.4168,-2.1955,-2.1981,-2.2013,-2.0807,-2.2535,-2.3816,-2.3119,-2.3615,-2.3561,-2.2183,-2.0859,-1.9992,-1.9784,-1.8979,-1.8162,-1.7465,-1.7474,-1.7106,-1.6167,-1.6196,-1.5969,-1.543,-1.541,-1.541,-1.541,-1.541,-1.541,-1.541,-1.541,-1.541,-1.541,-1.541,-1.541,-1.5987,-1.6741,-1.7275,-1.6755,-1.6006,-1.5039,-1.3838,0.0,-1.2725,-1.234,-1.2578,-1.2856,-1.2895,-1.2606,-1.2682,-1.3635,-1.2996,-1.2896,-1.4352,-1.5023,-1.6165,-1.8282,0.0,0.0,-2.1616,-2.1195,-2.0846,-2.0846,-2.2019,-2.3288,-2.4568,-2.4725,-2.531,-2.6386,-2.6461,-2.606,-2.5158,-2.606,-2.6025,-2.5158,-2.606,-2.6461,-2.6399,-2.5921,-2.59,-2.6323,-2.5862,-2.5971,-2.6411,-2.6474,-2.6499,-2.6499,-2.6499,-2.6499,-2.6499,-2.6499,-2.6813,-2.7241,-2.7241,-2.757,-2.8109,-2.8574,-2.8436,-2.7934,-2.7431,-2.7984,-2.8561,-2.7507,-2.7606,-2.8102,-2.851,-2.7933,-2.7286,-2.7171,-2.7208,-2.6808,-2.5325,-2.4634,-2.3827,-2.2247,-2.1621,-2.1194,-2.0681,-2.223,-2.3224,-2.2261,-2.2937,-2.32,-2.2147,-2.1128,-2.0223,-1.9452,-1.857,-1.7891,-1.7428,-1.7711,-1.7422,-1.6183,-1.6456,-1.6281,-1.542,-1.541,-1.541,-1.541,-1.541,-1.541,-1.541,-1.541,-1.541,-1.541,-1.541,-1.541,-1.542,-1.6153,-1.6515,-1.6015,-1.5254,-1.4348,-1.3359,0.0,-1.2441,-1.2242,-1.2578,-1.2905,-1.2905,-1.2744,-1.2771,-1.3184,-1.2665,0.0,-1.3711,-1.4093,-1.4974,-1.6877,-1.7925,-1.9009,-2.0213,-2.0494,-2.0714,-2.0928,-2.2283,-2.3207,-2.3522,-2.4664,-2.5485,-2.5925,-2.5736,-2.5406,-2.5004,-2.5406,-2.5406,-2.5004,-2.6025,-2.6499,-2.6487,-2.6248,-2.6084,-2.5984,-2.6097,-2.6084,-2.5996,-2.6348,-2.6499,-2.6499,-2.6499,-2.6499,-2.6537,-2.6864,-2.6927,-2.6809,-2.6797,-2.6979,-2.7234,-2.7756,-2.8025,-2.8041,-2.7851,-2.8323,-2.8537,-2.6785,-2.6934,-2.7376,-2.6229,-2.612,-2.6457,-2.7124,-2.6852,-2.5985,-2.4441,-2.3449,-2.2562,-2.1377,-2.0966,-2.0781,-2.0635,-2.171,-2.2474,-2.2071,-2.2342,-2.2446,-2.2036,-2.0699,-1.9679,-1.9343,-1.8984,-1.8506,-1.7822,-1.7686,-1.7288,-1.65,-1.6384,-1.6078,-1.543,-1.541,-1.541,-1.541,-1.541,-1.541,-1.541,-1.541,-1.541,-1.541,-1.541,-1.541,-1.4312,-1.4984,-1.5399,-1.5274,-1.465,-1.389,0.0,0.0,-1.2359,-1.2233,-1.2578,-1.2905,-1.2905,-1.2905,-1.2905,-1.2905,-1.2617,-1.2613,-1.3242,-1.3535,-1.4287,-1.5916,-1.6889,-1.7926,-1.9171,-1.9873,-2.0394,-2.0788,-2.2024,-2.2658,-2.2498,-2.4061,-2.4986,-2.4986,-2.4978,-2.4707,-2.412,-2.4707,-2.4862,-2.4564,-2.5873,-2.6499,-2.6499,-2.6499,-2.6273,-2.5908,-2.6311,-2.609,-2.5456,-2.5886,-2.606,-2.606,-2.606,-2.6245,-2.6549,-2.6927,-2.6739,-2.6313,-2.6451,-2.6403,-2.641,-2.7265,-2.7787,-2.8127,-2.8275,-2.85,-2.8257,-2.6375,-2.6329,-2.6393,-2.4698,-2.506,-2.6001,-2.6668,-2.6184,-2.5156,-2.3756,-2.2788,-2.1914,-2.0948,-2.0781,-2.0752,-2.0635,-2.1386,-2.1889,-2.1609,-2.1821,-2.1916,-2.1612,-2.0472,-1.9597,-1.9333,-1.9287,-1.8936,-1.8086,-1.7734,-1.7327,-1.6748,-1.6421,-1.6009,-1.543,-1.541,-1.541,-1.541,-1.541,-1.541,-1.541,-1.541,-1.541,-1.541,-1.541,-1.541,-1.2571,-1.3268,-1.3987,-1.4645,-1.4463,-1.389,0.0,-1.2905,-1.2754,-1.2301,-1.2578,-1.2905,-1.2905,-1.2905,-1.2905,-1.2905,-1.2905,0.0,-1.2905,-1.3578,-1.46,0.0,-1.611,-1.6968,-1.9107,-1.9314,-1.948,-1.9863,-2.0841,-2.1581,-2.1996,-2.2951,-2.3514,-2.3514,-2.448,-2.4036,-2.2027,-2.4,-2.448,-2.3551,-2.5534,-2.6499,-2.6499,-2.6499,-2.6499,-2.6487,-2.6499,-2.5943,-2.5004,-2.5004,-2.5016,-2.5016,-2.5016,-2.5616,-2.6499,-2.6499,-2.6205,-2.5886,-2.6346,-2.6201,-2.604,-2.7587,-2.8084,-2.8199,-2.8722,-2.8523,-2.787,-2.6783,-2.6058,-2.5499,-2.4956,-2.563,-2.6337,-2.5742,-2.5301,-2.4709,-2.3551,-2.2987,-2.2381,-2.1381,-2.1178,-2.1071,-2.0654,-2.1386,-2.1661,-2.0751,-2.1396,-2.1661,-2.0712,-2.0595,-2.0263,-1.9375,-1.9287,-1.8936,-1.8086,-1.8008,-1.7603,-1.6755,-1.6688,-1.629,-1.5449,-1.541,-1.541,-1.541,-1.541,-1.541,-1.541,-1.541,-1.541,-1.541,-1.541,-1.541,-1.1612,-1.2242,-1.2765,-1.2963,-1.2705,-1.225,-1.166,-1.179,-1.1966,-1.1819,-1.2387,-1.2905,-1.2905,-1.2476,-1.2153,-1.2153,-1.2153,-1.2153,0.0,0.0,0.0,-1.5475,-1.6906,-1.8198,-1.9188,-1.9568,-1.9775,-1.9902,-2.1101,-2.159,-2.1078,-2.2601,-2.3514,-2.3514,-2.3147,-2.2627,-2.2,-2.2961,-2.3272,-2.2974,-2.4556,-2.5335,-2.536,-2.5711,-2.5875,-2.5854,-2.5597,-2.53,-2.4933,-2.4264,-2.4373,-2.5004,-2.5004,-2.5616,-2.6587,-2.7306,-2.6611,-2.5359,-2.6207,-2.5243,-2.4054,-2.6282,-2.6806,-2.6765,-2.7996,-2.8242,-2.7693,-2.5876,-2.4629,-2.4036,-2.4628,-2.5083,-2.5386,-2.5551,-2.5007,-2.4226,-2.3484,-2.2696,-2.2078,-2.1762,-2.1694,-2.1548,-2.1074,-2.1243,-2.1278,-2.0702,-2.0858,-2.0927,-2.0654,-2.0096,-1.9627,-1.9316,-1.8769,-1.8311,-1.8037,-1.7742,-1.7484,-1.7209,-1.6618,-1.6175,-1.588,-1.5566,-1.541,-1.541,-1.4874,-1.4835,-1.541,-1.4844,-1.4874,-1.541,-1.541,-1.541,0.0,-1.0935,-1.1324,-1.1634,-1.1641,0.0,-1.0811,-1.127,-1.179,-1.1636,-1.2289,-1.2905,-1.2905,-1.2535,-1.2129,-1.1839,-1.1789,-1.1789,0.0,0.0,0.0,-1.5449,-1.7389,-1.8773,-1.9248,-1.9814,-2.0156,-2.0156,-2.0994,-2.1231,-2.0644,-2.1756,-2.2414,-2.2414,-2.2306,-2.2014,-2.1487,-2.244,-2.2925,-2.2925,-2.4213,-2.4788,-2.48,-2.5159,-2.5211,-2.5062,-2.482,-2.4377,0.0,-2.3588,-2.3854,-2.448,-2.4862,-2.5616,-2.66,-2.7469,-2.6746,-2.5347,-2.5785,-2.5032,-2.4136,-2.5728,-2.6438,-2.6783,-2.7348,-2.7197,-2.6479,-2.467,-2.3627,-2.3256,-2.3963,-2.4168,-2.4224,-2.4597,-2.4106,-2.3484,-2.3288,-2.2514,-2.1938,-2.2109,-2.2016,-2.1801,-2.1514,-2.146,-2.1322,-2.0889,-2.082,-2.0752,-2.0625,-2.0136,-1.9648,-1.9326,-1.8815,-1.8352,-1.8047,-1.7772,-1.7566,-1.7395,-1.6713,-1.6118,-1.568,-1.519,-1.4805,-1.451,-1.3995,-1.4145,-1.4962,-1.4756,-1.4894,-1.541,-1.541,-1.541,0.0,-0.9432,-0.9865,-1.0666,-1.1193,-1.1302,-1.0479,-1.124,0.0,-1.1619,-1.2236,-1.2842,-1.2774,-1.2798,-1.2559,-1.1765,-1.1717,-1.1785,-1.1776,-1.2353,-1.3607,-1.5927,-1.7627,-1.8773,-1.9248,-2.0077,-2.0566,-2.0605,-2.0605,-2.0595,-2.0556,-2.0556,-2.0566,-2.0545,-2.1874,-2.1966,-2.0655,-2.2366,-2.3219,-2.3152,-2.4132,-2.4598,-2.4598,-2.4686,-2.4513,-2.415,-2.4152,-2.3315,-2.2065,-2.2999,-2.3441,-2.3588,-2.46,-2.5616,-2.6562,-2.7165,-2.6661,-2.5629,-2.5206,-2.5329,-2.5636,-2.5761,-2.6783,-2.7804,-2.6719,-2.563,-2.4542,-2.342,-2.3091,-2.3091,-2.3091,-2.3091,-2.3091,-2.3091,-2.2799,-2.2666,-2.3013,-2.2504,-2.2103,-2.2477,-2.2223,-2.1978,-2.1973,-2.1934,-2.1768,-2.1268,-2.119,-2.1034,-2.0664,-2.0576,-2.0253,-1.9414,-1.9288,-1.8933,-1.8061,-1.8008,-1.7833,-1.7474,-1.6911,-1.6104,-1.4978,-1.4408,-1.3756,-1.3009,-1.3009,-1.3342,-1.4025,-1.4872,-1.5244,-1.5244,-1.5273,-1.5293,-0.8044,0.0,-0.969,-1.0291,-1.0528,-1.0547,0.0,-1.0771,-1.113,-1.0881,0.0,0.0,-1.1431,-1.1699,-1.1674,-1.0466,-1.0923,-1.1444,-1.1575,-1.37,-1.5709,-1.6943,-1.7998,-1.8773,-1.9248,-1.9756,-2.0205,-2.0576,-2.0605,-2.0458,-2.0088,-2.0068,-2.0054,-2.0072,-2.1029,-2.1372,-2.1079,-2.2128,-2.2348,-2.1709,-2.2297,-2.2573,-2.2597,-2.3449,-2.3706,-2.3514,-2.3627,-2.3036,-2.2027,-2.2253,-2.2813,-2.3588,-2.46,-2.5616,-2.6612,-2.7557,-2.6492,-2.468,-2.5369,-2.4908,-2.4237,-2.5409,-2.6312,-2.6678,-2.5546,-2.4999,-2.4542,-2.342,-2.3091,-2.3091,-2.3091,-2.3091,-2.3091,-2.3091,-2.3023,-2.2974,-2.3071,-2.293,-2.2843,-2.2935,-2.2862,-2.2707,-2.2432,-2.2363,-2.2109,-2.1307,-2.119,-2.1034,-2.0664,-2.0273,-1.9943,-1.9644,-1.9248,-1.8717,-1.8066,-1.8008,-1.7964,-1.7876,-1.655,-1.564,-1.5378,-1.403,-1.3183,-1.3009,-1.3009,-1.2787,-1.2381,-1.3366,-1.3882,-1.3882,-1.4149,-1.4245,-0.7746,-0.8316,-0.8896,-0.9466,-0.9587,-0.9571,-0.96,0.0,0.0,0.0,0.0,0.0,0.0,0.0,0.0,-1.0389,-1.0892,-1.1584,-1.2164,-1.412,-1.5977,-1.7269,-1.7959,-1.875,-1.9775,-1.9893,-2.0019,-2.0254,-2.0273,-2.0078,-1.9648,-1.9629,-1.9624,-1.9626,-2.0247,-2.0722,-2.0911,-2.1778,-2.1803,-2.0939,-2.1163,-2.1302,-2.1313,-2.1902,-2.2135,-2.208,-2.2158,-2.1871,-2.1403,-2.1811,-2.259,-2.3588,-2.46,-2.5616,-2.6553,-2.6916,-2.6281,-2.523,-2.5154,-2.457,-2.4102,-2.5634,-2.5817,-2.5359,-2.4935,-2.4414,-2.3877,-2.3256,-2.3091,-2.3091,-2.3091,-2.3091,-2.3091,-2.3091,-2.3091,-2.3091,-2.3091,-2.3091,-2.3091,-2.3091,-2.3091,-2.3023,-2.2789,-2.2803,-2.2541,-2.191,-2.1625,-2.1377,-2.0928,-2.0488,-2.0089,-1.9742,-1.9453,-1.8691,-1.7241,-1.7119,-1.7201,-1.7342,-1.5911,-1.4808,-1.432,-1.3219,-1.2399,-1.1911,-1.2391,-1.2429,-1.1989,-1.31,-1.3631,-1.3631,-1.3835,-1.3892,-0.7577,-0.7767,-0.8,-0.8729,-0.8841,-0.8797,-0.8944,0.0,0.0,0.0,0.0,0.0,0.0,-1.0813,0.0,0.0,-1.1244,-1.2148,-1.3483,-1.4554,-1.5781,-1.7383,-1.7891,-1.8701,-2.0263,-2.0039,-1.9873,-2.0,-1.9893,-1.9668,-1.9307,-1.9219,-1.9232,-1.9298,-1.9637,-1.9989,-2.0398,-2.127,-2.127,-2.0398,-2.0398,-2.0398,-2.0398,-2.0475,-2.053,-2.0613,-2.0676,-2.0686,-2.0673,-2.1593,-2.2515,-2.3368,-2.4564,-2.5441,-2.6005,-2.5853,-2.5901,-2.5857,-2.4678,-2.4231,-2.4376,-2.5632,-2.5196,-2.423,-2.4409,-2.3826,-2.3091,-2.3091,-2.3091,-2.3091,-2.3091,-2.3091,-2.3091,-2.3091,-2.3091,-2.3091,-2.3091,-2.3091,-2.3091,-2.3091,-2.3091,-2.3038,-2.2858,-2.2853,-2.2614,-2.2033,-2.1821,-2.1489,-2.0947,-2.078,-2.0469,-1.9913,-1.9455,-1.836,-1.6261,-1.5732,-1.5719,-1.6219,-1.5022,-1.3816,-1.2721,-1.2292,-1.1664,-1.0727,-1.1625,-1.2072,-1.2072,-1.3101,-1.3607,-1.3607,-1.3628,-1.3644,-0.6841,-0.7168,-0.7867,-0.9079,-0.9207,-0.9155,-0.9614,0.0,0.0,0.0,0.0,0.0,0.0,-1.0889,-1.1266,0.0,-1.1436,-1.3459,-1.5876,-1.667,-1.7344,-1.8295,-1.8461,-1.8789,-1.9424,-1.9424,-1.9687,-2.0449,-1.9795,-1.9355,-1.9287,-1.8936,-1.8869,-1.9295,-1.9346,-1.9438,-1.9497,-2.0365,-2.0365,-1.9497,-1.9497,-1.9497,-1.9507,-1.9967,-2.0342,-2.0623,-2.1083,-2.1009,-2.0673,-2.1593,-2.2103,-2.2403,-2.4264,-2.4564,-2.4093,-2.5369,-2.4964,-2.3844,-2.4115,-2.3966,-2.3658,-2.3881,-2.4046,-2.4012,-2.311,-2.2981,-2.3091,-2.3091,-2.3091,-2.3091,-2.3091,-2.3091,-2.3091,-2.3091,-2.3091,-2.3091,-2.3091,-2.3091,-2.3091,-2.3091,-2.3091,-2.2795,-2.177,-2.1594,-2.1078,-1.9575,-2.0237,-2.0525,-1.9488,-2.0491,-2.1086,-2.0516,-1.8322,-1.6673,-1.6083,-1.4091,-1.3375,-1.4513,-1.3882,-1.2937,-1.1669,-1.1546,-1.1431,-1.1289,-1.1431,-1.1519,-1.1519,-1.1998,-1.222,-1.222,-1.244,-1.2558,-0.6547,-0.6807,-0.7266,-0.8362,-0.8819,-0.9007,-0.9036,0.0,0.0,0.0,0.0,0.0,0.0,0.0,-1.1123,-1.1576,-1.3087,-1.4592,-1.5722,-1.6543,-1.7191,-1.7677,-1.8078,-1.8617,-1.9541,-1.9209,-1.9102,-1.9492,-1.916,-1.8838,-1.8613,-1.8408,-1.8365,-1.8596,-1.8596,-1.8596,-1.8596,-1.8977,-1.8977,-1.8596,-1.8596,-1.8596,-1.8596,-1.8832,-1.9166,-1.952,-1.9768,-2.0022,-2.0233,-2.0466,-2.1114,-2.2081,-2.2787,-2.3254,-2.3545,-2.3988,-2.3487,-2.2616,-2.2869,-2.2856,-2.2715,-2.288,-2.2949,-2.2937,-2.2834,-2.2945,-2.3091,-2.3091,-2.3091,-2.3091,-2.3091,-2.3091,-2.3091,-2.3091,-2.3091,-2.3091,-2.3091,-2.3091,-2.3091,-2.3091,-2.3091,-2.2741,-2.1496,-2.132,-2.0812,-1.9396,-2.0065,-2.042,-1.9569,-2.0608,-2.1213,-2.0664,-1.8355,-1.6242,-1.4602,-1.3557,-1.3024,-1.3177,-1.2777,-1.2291,-1.1705,-1.151,-1.1389,-1.1389,-1.1583,-1.1663,-1.1663,-1.1964,-1.2104,-1.2104,-1.2238,-1.2305,-0.6149,-0.6474,-0.6834,-0.7375,-0.8092,-0.8657,-0.8607,-0.9004,0.0,0.0,0.0,0.0,0.0,-1.0409,-1.1188,-1.2964,-1.4125,-1.5016,-1.5519,-1.6043,-1.6468,-1.6819,-1.7221,-1.792,-1.8995,-1.8592,-1.8318,-1.8414,-1.8463,-1.8354,-1.813,-1.8057,-1.8008,-1.8008,-1.791,-1.791,-1.8008,-1.791,-1.791,-1.8008,-1.8008,-1.8008,-1.8008,-1.8008,-1.8208,-1.8598,-1.8598,-1.9026,-1.9746,-1.9424,-2.0129,-2.1356,-2.1298,-2.1983,-2.2948,-2.2531,-2.2133,-2.1822,-2.1768,-2.178,-2.1835,-2.1994,-2.1914,-2.1875,-2.2617,-2.2867,-2.2974,-2.3062,-2.3091,-2.3091,-2.3091,-2.3091,-2.3091,-2.3091,-2.3091,-2.3091,-2.3091,-2.2862,-2.2687,-2.2662,-2.2459,-2.1886,-2.0658,-2.048,-2.005,-1.8807,-1.9635,-2.026,-1.9881,-2.0812,-2.0882,-1.9256,-1.7546,-1.5755,-1.3732,-1.3807,-1.3684,-1.317,-1.2619,-1.2215,-1.2007,-1.175,-1.1595,-1.1595,-1.1857,-1.2007,-1.2007,-1.2191,-1.2305,-1.2305,-1.2305,-1.2305,-0.5294,-0.6079,-0.6867,-0.6422,-0.7144,-0.8232,-0.9286,-0.9365,0.0,-0.9561,0.0,0.0,0.0,-1.1431,-1.1996,-1.3177,-1.3228,-1.4016,-1.667,-1.6051,-1.5576,-1.6359,-1.6169,-1.6147,-1.6598,-1.7049,-1.7479,-1.7935,-1.7995,-1.8178,-1.8539,-1.8188,-1.8008,-1.8008,-1.7637,-1.7617,-1.8008,-1.7627,-1.7627,-1.8008,-1.8008,-1.8008,-1.8008,-1.8008,-1.8208,-1.8598,-1.8598,-1.8861,-1.9336,-1.9297,-1.9389,-1.9584,-2.0508,-2.1117,-2.1523,-2.137,-2.1291,-2.1271,-2.126,-2.123,-2.1203,-2.085,-2.0967,-2.1327,-2.1836,-2.2246,-2.2637,-2.2984,-2.3091,-2.3091,-2.3091,-2.3091,-2.3091,-2.3091,-2.3091,-2.3091,-2.3091,-2.2217,-2.1409,-2.1437,-2.051,-1.939,-1.8169,-1.798,-1.752,-1.6265,-1.8069,-1.9583,-1.9505,-2.0913,-1.9987,-1.5087,-1.4415,-1.4443,-1.4648,-1.4992,-1.5262,-1.5524,-1.4303,-1.3172,-1.2308,-1.2251,-1.2238,-1.2238,-1.2258,-1.2271,-1.2271,-1.2291,-1.2305,-1.2305,-1.2305,-1.2305,-0.4611,-0.5481,-0.627,-0.6064,-0.6965,0.0,0.0,-0.9388,-0.9784,-0.947,-1.0221,0.0,-1.0946,-1.1672,-1.2335,-1.2485,-1.3372,-1.4265,-1.492,-1.5335,-1.5528,-1.5418,-1.5653,-1.5851,-1.603,-1.58,-1.6062,-1.7026,-1.6936,-1.7224,-1.8188,-1.8096,-1.8008,-1.8008,-1.7852,-1.7852,-1.8008,-1.7852,-1.7852,-1.8008,-1.8008,-1.8008,-1.8008,-1.8008,-1.8096,-1.8252,-1.8805,-1.8953,-1.8893,-1.9168,-1.9309,-1.9343,-2.0002,-2.0313,-2.0497,-2.0751,-2.082,-2.082,-2.082,-2.082,-2.084,-2.0947,-2.1094,-2.1278,-2.1758,-2.1992,-2.2158,-2.2314,-2.2549,-2.2769,-2.3033,-2.3091,-2.3091,-2.3091,-2.3091,-2.3091,-2.3091,-2.2164,-2.1302,-2.1293,-2.0307,-1.9109,-1.7913,-1.7695,-1.7456,-1.6644,-1.7974,-1.9233,-1.9691,-2.0838,-2.0161,-1.6501,-1.4893,-1.4443,-1.5301,-1.5876,-1.5905,-1.5231,-1.4521,-1.3852,-1.3215,-1.2629,-1.2305,-1.2305,-1.2305,-1.2305,-1.2305,-1.2305,-1.2305,-1.2305,-1.2305,-1.2305,-0.4019,-0.4848,-0.5642,-0.5926,0.0,0.0,-0.812,-0.9125,-0.9888,-0.9679,-1.0411,-1.0975,-1.0588,-1.14,-1.2107,-1.202,-1.3024,-1.3735,-1.3487,-1.4104,-1.4358,-1.3792,-1.415,-1.4394,-1.4394,-1.4318,-1.4622,-1.5488,-1.5845,-1.649,-1.7516,-1.7576,-1.7666,-1.7812,-1.7686,-1.7676,-1.7812,-1.7812,-1.7881,-1.8008,-1.8008,-1.8008,-1.8008,-1.8008,-1.8008,-1.8042,-1.8911,-1.8951,-1.8453,-1.9034,-1.9145,-1.8936,-1.9502,-1.9717,-1.9785,-2.039,-2.0605,-2.0605,-2.0605,-2.0605,-2.0654,-2.0918,-2.1025,-2.1103,-2.1543,-2.168,-2.1709,-2.1846,-2.209,-2.2383,-2.2666,-2.2833,-2.2897,-2.276,-2.2701,-2.2783,-2.2867,-2.166,-2.057,-2.0729,-1.9433,-1.8055,-1.7235,-1.7091,-1.7054,-1.7024,-1.8033,-1.9024,-1.9556,-2.0645,-2.0245,-1.7277,-1.5247,-1.4538,-1.5616,-1.6138,-1.6103,-1.5442,-1.4941,-1.4313,-1.3446,-1.281,-1.2445,-1.2445,-1.2351,-1.2305,-1.2305,-1.2305,-1.2305,-1.2305,-1.2305,-1.2305,-0.3499,-0.4228,-0.5096,0.0,0.0,0.0,-0.7683,-0.8574,-0.9464,-1.0405,-1.0854,-1.0891,-1.0235,-1.0636,-1.1293,-1.1889,-1.1935,-1.2109,-1.2785,-1.2297,-1.1757,-1.1422,-1.1389,-1.1389,-1.1389,-1.2547,-1.3287,-1.3294,-1.4874,-1.6091,-1.6566,-1.6637,-1.6902,-1.7363,-1.6921,-1.6911,-1.7406,-1.7373,-1.7588,-1.8008,-1.8008,-1.8008,-1.8008,-1.8008,-1.8008,-1.8042,-1.8911,-1.8821,-1.8076,-1.8921,-1.8787,-1.8096,-1.8945,-1.9277,-1.9385,-2.0282,-2.0595,-2.0595,-2.0595,-2.0595,-2.0595,-2.0595,-2.0595,-2.0683,-2.1094,-2.1181,-2.1278,-2.1748,-2.1875,-2.1875,-2.1875,-2.221,-2.2404,-2.1977,-2.1885,-2.2002,-2.2379,-2.0603,-1.9031,-1.943,-1.7475,-1.5784,-1.5784,-1.5784,-1.609,-1.6877,-1.8096,-1.8931,-1.9005,-2.0367,-2.0037,-1.6596,-1.4955,-1.4516,-1.5593,-1.57,-1.5982,-1.666,-1.5803,-1.4579,-1.2887,-1.2829,-1.279,-1.279,-1.2496,-1.2311,-1.2305,-1.2305,-1.2305,-1.2305,-1.2305,-1.2305,-0.2699,-0.3729,0.0,-0.4932,0.0,0.0,0.0,-0.7997,0.0,0.0,-1.0336,-1.0103,-1.011,-1.0258,-1.0467,-1.0618,-1.1002,-1.1357,-1.1528,-1.154,-1.1523,-1.1402,-1.1389,-1.1389,-1.1389,-1.1553,-1.2039,-1.2935,-1.329,-1.4147,-1.5743,-1.5845,-1.6175,-1.6892,-1.6765,-1.6765,-1.6924,-1.6892,-1.7139,-1.7568,-1.7568,-1.7725,-1.8008,-1.8008,-1.8008,-1.8022,-1.8572,-1.8492,-1.8008,-1.8269,-1.8236,-1.8066,-1.8613,-1.8792,-1.8896,-1.9463,-1.9705,-1.9705,-1.9705,-1.9863,-2.0059,-1.9766,-2.0106,-2.0576,-2.0361,-2.0518,-2.0791,-2.0957,-2.1182,-2.1357,-2.1075,-2.1279,-2.1639,-2.1849,-2.2124,-2.2112,-2.1375,-2.0218,-1.91,-1.8395,-1.6936,-1.5784,-1.5784,-1.5784,-1.6251,-1.7648,-1.785,-1.8404,-1.9929,-1.9626,-1.8678,-1.7129,-1.5245,-1.4516,-1.5593,-1.568,-1.5703,-1.57,-1.5635,-1.5142,-1.411,-1.345,-1.3073,-1.3073,-1.2986,-1.2832,-1.265,-1.265,-1.2543,-1.2305,-1.2305,-1.2305,-0.2442,-0.3418,0.0,-0.4713,-0.5535,-0.637,-0.6722,0.0,0.0,0.0,-0.9827,-0.9773,-1.006,-0.9897,-0.9777,-0.9927,-1.0341,-1.0601,-1.0488,-1.0722,-1.0869,-1.0869,-1.0802,-1.0782,-1.0863,-1.0855,-1.1149,-1.192,-1.2188,-1.2961,-1.4393,-1.4484,-1.4966,-1.5946,-1.5987,-1.6143,-1.6465,-1.6609,-1.6833,-1.7119,-1.7119,-1.7256,-1.7486,-1.7852,-1.8008,-1.8022,-1.8271,-1.8299,-1.8245,-1.8065,-1.8008,-1.8047,-1.8432,-1.8598,-1.8656,-1.9131,-1.9287,-1.9287,-1.9287,-1.9222,-1.9088,-1.8841,-1.9212,-1.9706,-1.945,-1.9937,-2.0605,-2.0605,-2.0762,-2.0908,-2.0674,-2.079,-2.1026,-2.1331,-2.1226,-2.097,-2.0501,-1.9326,-1.8212,-1.7771,-1.6662,-1.5784,-1.5784,-1.6224,-1.6917,-1.8045,-1.8458,-1.924,-2.0703,-1.9439,-1.8178,-1.7634,-1.5477,-1.4368,-1.5,-1.5076,-1.5016,-1.483,-1.4954,-1.4889,-1.4429,-1.3715,-1.3347,-1.3347,-1.3267,-1.306,-1.2784,-1.2784,-1.263,-1.2305,-1.2305,-1.2305,-0.2412,0.0,0.0,-0.488,-0.5725,0.0,-0.7319,-0.797,-0.8522,-0.8872,-0.933,-0.9766,-1.0027,-0.961,-0.9344,-0.9639,-0.9907,-0.9987,-0.9719,-0.9913,-1.0043,-1.0043,-0.9846,-0.9786,-1.0053,-1.0352,-1.0512,-1.0512,-1.1429,-1.2208,-1.2724,-1.2822,-1.343,-1.4674,-1.4749,-1.5158,-1.5905,-1.6336,-1.656,-1.6638,-1.6638,-1.6658,-1.6726,-1.7506,-1.7871,-1.7842,-1.792,-1.8118,-1.8394,-1.8138,-1.8008,-1.8047,-1.8393,-1.8504,-1.8482,-1.8915,-1.9015,-1.8942,-1.8942,-1.8404,-1.773,-1.7684,-1.7983,-1.8299,-1.8384,-1.9332,-2.042,-2.0508,-2.0576,-2.0605,-2.0605,-2.0605,-2.0605,-2.0605,-1.9804,-1.9185,-1.9691,-1.8132,-1.6773,-1.7344,-1.6558,-1.5785,-1.5752,-1.6775,-1.775,-1.8124,-1.9589,-2.0683,-2.1003,-1.9507,-1.8237,-1.782,-1.5573,-1.4088,-1.4088,-1.4088,-1.4088,-1.4088,-1.4088,-1.4088,-1.4088,-1.3828,-1.3646,-1.3646,-1.3427,-1.314,-1.2864,-1.2864,-1.2697,-1.2345,-1.2345,-1.2325,-0.138,-0.2243,0.0,0.0,-0.4634,-0.5734,-0.5941,-0.6517,-0.7295,-0.8194,-0.9064,-0.9729,-0.9766,-0.9673,-0.9613,-0.9702,-0.974,-0.9753,-0.9722,-0.974,-0.978,-0.978,-0.9726,-0.9706,-0.9773,-0.9863,-0.9903,-0.9903,-1.0105,-1.0645,-1.1578,-1.1669,-1.2198,-1.3383,-1.3717,-1.4121,-1.4609,-1.5022,-1.5537,-1.6242,-1.6242,-1.6387,-1.6707,-1.6892,-1.6816,-1.6555,-1.7217,-1.7363,-1.7137,-1.7752,-1.8008,-1.8018,-1.8105,-1.7668,-1.7026,-1.7153,-1.6723,-1.6075,-1.6075,-1.6165,-1.6221,-1.611,-1.6429,-1.6999,-1.7667,-1.8372,-1.9114,-1.9859,-2.0341,-2.0605,-2.0605,-2.0605,-2.0605,-2.0605,-2.0021,-1.9226,-1.8447,-1.7479,-1.6507,-1.5743,-1.5514,-1.5418,-1.519,-1.6254,-1.7401,-1.8072,-1.9583,-2.0033,-1.8399,-1.84,-1.7953,-1.6353,-1.4943,-1.4088,-1.4088,-1.4088,-1.4088,-1.4088,-1.4088,-1.4088,-1.4088,-1.4021,-1.3988,-1.3988,-1.3928,-1.3748,-1.3447,-1.3447,-1.3173,-1.269,-1.269,-1.2563,-0.1072,0.0,0.0,-0.4488,0.0,-0.5597,-0.5955,-0.6312,-0.6645,-0.6867,-0.7884,-0.8901,-0.9361,-0.9359,-0.9265,-0.9265,-0.9265,-0.9265,-0.9265,-0.9265,-0.9312,-0.9452,-0.9352,-0.9319,-0.9459,-0.9472,-0.9472,-0.9472,-0.9599,-0.9944,-1.0492,-1.0535,-1.0982,-1.1945,-1.252,-1.3061,-1.3674,-1.4211,-1.4697,-1.5137,-1.5137,-1.5264,-1.5488,-1.6317,-1.6266,-1.5574,-1.635,-1.6211,-1.5532,-1.6328,-1.6655,-1.6655,-1.6655,-1.6251,-1.5713,-1.5861,-1.5504,-1.4993,-1.5141,-1.5036,-1.479,-1.4718,-1.502,-1.553,-1.5988,-1.6902,-1.7958,-1.8936,-1.9514,-1.9962,-2.0489,-2.0605,-2.0605,-2.0605,-1.9509,-1.8371,-1.7909,-1.6708,-1.5725,-1.5749,-1.5454,-1.5499,-1.6362,-1.744,-1.8561,-1.9804,-2.0313,-1.9937,-1.8147,-1.707,-1.6331,-1.6031,-1.4853,-1.4088,-1.4088,-1.4088,-1.4088,-1.4088,-1.4088,-1.4088,-1.4088,-1.4088,-1.4088,-1.4088,-1.4088,-1.3941,-1.36,-1.36,-1.3333,-1.2784,-1.2784,-1.2623,-0.0848,0.0,-0.3519,-0.5956,-0.6117,0.0,-0.6453,-0.6588,-0.6394,-0.5651,-0.6681,-0.7949,-0.8783,-0.8857,-0.8804,-0.8804,-0.8699,-0.8646,-0.8778,-0.8593,-0.8544,-0.8912,-0.8736,-0.8711,-0.8919,-0.9055,-0.9138,-0.9138,-0.9392,-0.9552,-0.9606,-0.9606,-0.9936,-1.0679,-1.1316,-1.203,-1.2886,-1.3509,-1.3929,-1.4104,-1.4104,-1.4104,-1.4153,-1.5595,-1.5685,-1.4707,-1.5431,-1.5127,-1.414,-1.4826,-1.5246,-1.5438,-1.5203,-1.4993,-1.4803,-1.4841,-1.4636,-1.4335,-1.4596,-1.4201,-1.3536,-1.3536,-1.3837,-1.4215,-1.4396,-1.5458,-1.6851,-1.7881,-1.8581,-1.9213,-2.0089,-2.044,-2.0605,-2.0605,-1.9047,-1.7598,-1.768,-1.6292,-1.5253,-1.6241,-1.5881,-1.6045,-1.8053,-1.891,-1.9867,-2.1418,-2.114,-2.0226,-1.8793,-1.6183,-1.486,-1.5802,-1.481,-1.4088,-1.4088,-1.4088,-1.4088,-1.4088,-1.4088,-1.4088,-1.4088,-1.4088,-1.4088,-1.4088,-1.4088,-1.3968,-1.368,-1.368,-1.3434,-1.2938,-1.2938,-1.2739,0.0,0.0,-0.2971,0.0,-0.6443,-0.6475,0.0,0.0,-0.6394,-0.5651,-0.6681,-0.7735,-0.7878,-0.84,-0.8804,-0.8804,-0.8268,-0.8076,-0.8699,-0.7696,-0.7139,-0.7824,-0.7881,-0.7869,-0.7904,-0.8479,-0.8864,-0.8864,-0.8905,-0.9031,-0.9257,-0.9271,-0.9447,-0.984,-1.0281,-1.1025,-1.2061,-1.2503,-1.3184,-1.4104,-1.4104,-1.4104,-1.4114,-1.4348,-1.4194,-1.3834,-1.468,-1.4679,-1.4115,-1.4587,-1.5429,-1.6314,-1.5188,-1.4919,-1.4985,-1.3929,-1.3156,-1.264,-1.2682,-1.2801,-1.2913,-1.2913,-1.3124,-1.3493,-1.4316,-1.4997,-1.5729,-1.6663,-1.793,-1.9047,-1.9183,-1.9883,-2.0605,-2.0605,-1.9664,-1.8518,-1.7559,-1.7131,-1.6716,-1.5952,-1.6448,-1.7464,-1.8981,-1.9158,-1.9448,-2.059,-2.1057,-2.0627,-1.8849,-1.7038,-1.5532,-1.4494,-1.4235,-1.4088,-1.4088,-1.4088,-1.4088,-1.4088,-1.4088,-1.4088,-1.4088,-1.4088,-1.4088,-1.4088,-1.4088,-1.4068,-1.4028,-1.4028,-1.3854,-1.3487,-1.3487,-1.3327,-0.035,-0.1091,-0.2271,0.0,-0.5944,-0.6207,-0.7036,-0.6885,-0.6394,-0.5651,-0.6005,-0.6605,-0.702,-0.7348,-0.7563,-0.7563,-0.7289,-0.7208,-0.7536,-0.702,-0.6723,-0.7047,-0.7074,-0.7235,-0.767,-0.7996,-0.8348,-0.8778,-0.8804,-0.8864,-0.8964,-0.8971,-0.9031,-0.9185,-0.9719,-1.0435,-1.1284,-1.1842,-1.2549,-1.3437,-1.3437,-1.3437,-1.3437,-1.3656,-1.3458,-1.2971,-1.3472,-1.3194,-1.2413,-1.3245,-1.3632,-1.3673,-1.3609,-1.3293,-1.2809,-1.2592,-1.2191,-1.1857,-1.2191,-1.2536,-1.2784,-1.2784,-1.2998,-1.3286,-1.3699,-1.4067,-1.4588,-1.5602,-1.6533,-1.7455,-1.8678,-1.9349,-1.9896,-2.0731,-2.0558,-1.9913,-1.8849,-1.7917,-1.7179,-1.6709,-1.7994,-1.9158,-1.9188,-1.9585,-2.0057,-2.0536,-2.1072,-2.0391,-1.7615,-1.6661,-1.566,-1.4242,-1.4088,-1.4088,-1.4088,-1.4088,-1.4088,-1.4088,-1.4088,-1.4088,-1.4088,-1.4088,-1.3779,-1.3118,-1.3779,-1.4088,-1.4088,-1.4088,-1.3935,-1.36,-1.36,-1.3447,0.0,0.0,-0.1968,-0.4665,-0.5535,-0.6066,0.0,-0.7084,-0.6394,-0.5651,-0.5351,-0.541,-0.5959,-0.6372,-0.6588,-0.6588,-0.6448,-0.6394,-0.6588,-0.6285,-0.6122,-0.6312,-0.6312,-0.661,-0.7343,-0.7589,-0.7996,-0.8752,-0.8804,-0.8804,-0.8804,-0.8804,-0.8804,-0.8804,-0.929,-0.9943,-1.0788,-1.1649,-1.2369,-1.2905,-1.2905,-1.2905,-1.2915,-1.3203,-1.2892,-1.213,-1.2453,-1.1897,-1.0853,-1.1692,-1.1876,-1.1674,-1.2033,-1.1895,-1.1509,-1.1613,-1.1603,-1.1603,-1.2037,-1.2476,-1.2784,-1.2784,-1.3045,-1.332,-1.332,-1.3427,-1.3818,-1.4722,-1.5278,-1.6067,-1.806,-1.8647,-1.9043,-2.0422,-2.0812,-2.0742,-2.0159,-1.8798,-1.7804,-1.8108,-1.9485,-2.0353,-1.9531,-2.0081,-2.0596,-2.0605,-2.0947,-1.9983,-1.6649,-1.6367,-1.5873,-1.4284,-1.4088,-1.4088,-1.4088,-1.4088,-1.4088,-1.4088,-1.4088,-1.4088,-1.4088,-1.4088,-1.3512,-1.2322,-1.3184,-1.362,-1.3646,-1.3646,-1.3668,-1.3713,-1.3713,-1.3641,0.0,-0.141,0.0,-0.4435,-0.5658,-0.6514,-0.7175,-0.6944,-0.6394,-0.5651,-0.5003,-0.457,-0.4601,-0.5687,-0.6588,-0.6588,-0.6009,-0.5792,-0.6507,-0.5445,-0.4842,-0.5487,-0.5569,-0.5846,-0.6588,-0.7289,-0.7996,-0.8752,-0.8804,-0.8804,-0.8804,-0.8804,-0.8804,-0.8804,-0.8831,-0.9491,-1.0788,-1.2157,-1.2847,-1.2905,-1.2905,-1.2905,-1.2905,-1.2925,-1.2374,-1.1387,-1.1768,-1.1249,-1.0167,-1.0211,-1.1073,-1.224,-1.1156,-1.1581,-1.2654,-1.1488,-1.1417,-1.1886,-1.1913,-1.2301,-1.2784,-1.2784,-1.3146,-1.358,-1.358,-1.3593,-1.366,-1.4065,-1.4726,-1.5624,-1.7049,-1.7638,-1.8124,-1.9236,-1.9763,-2.0249,-2.0951,-1.9974,-1.9231,-2.0226,-2.0518,-2.0595,-2.0547,-2.0557,-2.0596,-2.0608,-2.0604,-1.9555,-1.6593,-1.6786,-1.6438,-1.4326,-1.4088,-1.4088,-1.4088,-1.4088,-1.4088,-1.4088,-1.4088,-1.4088,-1.4088,-1.4088,-1.3512,-1.2322,-1.2342,-1.2384,-1.237,-1.237,-1.2978,-1.4062,-1.4062,-1.4055,0.0,0.0,0.0,-0.3338,-0.4597,-0.5668,-0.6517,-0.652,-0.6192,-0.5625,-0.4976,-0.4491,-0.4491,-0.4901,-0.5254,-0.5254,-0.5034,-0.4952,-0.5226,-0.4818,-0.4598,-0.4842,-0.4866,-0.5304,-0.648,-0.6831,-0.7509,-0.8699,-0.8804,-0.8804,-0.8804,-0.8804,-0.8804,-0.8804,-0.8804,-0.9439,-1.0788,-1.2206,-1.2905,-1.2905,-1.2905,-1.2905,-1.2905,-1.2905,-1.2215,-1.0994,-1.1117,-1.0684,-0.9899,-1.0399,-1.0622,-1.0699,-1.0952,-1.1062,-1.109,-1.1019,-1.1243,-1.161,-1.1839,-1.2288,-1.2817,-1.3018,-1.3313,-1.36,-1.36,-1.3733,-1.3908,-1.3828,-1.4129,-1.4797,-1.5959,-1.6496,-1.7305,-1.9649,-2.092,-2.1693,-2.1978,-2.119,-2.0547,-2.0917,-2.0771,-2.0605,-2.0605,-2.0605,-2.0605,-2.0615,-2.0605,-1.9696,-1.7221,-1.7145,-1.6471,-1.4313,-1.4088,-1.4088,-1.4088,-1.4088,-1.4088,-1.4088,-1.4088,-1.4088,-1.4088,-1.4088,-1.3512,-1.2322,-1.2298,-1.2298,-1.2285,-1.2317,-1.2929,-1.4088,-1.4088,-1.4088,0.0,0.0,0.0,0.0,-0.395,-0.5115,-0.5981,-0.5829,-0.5444,-0.5122,-0.4354,-0.3818,-0.407,-0.3901,-0.3901,-0.4405,-0.4491,-0.4491,-0.4491,-0.4491,-0.4491,-0.4491,-0.4704,-0.5304,-0.648,-0.6831,-0.7477,-0.8699,-0.8804,-0.8699,-0.8454,-0.8672,-0.891,-0.914,-0.9361,-1.002,-1.1116,-1.2304,-1.2905,-1.2905,-1.2905,-1.2905,-1.2881,-1.2632,-1.1891,-1.0788,-1.0568,-1.006,-0.9442,-0.998,-0.9792,-0.9266,-1.0019,-1.0083,-0.9813,-1.0348,-1.0693,-1.094,-1.1291,-1.1512,-1.1719,-1.2323,-1.2729,-1.3061,-1.3491,-1.374,-1.3915,-1.378,-1.3841,-1.422,-1.5374,-1.6296,-1.7451,-1.9763,-2.1213,-2.2231,-2.2606,-2.2021,-2.1392,-2.1234,-2.1105,-2.0938,-2.0644,-2.0712,-2.0761,-2.0605,-2.0303,-1.9371,-1.7527,-1.7089,-1.6217,-1.4306,-1.4088,-1.4088,-1.4088,-1.4088,-1.3913,-1.3512,-1.3864,-1.3913,-1.3512,-1.3864,-1.3512,-1.2322,-1.2298,-1.225,-1.214,-1.213,-1.2796,-1.4088,-1.4238,-1.4338,0.0,0.0,0.0,-0.2529,-0.3766,-0.5001,-0.5517,-0.4882,-0.4183,-0.4186,-0.3148,-0.2482,-0.3262,-0.276,-0.273,-0.4208,-0.446,-0.446,-0.4491,-0.4491,-0.4491,-0.4491,-0.5085,-0.576,-0.6529,-0.7235,-0.7969,-0.8725,-0.8778,-0.8454,-0.7696,-0.8374,-0.9087,-0.9744,-1.044,-1.1116,-1.1765,-1.2535,-1.2905,-1.2905,-1.2881,-1.2881,-1.2847,-1.2104,-1.1391,-1.0737,-1.009,-0.9413,-0.8804,-0.8778,-0.854,-0.8191,-0.8323,-0.8615,-0.9007,-0.9494,-0.9746,-0.9921,-1.0278,-0.9917,-0.9527,-1.0843,-1.1455,-1.1956,-1.3222,-1.3613,-1.3673,-1.3995,-1.3856,-1.3933,-1.5294,-1.7009,-1.8597,-1.9307,-2.0447,-2.167,-2.2838,-2.25,-2.1816,-2.1333,-2.1586,-2.161,-2.0771,-2.0927,-2.1034,-2.0673,-1.9692,-1.862,-1.7491,-1.6684,-1.5685,-1.4291,-1.4095,-1.4088,-1.4088,-1.4088,-1.3555,-1.237,-1.3385,-1.3512,-1.237,-1.347,-1.3555,-1.237,-1.2336,-1.2197,-1.1861,-1.1813,-1.2614,-1.4151,-1.4502,-1.4842,-0.0112,0.0,0.0,0.0,0.0,0.0,-0.4268,-0.4187,-0.4087,-0.4186,-0.3566,-0.3093,-0.3345,-0.3178,-0.3121,-0.3566,-0.3622,-0.3846,-0.4405,-0.4491,-0.4491,-0.4491,-0.4653,-0.5254,-0.648,-0.6777,-0.7208,-0.7937,-0.7996,-0.7696,-0.6939,-0.7616,-0.8342,-0.9061,-1.0192,-1.0889,-1.1065,-1.228,-1.2905,-1.2881,-1.2369,-1.2104,-1.208,-1.1391,-1.0712,-1.0064,-0.9891,-0.9413,-0.8752,-0.8209,-0.8006,-0.7948,-0.7701,-0.7802,-0.8099,-0.8494,-0.881,-0.9216,-1.0085,-0.9917,-0.9666,-1.1928,-1.2211,-1.1956,-1.3222,-1.3753,-1.3921,-1.3769,-1.3842,-1.4092,-1.4663,-1.6665,-1.8661,-1.9082,-2.0944,-2.2706,-2.3047,-2.2916,-2.265,-2.2221,-2.1725,-2.1319,-2.1082,-2.0227,-1.9937,-2.0887,-2.0105,-1.9103,-1.8196,-1.7744,-1.6711,-1.4613,-1.4206,-1.4088,-1.4088,-1.3294,-1.2674,-1.2328,-1.2589,-1.2632,-1.2328,-1.347,-1.3955,-1.3603,-1.362,-1.3571,-1.3457,-1.2608,-1.2979,-1.4552,-1.4798,-1.5048,0.0,0.0,0.0,-0.1496,0.0,0.0,-0.3379,-0.329,-0.3263,-0.3658,-0.3024,-0.2397,-0.2447,-0.2145,-0.2035,-0.2334,-0.2395,-0.2871,-0.4294,-0.4491,-0.4491,-0.4491,-0.4732,-0.525,-0.6064,-0.6421,-0.6777,-0.7208,-0.7235,-0.7182,-0.7074,-0.7182,-0.7851,-0.9185,-0.9961,-1.0517,-1.0788,-1.1609,-1.2024,-1.2024,-1.16,-1.1391,-1.1366,-1.0695,-1.0167,-0.9788,-0.9517,-0.9159,-0.8738,-0.7753,-0.7406,-0.7445,-0.7007,-0.7024,-0.7321,-0.7675,-0.7978,-0.8336,-0.9537,-0.9372,-0.9075,-1.1429,-1.1883,-1.1748,-1.3046,-1.3641,-1.3876,-1.3816,-1.3956,-1.4155,-1.4442,-1.6425,-1.8411,-1.8734,-2.0748,-2.2627,-2.2732,-2.2816,-2.2797,-2.2535,-2.2254,-2.1716,-2.0853,-2.014,-1.9747,-1.9911,-1.8931,-1.802,-1.7679,-1.7106,-1.6157,-1.4663,-1.4246,-1.4088,-1.4088,-1.347,-1.2851,-1.2328,-1.2766,-1.2808,-1.2328,-1.347,-1.4088,-1.4088,-1.4088,-1.4099,-1.412,-1.3549,-1.3946,-1.5147,-1.5161,-1.5297,0.0,0.0,0.0,-0.106,-0.1714,0.0,-0.284,-0.2509,-0.2348,-0.3085,-0.2228,-0.1331,-0.1242,-0.061,-0.0334,-0.0995,-0.1166,-0.1952,-0.407,-0.4294,-0.4294,-0.4491,-0.4944,-0.532,-0.5483,-0.6091,-0.6475,-0.6475,-0.6394,-0.6723,-0.753,-0.6966,-0.7545,-0.9633,-0.9762,-1.009,-1.0686,-1.0762,-1.0788,-1.0788,-1.0712,-1.0695,-1.0669,-0.9987,-0.9692,-0.9666,-0.9061,-0.8804,-0.8699,-0.7432,-0.6911,-0.687,-0.6301,-0.629,-0.6614,-0.698,-0.715,-0.7368,-0.8802,-0.8656,-0.8165,-1.0331,-1.1033,-1.128,-1.2759,-1.3313,-1.3512,-1.3981,-1.4055,-1.4095,-1.4396,-1.6194,-1.7995,-1.8275,-2.0162,-2.1987,-2.2211,-2.2382,-2.2457,-2.2451,-2.2783,-2.2414,-2.0437,-2.0289,-1.9947,-1.8471,-1.7079,-1.6327,-1.6662,-1.5872,-1.5133,-1.464,-1.4355,-1.4182,-1.4188,-1.4097,-1.3523,-1.2459,-1.34,-1.3485,-1.2453,-1.3502,-1.4102,-1.4135,-1.4108,-1.415,-1.4224,-1.4603,-1.514,-1.5715,-1.553,-1.5585,-0.1518,-0.1492,-0.1782,-0.1089,-0.1083,0.0,-0.2654,-0.2983,-0.3221,-0.3869,-0.3403,-0.2693,-0.2083,-0.1392,-0.0938,-0.1071,-0.1589,-0.2371,-0.3456,-0.3065,-0.3121,-0.4349,-0.4036,-0.4195,-0.5374,-0.5624,-0.5706,-0.5706,-0.5222,-0.5473,-0.675,-0.6669,-0.7343,-0.8956,-0.951,-0.9865,-0.9987,-1.0542,-1.0788,-1.0788,-1.0236,-0.9987,-0.9961,-0.9309,-0.8982,-0.8982,-0.8857,-0.8804,-0.8712,-0.7532,-0.7057,-0.6933,-0.5771,-0.5527,-0.5837,-0.6019,-0.6146,-0.6529,-0.8581,-0.8656,-0.8298,-1.1423,-1.1295,-1.0377,-1.2555,-1.2825,-1.2646,-1.3765,-1.3909,-1.3755,-1.4075,-1.5891,-1.7704,-1.7987,-2.0047,-2.1926,-2.1987,-2.2165,-2.2298,-2.207,-2.2344,-2.2174,-2.0814,-1.96,-1.8806,-1.8679,-1.7718,-1.7094,-1.7445,-1.7319,-1.6668,-1.5354,-1.486,-1.4637,-1.479,-1.3925,-1.3288,-1.3058,-1.3033,-1.3053,-1.3052,-1.3719,-1.4195,-1.4429,-1.4208,-1.4342,-1.4825,-1.5318,-1.5494,-1.5299,-1.5584,-1.5724,-0.2047,-0.1761,-0.1754,-0.0715,-0.0672,0.0,0.0,-0.2663,-0.3158,-0.4565,-0.4039,-0.3113,-0.2347,-0.1599,-0.0871,-0.0109,-0.0635,-0.1507,-0.2649,-0.2788,-0.3231,-0.4377,-0.4153,-0.4177,-0.4921,-0.5003,-0.5003,-0.5003,-0.4677,-0.5117,-0.6534,-0.6588,-0.7262,-0.8752,-0.914,-0.9309,-0.9309,-0.964,-0.9814,-0.9788,-0.9465,-0.9309,-0.929,-0.8956,-0.8982,-0.929,-0.8936,-0.8982,-0.9194,-0.7719,-0.7091,-0.6976,-0.5724,-0.5386,-0.5599,-0.5671,-0.5789,-0.6178,-0.823,-0.8341,-0.8005,-1.0707,-1.0608,-0.9661,-1.1036,-1.1656,-1.2157,-1.3474,-1.362,-1.3527,-1.3983,-1.5625,-1.7264,-1.7565,-1.9489,-2.1271,-2.1271,-2.1687,-2.2087,-2.2087,-2.2454,-2.2164,-2.0167,-1.8819,-1.7861,-1.7393,-1.674,-1.6395,-1.672,-1.6603,-1.6199,-1.547,-1.513,-1.4957,-1.5008,-1.4456,-1.4089,-1.4089,-1.3951,-1.3976,-1.4083,-1.4405,-1.4472,-1.4278,-1.4379,-1.4446,-1.454,-1.513,-1.5351,-1.5292,-1.5391,-1.5478,-0.2713,-0.2145,-0.1744,-0.0511,-0.0462,-0.1011,0.0,0.0,0.0,-0.491,-0.4395,-0.3356,-0.2565,-0.1704,-0.0718,0.0494,0.0166,-0.067,-0.2018,-0.2872,-0.3627,-0.4401,-0.4236,-0.4181,-0.446,-0.4464,-0.446,-0.4487,-0.4464,-0.5085,-0.6529,-0.6588,-0.7262,-0.8752,-0.8804,-0.8804,-0.8804,-0.8804,-0.8804,-0.8804,-0.8804,-0.8857,-0.8982,-0.8982,-0.9361,-0.9961,-0.929,-0.9309,-0.965,-0.7851,-0.7091,-0.6986,-0.5851,-0.547,-0.5549,-0.5579,-0.5661,-0.6044,-0.7941,-0.8049,-0.7682,-0.9722,-0.9821,-0.921,-0.9604,-1.0576,-1.1866,-1.3164,-1.3327,-1.3262,-1.3782,-1.5355,-1.6874,-1.7144,-1.8933,-2.0605,-2.0605,-2.125,-2.1843,-2.2056,-2.2374,-2.1875,-1.9429,-1.8498,-1.7544,-1.6015,-1.5631,-1.5565,-1.5751,-1.5523,-1.5374,-1.5458,-1.5376,-1.528,-1.5176,-1.513,-1.513,-1.513,-1.5122,-1.5115,-1.513,-1.5122,-1.4952,-1.4692,-1.467,-1.4502,-1.4085,-1.4607,-1.4968,-1.5251,-1.507,-1.5117,-0.3725,-0.2688,-0.1972,-0.1169,-0.0541,-0.0637,-0.2713,0.0,-0.3446,-0.4422,0.0,-0.4059,-0.3321,0.0,0.0,-0.0872,-0.0914,-0.1272,-0.2086,-0.2746,-0.3482,-0.4391,-0.3287,-0.301,-0.4377,-0.4345,-0.4297,-0.4481,-0.4345,-0.4934,-0.6524,-0.6588,-0.7262,-0.8752,-0.8804,-0.8804,-0.8804,-0.8804,-0.8804,-0.8804,-0.8804,-0.9106,-0.9692,-0.9692,-1.0038,-1.0644,-0.9987,-0.9744,-0.965,-0.7851,-0.7091,-0.6986,-0.5851,-0.5405,-0.5436,-0.5542,-0.5599,-0.5908,-0.7899,-0.8112,-0.7791,-0.9777,-0.99,-0.9334,-0.9594,-1.0423,-1.1534,-1.2859,-1.3058,-1.2929,-1.3213,-1.4884,-1.653,-1.6865,-1.8804,-2.0605,-2.0605,-2.1041,-2.1454,-2.1356,-2.1135,-2.0659,-1.9612,-1.9381,-1.8488,-1.615,-1.5751,-1.5792,-1.5778,-1.5772,-1.5745,-1.5724,-1.5752,-1.5732,-1.5732,-1.5732,-1.5732,-1.5732,-1.5491,-1.5464,-1.5718,-1.5484,-1.5784,-1.675,-1.5289,-1.4385,-1.4085,-1.4173,-1.4396,-1.4804,-1.4925,-1.5117,-0.4432,-0.3078,-0.2029,-0.1289,-0.0858,-0.1006,-0.2343,-0.3033,-0.3693,-0.4831,0.0,0.0,0.0,0.0,0.0,0.0,-0.1371,-0.1528,-0.2734,-0.3113,-0.3569,-0.4398,-0.3455,-0.2839,-0.3143,-0.3409,-0.3634,-0.3782,-0.4056,-0.4703,-0.5891,-0.6367,-0.7074,-0.8129,-0.8586,-0.8804,-0.8804,-0.8804,-0.8804,-0.8804,-0.8804,-0.9159,-0.9788,-0.9788,-1.0389,-1.1316,-1.0261,-1.0012,-1.0241,-0.8333,-0.7383,-0.7031,-0.6175,-0.5669,-0.5402,-0.5467,-0.5787,-0.6358,-0.7198,-0.7282,-0.7108,-0.7575,-0.7644,-0.7804,-0.9082,-0.9743,-1.0492,-1.2429,-1.2766,-1.2639,-1.3253,-1.4898,-1.6521,-1.7042,-1.89,-2.0674,-2.0898,-2.1335,-2.1758,-2.1909,-2.2015,-2.1542,-1.9807,-1.891,-1.7855,-1.6062,-1.5784,-1.5784,-1.5784,-1.5784,-1.6062,-1.6803,-1.6244,-1.6109,-1.685,-1.6197,-1.5784,-1.5784,-1.6409,-1.6811,-1.6904,-1.7307,-1.7521,-1.7432,-1.6182,-1.5049,-1.412,-1.4099,-1.4208,-1.4356,-1.4449,-1.4747,-0.5368,-0.3762,-0.2338,-0.1591,-0.1257,-0.1341,-0.2286,-0.2954,-0.3729,-0.4972,-0.4842,0.0,0.0,0.0,-0.2528,-0.2507,0.0,-0.2114,-0.3219,-0.352,-0.3838,-0.4429,-0.3708,-0.2893,-0.2249,-0.2724,-0.3214,-0.3608,-0.3942,-0.4549,-0.5448,-0.6199,-0.6939,-0.767,-0.8427,-0.8804,-0.8804,-0.8804,-0.8804,-0.8804,-0.8804,-0.9159,-0.9788,-0.9788,-1.044,-1.1466,-1.0287,-1.009,-1.0387,-0.8622,-0.7573,-0.6998,-0.6405,-0.583,-0.5337,-0.5378,-0.5943,-0.6687,-0.6687,-0.6721,-0.6651,-0.5997,-0.5973,-0.6492,-0.8208,-0.897,-0.9675,-1.1648,-1.2245,-1.2472,-1.3206,-1.4673,-1.6154,-1.6989,-1.8708,-2.037,-2.1052,-2.1551,-2.2041,-2.2421,-2.2823,-2.2457,-2.035,-1.8993,-1.763,-1.6062,-1.5784,-1.5784,-1.5784,-1.5784,-1.6157,-1.7084,-1.6669,-1.6574,-1.7131,-1.6669,-1.615,-1.5825,-1.699,-1.7837,-1.82,-1.8865,-1.9122,-1.895,-1.7313,-1.5852,-1.4663,-1.4277,-1.4088,-1.4088,-1.4088,-1.4355,-0.6839,-0.488,-0.3101,-0.2339,-0.1619,-0.148,-0.2926,-0.3287,-0.3539,-0.4349,-0.4519,-0.4491,-0.4487,-0.3873,-0.3336,-0.3276,-0.3298,0.0,0.0,-0.3796,-0.4254,-0.4474,-0.3785,-0.3018,-0.228,-0.2634,-0.334,-0.4375,-0.4192,-0.4455,-0.5439,-0.6199,-0.6939,-0.767,-0.8427,-0.8804,-0.8804,-0.8804,-0.8804,-0.8804,-0.8804,-0.9159,-0.9788,-0.9788,-1.0192,-1.0788,-1.009,-0.9814,-0.9732,-0.8443,-0.7498,-0.6845,-0.6384,-0.5757,-0.5123,-0.5341,-0.5943,-0.6687,-0.6687,-0.6772,-0.6791,-0.6029,-0.5801,-0.6006,-0.704,-0.8189,-0.9319,-1.0383,-1.1452,-1.2378,-1.273,-1.381,-1.5188,-1.6581,-1.8022,-1.9461,-2.0878,-2.1559,-2.2016,-2.2399,-2.2795,-2.2677,-2.148,-2.026,-1.8626,-1.615,-1.5784,-1.5784,-1.5784,-1.5784,-1.5825,-1.5879,-1.6951,-1.7178,-1.5967,-1.6943,-1.7131,-1.5879,-1.699,-1.8234,-1.9368,-1.9488,-2.0347,-2.2122,-1.8613,-1.6581,-1.6132,-1.4761,-1.4088,-1.4088,-1.4088,-1.4249,-0.8138,-0.5632,-0.3239,-0.2977,-0.2369,-0.2093,-0.3121,-0.3735,-0.4181,-0.4432,-0.4491,-0.4491,-0.4491,-0.3873,-0.3498,-0.4008,-0.3679,-0.366,0.0,-0.4942,-0.4731,-0.3818,-0.3044,-0.2255,-0.1411,-0.2354,-0.3385,-0.4231,-0.4655,-0.5054,-0.5471,-0.6199,-0.6723,-0.6966,-0.8156,-0.8804,-0.8804,-0.8804,-0.8804,-0.8804,-0.8804,-0.9159,-0.9788,-0.9788,-1.0167,-1.0762,-1.009,-0.9788,-0.9744,-0.8858,-0.7864,-0.6906,-0.6813,-0.6088,-0.5177,-0.5977,-0.6822,-0.7567,-0.7567,-0.7276,-0.6779,-0.5954,-0.5781,-0.6259,-0.7974,-0.8379,-0.8722,-1.1071,-1.1633,-1.1821,-1.2817,-1.4077,-1.5486,-1.6822,-1.8089,-1.9509,-2.1267,-2.179,-2.2116,-2.2785,-2.3028,-2.2457,-2.044,-1.9761,-1.8948,-1.7311,-1.6339,-1.5784,-1.5784,-1.5784,-1.6103,-1.699,-1.7458,-1.7863,-1.8211,-1.791,-1.7505,-1.7068,-1.8201,-1.9058,-1.9484,-2.1025,-2.2008,-2.2275,-1.9461,-1.7382,-1.6202,-1.479,-1.3688,-1.2942,-1.373,-1.4242,-0.9006,-0.6219,-0.3657,-0.3444,-0.2867,-0.2497,-0.3293,-0.4032,-0.4573,-0.4573,-0.4528,-0.4525,-0.4634,-0.4135,-0.3916,-0.4478,-0.4293,-0.4498,0.0,-0.5678,-0.4946,-0.3465,-0.2659,-0.1982,-0.1411,-0.2427,-0.3522,-0.4578,-0.5301,-0.5641,-0.5502,-0.6443,-0.6858,-0.6615,-0.8023,-0.8804,-0.8804,-0.8804,-0.8804,-0.8804,-0.8804,-0.9035,-0.9439,-0.9439,-0.9692,-1.0064,-0.964,-0.9439,-0.9413,-0.8982,-0.8174,-0.7188,-0.7125,-0.6423,-0.5509,-0.6371,-0.7242,-0.8059,-0.8355,-0.7757,-0.6739,-0.6173,-0.5908,-0.6036,-0.739,-0.7712,-0.8029,-0.9977,-1.0771,-1.1322,-1.2378,-1.3599,-1.5005,-1.6855,-1.8002,-1.9223,-2.1431,-2.1987,-2.2295,-2.2974,-2.3091,-2.2448,-2.0486,-1.9761,-1.8948,-1.7264,-1.6339,-1.5784,-1.5784,-1.5784,-1.6292,-1.7552,-1.8095,-1.8818,-2.0034,-1.9042,-1.8341,-1.8332,-1.9464,-2.0305,-2.0712,-2.2663,-2.3537,-2.3186,-2.055,-1.8498,-1.7051,-1.5071,-1.347,-1.2328,-1.3555,-1.391]}]]